<?xml version="1.0" encoding="UTF-8" standalone="no" ?>
<gpx xmlns="http://www.topografix.com/GPX/1/1" xmlns:xsi="http://www.w3.org/2001/XMLSchema-instance" xsi:schemaLocation="http://www.topografix.com/GPX/1/1 http://www.topografix.com/GPX/1/1/gpx.xsd" version="1.1" creator="VisuGPX - https://www.visugpx.com">
  <metadata>
    <name>Les Tours de Montmayeur</name>
    <desc><![CDATA[dénivelée : 604 m
distance : 19.36 km]]></desc>
  </metadata>
  <trk>
    <name><![CDATA[2013-04-23-01]]></name>
    <trkseg>
      <trkpt lat="45.4525" lon="6.10191">
        <ele>346</ele>
        <time>2013-04-23T06:51:22Z</time>
      </trkpt>
      <trkpt lat="45.45242" lon="6.10197">
        <ele>346.778503</ele>
        <time>2013-04-23T06:51:38Z</time>
      </trkpt>
      <trkpt lat="45.45235" lon="6.10204">
        <ele>346.771484</ele>
        <time>2013-04-23T06:51:47Z</time>
      </trkpt>
      <trkpt lat="45.45234" lon="6.10206">
        <ele>346.583068</ele>
        <time>2013-04-23T06:51:49Z</time>
      </trkpt>
      <trkpt lat="45.45235" lon="6.10204">
        <ele>346.7</ele>
        <time>2013-04-23T06:51:47Z</time>
      </trkpt>
      <trkpt lat="45.45232" lon="6.10208">
        <ele>346.3</ele>
        <time>2013-04-23T06:51:53Z</time>
      </trkpt>
      <trkpt lat="45.45232" lon="6.10208">
        <ele>346.3</ele>
        <time>2013-04-23T06:51:54Z</time>
      </trkpt>
      <trkpt lat="45.45223" lon="6.10208">
        <ele>346.9</ele>
        <time>2013-04-23T07:00:20Z</time>
      </trkpt>
      <trkpt lat="45.45223" lon="6.10208">
        <ele>346.5</ele>
        <time>2013-04-23T07:00:21Z</time>
      </trkpt>
      <trkpt lat="45.45223" lon="6.10221">
        <ele>346.8</ele>
        <time>2013-04-23T07:02:02Z</time>
      </trkpt>
      <trkpt lat="45.45215" lon="6.10213">
        <ele>346.6</ele>
        <time>2013-04-23T07:03:51Z</time>
      </trkpt>
      <trkpt lat="45.45202" lon="6.10199">
        <ele>347.2</ele>
        <time>2013-04-23T07:04:15Z</time>
      </trkpt>
      <trkpt lat="45.45195" lon="6.10192">
        <ele>347.4</ele>
        <time>2013-04-23T07:04:25Z</time>
      </trkpt>
      <trkpt lat="45.45195" lon="6.10179">
        <ele>347</ele>
        <time>2013-04-23T07:04:48Z</time>
      </trkpt>
      <trkpt lat="45.45191" lon="6.10191">
        <ele>346.9</ele>
        <time>2013-04-23T07:06:38Z</time>
      </trkpt>
      <trkpt lat="45.45191" lon="6.10191">
        <ele>346.9</ele>
        <time>2013-04-23T07:06:39Z</time>
      </trkpt>
      <trkpt lat="45.45186" lon="6.10213">
        <ele>345.4</ele>
        <time>2013-04-23T07:06:58Z</time>
      </trkpt>
      <trkpt lat="45.45178" lon="6.10218">
        <ele>344.8</ele>
        <time>2013-04-23T07:07:12Z</time>
      </trkpt>
      <trkpt lat="45.45177" lon="6.10205">
        <ele>345.1</ele>
        <time>2013-04-23T07:07:25Z</time>
      </trkpt>
      <trkpt lat="45.45169" lon="6.10206">
        <ele>344.7</ele>
        <time>2013-04-23T07:07:33Z</time>
      </trkpt>
      <trkpt lat="45.45161" lon="6.1021">
        <ele>343.6</ele>
        <time>2013-04-23T07:07:43Z</time>
      </trkpt>
      <trkpt lat="45.4516" lon="6.10211">
        <ele>343.4</ele>
        <time>2013-04-23T07:07:44Z</time>
      </trkpt>
      <trkpt lat="45.45147" lon="6.10224">
        <ele>344.3</ele>
        <time>2013-04-23T07:07:58Z</time>
      </trkpt>
      <trkpt lat="45.4514" lon="6.10231">
        <ele>344.4</ele>
        <time>2013-04-23T07:08:06Z</time>
      </trkpt>
      <trkpt lat="45.45134" lon="6.10239">
        <ele>344.1</ele>
        <time>2013-04-23T07:08:16Z</time>
      </trkpt>
      <trkpt lat="45.45127" lon="6.10246">
        <ele>344.1</ele>
        <time>2013-04-23T07:08:24Z</time>
      </trkpt>
      <trkpt lat="45.4512" lon="6.10252">
        <ele>344.6</ele>
        <time>2013-04-23T07:08:32Z</time>
      </trkpt>
      <trkpt lat="45.45112" lon="6.10259">
        <ele>343.9</ele>
        <time>2013-04-23T07:08:41Z</time>
      </trkpt>
      <trkpt lat="45.45104" lon="6.10265">
        <ele>344.5</ele>
        <time>2013-04-23T07:08:49Z</time>
      </trkpt>
      <trkpt lat="45.45104" lon="6.10265">
        <ele>344.6</ele>
        <time>2013-04-23T07:08:50Z</time>
      </trkpt>
      <trkpt lat="45.45088" lon="6.10266">
        <ele>345.1</ele>
        <time>2013-04-23T07:09:02Z</time>
      </trkpt>
      <trkpt lat="45.45081" lon="6.10262">
        <ele>345</ele>
        <time>2013-04-23T07:09:10Z</time>
      </trkpt>
      <trkpt lat="45.45074" lon="6.10254">
        <ele>345</ele>
        <time>2013-04-23T07:09:18Z</time>
      </trkpt>
      <trkpt lat="45.45069" lon="6.10245">
        <ele>345</ele>
        <time>2013-04-23T07:09:27Z</time>
      </trkpt>
      <trkpt lat="45.45064" lon="6.10235">
        <ele>345.1</ele>
        <time>2013-04-23T07:09:36Z</time>
      </trkpt>
      <trkpt lat="45.4506" lon="6.10225">
        <ele>345</ele>
        <time>2013-04-23T07:09:44Z</time>
      </trkpt>
      <trkpt lat="45.45058" lon="6.10214">
        <ele>344.7</ele>
        <time>2013-04-23T07:09:51Z</time>
      </trkpt>
      <trkpt lat="45.45057" lon="6.10212">
        <ele>344.7</ele>
        <time>2013-04-23T07:09:52Z</time>
      </trkpt>
      <trkpt lat="45.45055" lon="6.10191">
        <ele>345.3</ele>
        <time>2013-04-23T07:10:05Z</time>
      </trkpt>
      <trkpt lat="45.45057" lon="6.10179">
        <ele>345.4</ele>
        <time>2013-04-23T07:10:13Z</time>
      </trkpt>
      <trkpt lat="45.45056" lon="6.10168">
        <ele>345</ele>
        <time>2013-04-23T07:10:21Z</time>
      </trkpt>
      <trkpt lat="45.45051" lon="6.10158">
        <ele>344.6</ele>
        <time>2013-04-23T07:10:30Z</time>
      </trkpt>
      <trkpt lat="45.45045" lon="6.10149">
        <ele>345.4</ele>
        <time>2013-04-23T07:10:39Z</time>
      </trkpt>
      <trkpt lat="45.45038" lon="6.10143">
        <ele>344.7</ele>
        <time>2013-04-23T07:10:45Z</time>
      </trkpt>
      <trkpt lat="45.45031" lon="6.10138">
        <ele>343.7</ele>
        <time>2013-04-23T07:10:51Z</time>
      </trkpt>
      <trkpt lat="45.45022" lon="6.10135">
        <ele>343.7</ele>
        <time>2013-04-23T07:10:58Z</time>
      </trkpt>
      <trkpt lat="45.45021" lon="6.10134">
        <ele>343.7</ele>
        <time>2013-04-23T07:10:59Z</time>
      </trkpt>
      <trkpt lat="45.45008" lon="6.10125">
        <ele>344.7</ele>
        <time>2013-04-23T07:11:12Z</time>
      </trkpt>
      <trkpt lat="45.45" lon="6.10121">
        <ele>345</ele>
        <time>2013-04-23T07:11:19Z</time>
      </trkpt>
      <trkpt lat="45.44994" lon="6.10115">
        <ele>344.1</ele>
        <time>2013-04-23T07:11:26Z</time>
      </trkpt>
      <trkpt lat="45.44987" lon="6.10108">
        <ele>344.2</ele>
        <time>2013-04-23T07:11:33Z</time>
      </trkpt>
      <trkpt lat="45.4498" lon="6.10102">
        <ele>344.9</ele>
        <time>2013-04-23T07:11:40Z</time>
      </trkpt>
      <trkpt lat="45.44974" lon="6.10095">
        <ele>344.1</ele>
        <time>2013-04-23T07:11:46Z</time>
      </trkpt>
      <trkpt lat="45.44966" lon="6.10088">
        <ele>344.4</ele>
        <time>2013-04-23T07:11:53Z</time>
      </trkpt>
      <trkpt lat="45.4496" lon="6.10079">
        <ele>344.8</ele>
        <time>2013-04-23T07:12:00Z</time>
      </trkpt>
      <trkpt lat="45.44959" lon="6.10077">
        <ele>345</ele>
        <time>2013-04-23T07:12:01Z</time>
      </trkpt>
      <trkpt lat="45.44948" lon="6.10064">
        <ele>345.7</ele>
        <time>2013-04-23T07:12:13Z</time>
      </trkpt>
      <trkpt lat="45.44942" lon="6.10055">
        <ele>344.8</ele>
        <time>2013-04-23T07:12:22Z</time>
      </trkpt>
      <trkpt lat="45.44934" lon="6.1005">
        <ele>344.5</ele>
        <time>2013-04-23T07:12:31Z</time>
      </trkpt>
      <trkpt lat="45.44928" lon="6.10043">
        <ele>345.2</ele>
        <time>2013-04-23T07:12:38Z</time>
      </trkpt>
      <trkpt lat="45.44921" lon="6.10035">
        <ele>345.4</ele>
        <time>2013-04-23T07:12:45Z</time>
      </trkpt>
      <trkpt lat="45.44914" lon="6.10029">
        <ele>344.7</ele>
        <time>2013-04-23T07:12:52Z</time>
      </trkpt>
      <trkpt lat="45.44907" lon="6.10022">
        <ele>344.3</ele>
        <time>2013-04-23T07:12:59Z</time>
      </trkpt>
      <trkpt lat="45.44901" lon="6.10013">
        <ele>344.7</ele>
        <time>2013-04-23T07:13:07Z</time>
      </trkpt>
      <trkpt lat="45.44901" lon="6.10012">
        <ele>344.7</ele>
        <time>2013-04-23T07:13:08Z</time>
      </trkpt>
      <trkpt lat="45.44901" lon="6.09991">
        <ele>343.6</ele>
        <time>2013-04-23T07:13:24Z</time>
      </trkpt>
      <trkpt lat="45.44901" lon="6.0998">
        <ele>344.3</ele>
        <time>2013-04-23T07:13:31Z</time>
      </trkpt>
      <trkpt lat="45.44904" lon="6.09968">
        <ele>343.6</ele>
        <time>2013-04-23T07:13:39Z</time>
      </trkpt>
      <trkpt lat="45.44907" lon="6.09957">
        <ele>344.2</ele>
        <time>2013-04-23T07:13:47Z</time>
      </trkpt>
      <trkpt lat="45.44911" lon="6.09945">
        <ele>344.2</ele>
        <time>2013-04-23T07:13:56Z</time>
      </trkpt>
      <trkpt lat="45.44915" lon="6.09936">
        <ele>344.3</ele>
        <time>2013-04-23T07:14:04Z</time>
      </trkpt>
      <trkpt lat="45.4492" lon="6.09926">
        <ele>344.1</ele>
        <time>2013-04-23T07:14:11Z</time>
      </trkpt>
      <trkpt lat="45.44921" lon="6.09925">
        <ele>344.1</ele>
        <time>2013-04-23T07:14:12Z</time>
      </trkpt>
      <trkpt lat="45.44932" lon="6.09909">
        <ele>344.4</ele>
        <time>2013-04-23T07:14:25Z</time>
      </trkpt>
      <trkpt lat="45.44938" lon="6.09902">
        <ele>344.4</ele>
        <time>2013-04-23T07:14:31Z</time>
      </trkpt>
      <trkpt lat="45.44945" lon="6.09894">
        <ele>343.8</ele>
        <time>2013-04-23T07:14:39Z</time>
      </trkpt>
      <trkpt lat="45.4495" lon="6.09885">
        <ele>344.1</ele>
        <time>2013-04-23T07:14:49Z</time>
      </trkpt>
      <trkpt lat="45.44954" lon="6.09875">
        <ele>343.2</ele>
        <time>2013-04-23T07:14:56Z</time>
      </trkpt>
      <trkpt lat="45.44958" lon="6.09864">
        <ele>344.3</ele>
        <time>2013-04-23T07:15:05Z</time>
      </trkpt>
      <trkpt lat="45.44962" lon="6.09855">
        <ele>345.4</ele>
        <time>2013-04-23T07:15:12Z</time>
      </trkpt>
      <trkpt lat="45.44963" lon="6.09853">
        <ele>345.6</ele>
        <time>2013-04-23T07:15:13Z</time>
      </trkpt>
      <trkpt lat="45.44972" lon="6.09835">
        <ele>345.6</ele>
        <time>2013-04-23T07:15:30Z</time>
      </trkpt>
      <trkpt lat="45.44976" lon="6.09825">
        <ele>346.2</ele>
        <time>2013-04-23T07:15:37Z</time>
      </trkpt>
      <trkpt lat="45.44979" lon="6.09815">
        <ele>347.3</ele>
        <time>2013-04-23T07:15:44Z</time>
      </trkpt>
      <trkpt lat="45.44977" lon="6.09803">
        <ele>347.8</ele>
        <time>2013-04-23T07:15:55Z</time>
      </trkpt>
      <trkpt lat="45.44969" lon="6.09797">
        <ele>348.6</ele>
        <time>2013-04-23T07:16:03Z</time>
      </trkpt>
      <trkpt lat="45.44961" lon="6.09792">
        <ele>348.1</ele>
        <time>2013-04-23T07:16:10Z</time>
      </trkpt>
      <trkpt lat="45.44954" lon="6.09788">
        <ele>348.5</ele>
        <time>2013-04-23T07:16:16Z</time>
      </trkpt>
      <trkpt lat="45.44953" lon="6.09787">
        <ele>348.4</ele>
        <time>2013-04-23T07:16:17Z</time>
      </trkpt>
      <trkpt lat="45.44939" lon="6.09781">
        <ele>348.5</ele>
        <time>2013-04-23T07:16:28Z</time>
      </trkpt>
      <trkpt lat="45.4493" lon="6.09778">
        <ele>348.2</ele>
        <time>2013-04-23T07:16:35Z</time>
      </trkpt>
      <trkpt lat="45.44922" lon="6.09774">
        <ele>348.1</ele>
        <time>2013-04-23T07:16:41Z</time>
      </trkpt>
      <trkpt lat="45.44914" lon="6.0977">
        <ele>348.3</ele>
        <time>2013-04-23T07:16:48Z</time>
      </trkpt>
      <trkpt lat="45.44906" lon="6.09765">
        <ele>347.4</ele>
        <time>2013-04-23T07:16:56Z</time>
      </trkpt>
      <trkpt lat="45.44899" lon="6.0976">
        <ele>347.5</ele>
        <time>2013-04-23T07:17:03Z</time>
      </trkpt>
      <trkpt lat="45.44891" lon="6.09755">
        <ele>348</ele>
        <time>2013-04-23T07:17:10Z</time>
      </trkpt>
      <trkpt lat="45.44883" lon="6.09751">
        <ele>346.8</ele>
        <time>2013-04-23T07:17:17Z</time>
      </trkpt>
      <trkpt lat="45.44882" lon="6.0975">
        <ele>346.7</ele>
        <time>2013-04-23T07:17:18Z</time>
      </trkpt>
      <trkpt lat="45.44869" lon="6.09739">
        <ele>346.4</ele>
        <time>2013-04-23T07:17:31Z</time>
      </trkpt>
      <trkpt lat="45.44862" lon="6.09732">
        <ele>345.9</ele>
        <time>2013-04-23T07:17:38Z</time>
      </trkpt>
      <trkpt lat="45.44855" lon="6.09725">
        <ele>346.7</ele>
        <time>2013-04-23T07:17:45Z</time>
      </trkpt>
      <trkpt lat="45.44848" lon="6.09718">
        <ele>346.8</ele>
        <time>2013-04-23T07:17:52Z</time>
      </trkpt>
      <trkpt lat="45.44841" lon="6.0971">
        <ele>346.2</ele>
        <time>2013-04-23T07:17:59Z</time>
      </trkpt>
      <trkpt lat="45.44835" lon="6.09704">
        <ele>346.1</ele>
        <time>2013-04-23T07:18:05Z</time>
      </trkpt>
      <trkpt lat="45.44828" lon="6.09696">
        <ele>346.1</ele>
        <time>2013-04-23T07:18:12Z</time>
      </trkpt>
      <trkpt lat="45.44821" lon="6.09688">
        <ele>345.9</ele>
        <time>2013-04-23T07:18:19Z</time>
      </trkpt>
      <trkpt lat="45.4482" lon="6.09687">
        <ele>345.8</ele>
        <time>2013-04-23T07:18:20Z</time>
      </trkpt>
      <trkpt lat="45.44809" lon="6.09672">
        <ele>346.3</ele>
        <time>2013-04-23T07:18:33Z</time>
      </trkpt>
      <trkpt lat="45.44802" lon="6.09665">
        <ele>346.3</ele>
        <time>2013-04-23T07:18:41Z</time>
      </trkpt>
      <trkpt lat="45.44796" lon="6.09657">
        <ele>345.6</ele>
        <time>2013-04-23T07:18:49Z</time>
      </trkpt>
      <trkpt lat="45.4479" lon="6.09648">
        <ele>346.2</ele>
        <time>2013-04-23T07:18:56Z</time>
      </trkpt>
      <trkpt lat="45.44784" lon="6.09638">
        <ele>346</ele>
        <time>2013-04-23T07:19:03Z</time>
      </trkpt>
      <trkpt lat="45.44779" lon="6.0963">
        <ele>345.3</ele>
        <time>2013-04-23T07:19:09Z</time>
      </trkpt>
      <trkpt lat="45.44774" lon="6.09622">
        <ele>345.9</ele>
        <time>2013-04-23T07:19:15Z</time>
      </trkpt>
      <trkpt lat="45.44768" lon="6.09614">
        <ele>346</ele>
        <time>2013-04-23T07:19:21Z</time>
      </trkpt>
      <trkpt lat="45.44767" lon="6.09612">
        <ele>346</ele>
        <time>2013-04-23T07:19:22Z</time>
      </trkpt>
      <trkpt lat="45.44757" lon="6.09594">
        <ele>345.9</ele>
        <time>2013-04-23T07:19:35Z</time>
      </trkpt>
      <trkpt lat="45.44752" lon="6.09586">
        <ele>345.9</ele>
        <time>2013-04-23T07:19:41Z</time>
      </trkpt>
      <trkpt lat="45.44747" lon="6.09576">
        <ele>346.1</ele>
        <time>2013-04-23T07:19:48Z</time>
      </trkpt>
      <trkpt lat="45.44741" lon="6.09567">
        <ele>345.9</ele>
        <time>2013-04-23T07:19:55Z</time>
      </trkpt>
      <trkpt lat="45.44735" lon="6.09558">
        <ele>345.7</ele>
        <time>2013-04-23T07:20:02Z</time>
      </trkpt>
      <trkpt lat="45.4473" lon="6.09548">
        <ele>345.7</ele>
        <time>2013-04-23T07:20:09Z</time>
      </trkpt>
      <trkpt lat="45.44725" lon="6.09539">
        <ele>345.3</ele>
        <time>2013-04-23T07:20:17Z</time>
      </trkpt>
      <trkpt lat="45.4472" lon="6.09531">
        <ele>345.7</ele>
        <time>2013-04-23T07:20:24Z</time>
      </trkpt>
      <trkpt lat="45.44719" lon="6.09529">
        <ele>345.6</ele>
        <time>2013-04-23T07:20:25Z</time>
      </trkpt>
      <trkpt lat="45.44708" lon="6.09511">
        <ele>346.2</ele>
        <time>2013-04-23T07:20:38Z</time>
      </trkpt>
      <trkpt lat="45.44702" lon="6.09503">
        <ele>345.8</ele>
        <time>2013-04-23T07:20:45Z</time>
      </trkpt>
      <trkpt lat="45.44696" lon="6.09495">
        <ele>345.8</ele>
        <time>2013-04-23T07:20:52Z</time>
      </trkpt>
      <trkpt lat="45.44691" lon="6.09487">
        <ele>345.5</ele>
        <time>2013-04-23T07:20:59Z</time>
      </trkpt>
      <trkpt lat="45.44685" lon="6.09479">
        <ele>346.6</ele>
        <time>2013-04-23T07:21:06Z</time>
      </trkpt>
      <trkpt lat="45.4468" lon="6.0947">
        <ele>346.4</ele>
        <time>2013-04-23T07:21:14Z</time>
      </trkpt>
      <trkpt lat="45.44675" lon="6.0946">
        <ele>347.3</ele>
        <time>2013-04-23T07:21:22Z</time>
      </trkpt>
      <trkpt lat="45.44669" lon="6.09451">
        <ele>346.6</ele>
        <time>2013-04-23T07:21:30Z</time>
      </trkpt>
      <trkpt lat="45.44668" lon="6.0945">
        <ele>346.7</ele>
        <time>2013-04-23T07:21:31Z</time>
      </trkpt>
      <trkpt lat="45.44656" lon="6.09435">
        <ele>348.5</ele>
        <time>2013-04-23T07:21:46Z</time>
      </trkpt>
      <trkpt lat="45.44649" lon="6.09427">
        <ele>347.9</ele>
        <time>2013-04-23T07:21:54Z</time>
      </trkpt>
      <trkpt lat="45.44643" lon="6.09419">
        <ele>348.2</ele>
        <time>2013-04-23T07:22:01Z</time>
      </trkpt>
      <trkpt lat="45.44637" lon="6.09412">
        <ele>348.7</ele>
        <time>2013-04-23T07:22:08Z</time>
      </trkpt>
      <trkpt lat="45.44631" lon="6.09403">
        <ele>349.2</ele>
        <time>2013-04-23T07:22:16Z</time>
      </trkpt>
      <trkpt lat="45.44625" lon="6.09394">
        <ele>348.9</ele>
        <time>2013-04-23T07:22:22Z</time>
      </trkpt>
      <trkpt lat="45.4462" lon="6.09386">
        <ele>349.1</ele>
        <time>2013-04-23T07:22:28Z</time>
      </trkpt>
      <trkpt lat="45.44614" lon="6.09377">
        <ele>349.5</ele>
        <time>2013-04-23T07:22:35Z</time>
      </trkpt>
      <trkpt lat="45.44613" lon="6.09376">
        <ele>349.3</ele>
        <time>2013-04-23T07:22:36Z</time>
      </trkpt>
      <trkpt lat="45.44604" lon="6.09357">
        <ele>349.3</ele>
        <time>2013-04-23T07:22:51Z</time>
      </trkpt>
      <trkpt lat="45.44613" lon="6.09353">
        <ele>349.4</ele>
        <time>2013-04-23T07:23:04Z</time>
      </trkpt>
      <trkpt lat="45.44616" lon="6.09342">
        <ele>348.7</ele>
        <time>2013-04-23T07:23:18Z</time>
      </trkpt>
      <trkpt lat="45.44622" lon="6.09335">
        <ele>349.5</ele>
        <time>2013-04-23T07:23:25Z</time>
      </trkpt>
      <trkpt lat="45.44627" lon="6.09325">
        <ele>350.3</ele>
        <time>2013-04-23T07:23:32Z</time>
      </trkpt>
      <trkpt lat="45.44632" lon="6.09314">
        <ele>350.8</ele>
        <time>2013-04-23T07:23:41Z</time>
      </trkpt>
      <trkpt lat="45.44633" lon="6.09313">
        <ele>350.6</ele>
        <time>2013-04-23T07:23:42Z</time>
      </trkpt>
      <trkpt lat="45.44645" lon="6.09301">
        <ele>351.6</ele>
        <time>2013-04-23T07:23:54Z</time>
      </trkpt>
      <trkpt lat="45.44643" lon="6.09289">
        <ele>351.9</ele>
        <time>2013-04-23T07:24:02Z</time>
      </trkpt>
      <trkpt lat="45.4464" lon="6.09278">
        <ele>352.2</ele>
        <time>2013-04-23T07:24:08Z</time>
      </trkpt>
      <trkpt lat="45.44637" lon="6.09267">
        <ele>352.5</ele>
        <time>2013-04-23T07:24:14Z</time>
      </trkpt>
      <trkpt lat="45.44634" lon="6.09256">
        <ele>353.2</ele>
        <time>2013-04-23T07:24:20Z</time>
      </trkpt>
      <trkpt lat="45.44631" lon="6.09246">
        <ele>353.5</ele>
        <time>2013-04-23T07:24:26Z</time>
      </trkpt>
      <trkpt lat="45.4463" lon="6.09233">
        <ele>354.1</ele>
        <time>2013-04-23T07:24:33Z</time>
      </trkpt>
      <trkpt lat="45.44629" lon="6.09222">
        <ele>355.4</ele>
        <time>2013-04-23T07:24:40Z</time>
      </trkpt>
      <trkpt lat="45.44628" lon="6.0921">
        <ele>356.3</ele>
        <time>2013-04-23T07:24:47Z</time>
      </trkpt>
      <trkpt lat="45.44627" lon="6.09208">
        <ele>356.1</ele>
        <time>2013-04-23T07:24:48Z</time>
      </trkpt>
      <trkpt lat="45.44623" lon="6.09187">
        <ele>357.1</ele>
        <time>2013-04-23T07:25:02Z</time>
      </trkpt>
      <trkpt lat="45.44621" lon="6.09175">
        <ele>358.2</ele>
        <time>2013-04-23T07:25:10Z</time>
      </trkpt>
      <trkpt lat="45.44618" lon="6.09163">
        <ele>359.2</ele>
        <time>2013-04-23T07:25:26Z</time>
      </trkpt>
      <trkpt lat="45.44617" lon="6.0915">
        <ele>359.9</ele>
        <time>2013-04-23T07:25:57Z</time>
      </trkpt>
      <trkpt lat="45.44617" lon="6.09149">
        <ele>360</ele>
        <time>2013-04-23T07:25:58Z</time>
      </trkpt>
      <trkpt lat="45.44631" lon="6.09145">
        <ele>363.2</ele>
        <time>2013-04-23T07:26:14Z</time>
      </trkpt>
      <trkpt lat="45.44639" lon="6.09151">
        <ele>363.3</ele>
        <time>2013-04-23T07:26:21Z</time>
      </trkpt>
      <trkpt lat="45.44647" lon="6.09154">
        <ele>366.2</ele>
        <time>2013-04-23T07:26:35Z</time>
      </trkpt>
      <trkpt lat="45.44652" lon="6.09144">
        <ele>367.4</ele>
        <time>2013-04-23T07:26:46Z</time>
      </trkpt>
      <trkpt lat="45.44656" lon="6.09133">
        <ele>369.8</ele>
        <time>2013-04-23T07:26:59Z</time>
      </trkpt>
      <trkpt lat="45.44656" lon="6.09131">
        <ele>369.7</ele>
        <time>2013-04-23T07:27:00Z</time>
      </trkpt>
      <trkpt lat="45.44654" lon="6.09109">
        <ele>371.7</ele>
        <time>2013-04-23T07:27:23Z</time>
      </trkpt>
      <trkpt lat="45.44649" lon="6.09099">
        <ele>373</ele>
        <time>2013-04-23T07:27:32Z</time>
      </trkpt>
      <trkpt lat="45.44645" lon="6.09089">
        <ele>374.1</ele>
        <time>2013-04-23T07:27:40Z</time>
      </trkpt>
      <trkpt lat="45.44639" lon="6.0908">
        <ele>375.3</ele>
        <time>2013-04-23T07:27:52Z</time>
      </trkpt>
      <trkpt lat="45.44634" lon="6.09071">
        <ele>377.9</ele>
        <time>2013-04-23T07:28:03Z</time>
      </trkpt>
      <trkpt lat="45.44633" lon="6.0907">
        <ele>378</ele>
        <time>2013-04-23T07:28:04Z</time>
      </trkpt>
      <trkpt lat="45.44624" lon="6.09052">
        <ele>381.2</ele>
        <time>2013-04-23T07:28:21Z</time>
      </trkpt>
      <trkpt lat="45.4462" lon="6.09042">
        <ele>382.5</ele>
        <time>2013-04-23T07:28:28Z</time>
      </trkpt>
      <trkpt lat="45.44615" lon="6.09031">
        <ele>382.7</ele>
        <time>2013-04-23T07:28:36Z</time>
      </trkpt>
      <trkpt lat="45.44611" lon="6.09021">
        <ele>384.3</ele>
        <time>2013-04-23T07:28:46Z</time>
      </trkpt>
      <trkpt lat="45.44608" lon="6.0901">
        <ele>385.6</ele>
        <time>2013-04-23T07:28:55Z</time>
      </trkpt>
      <trkpt lat="45.44608" lon="6.08997">
        <ele>387.8</ele>
        <time>2013-04-23T07:29:05Z</time>
      </trkpt>
      <trkpt lat="45.44608" lon="6.08996">
        <ele>388</ele>
        <time>2013-04-23T07:29:06Z</time>
      </trkpt>
      <trkpt lat="45.44605" lon="6.08973">
        <ele>390.6</ele>
        <time>2013-04-23T07:29:23Z</time>
      </trkpt>
      <trkpt lat="45.44603" lon="6.08961">
        <ele>392.5</ele>
        <time>2013-04-23T07:29:33Z</time>
      </trkpt>
      <trkpt lat="45.44599" lon="6.0895">
        <ele>394.7</ele>
        <time>2013-04-23T07:29:43Z</time>
      </trkpt>
      <trkpt lat="45.44597" lon="6.08938">
        <ele>396.4</ele>
        <time>2013-04-23T07:29:52Z</time>
      </trkpt>
      <trkpt lat="45.44597" lon="6.08926">
        <ele>397.5</ele>
        <time>2013-04-23T07:30:01Z</time>
      </trkpt>
      <trkpt lat="45.44598" lon="6.08914">
        <ele>399</ele>
        <time>2013-04-23T07:30:11Z</time>
      </trkpt>
      <trkpt lat="45.44598" lon="6.08913">
        <ele>399.3</ele>
        <time>2013-04-23T07:30:12Z</time>
      </trkpt>
      <trkpt lat="45.44597" lon="6.0889">
        <ele>402.4</ele>
        <time>2013-04-23T07:30:33Z</time>
      </trkpt>
      <trkpt lat="45.44596" lon="6.08877">
        <ele>403.5</ele>
        <time>2013-04-23T07:30:44Z</time>
      </trkpt>
      <trkpt lat="45.44594" lon="6.08866">
        <ele>405.6</ele>
        <time>2013-04-23T07:30:54Z</time>
      </trkpt>
      <trkpt lat="45.44592" lon="6.08854">
        <ele>406.5</ele>
        <time>2013-04-23T07:31:04Z</time>
      </trkpt>
      <trkpt lat="45.44591" lon="6.08842">
        <ele>408.6</ele>
        <time>2013-04-23T07:31:15Z</time>
      </trkpt>
      <trkpt lat="45.44591" lon="6.08841">
        <ele>408.5</ele>
        <time>2013-04-23T07:31:16Z</time>
      </trkpt>
      <trkpt lat="45.4459" lon="6.08817">
        <ele>413.7</ele>
        <time>2013-04-23T07:31:37Z</time>
      </trkpt>
      <trkpt lat="45.44589" lon="6.08805">
        <ele>414.2</ele>
        <time>2013-04-23T07:31:45Z</time>
      </trkpt>
      <trkpt lat="45.44591" lon="6.08793">
        <ele>415.4</ele>
        <time>2013-04-23T07:31:53Z</time>
      </trkpt>
      <trkpt lat="45.4459" lon="6.08781">
        <ele>415.4</ele>
        <time>2013-04-23T07:32:01Z</time>
      </trkpt>
      <trkpt lat="45.44589" lon="6.08769">
        <ele>415.7</ele>
        <time>2013-04-23T07:32:09Z</time>
      </trkpt>
      <trkpt lat="45.44589" lon="6.08756">
        <ele>416.2</ele>
        <time>2013-04-23T07:32:17Z</time>
      </trkpt>
      <trkpt lat="45.44589" lon="6.08755">
        <ele>416.1</ele>
        <time>2013-04-23T07:32:18Z</time>
      </trkpt>
      <trkpt lat="45.44587" lon="6.08732">
        <ele>416.8</ele>
        <time>2013-04-23T07:32:33Z</time>
      </trkpt>
      <trkpt lat="45.44585" lon="6.0872">
        <ele>416.4</ele>
        <time>2013-04-23T07:32:40Z</time>
      </trkpt>
      <trkpt lat="45.44584" lon="6.08708">
        <ele>416.2</ele>
        <time>2013-04-23T07:32:47Z</time>
      </trkpt>
      <trkpt lat="45.44582" lon="6.08696">
        <ele>416.1</ele>
        <time>2013-04-23T07:32:54Z</time>
      </trkpt>
      <trkpt lat="45.4458" lon="6.08685">
        <ele>416.6</ele>
        <time>2013-04-23T07:33:01Z</time>
      </trkpt>
      <trkpt lat="45.44579" lon="6.08673">
        <ele>417</ele>
        <time>2013-04-23T07:33:08Z</time>
      </trkpt>
      <trkpt lat="45.44578" lon="6.08661">
        <ele>416.9</ele>
        <time>2013-04-23T07:33:16Z</time>
      </trkpt>
      <trkpt lat="45.44578" lon="6.08649">
        <ele>417.8</ele>
        <time>2013-04-23T07:33:23Z</time>
      </trkpt>
      <trkpt lat="45.44578" lon="6.08647">
        <ele>417.9</ele>
        <time>2013-04-23T07:33:24Z</time>
      </trkpt>
      <trkpt lat="45.44577" lon="6.08625">
        <ele>418.9</ele>
        <time>2013-04-23T07:33:40Z</time>
      </trkpt>
      <trkpt lat="45.44575" lon="6.08614">
        <ele>419</ele>
        <time>2013-04-23T07:33:48Z</time>
      </trkpt>
      <trkpt lat="45.44573" lon="6.08602">
        <ele>418.7</ele>
        <time>2013-04-23T07:33:56Z</time>
      </trkpt>
      <trkpt lat="45.44569" lon="6.08591">
        <ele>419.1</ele>
        <time>2013-04-23T07:34:03Z</time>
      </trkpt>
      <trkpt lat="45.44566" lon="6.0858">
        <ele>419.7</ele>
        <time>2013-04-23T07:34:10Z</time>
      </trkpt>
      <trkpt lat="45.44565" lon="6.08569">
        <ele>420.2</ele>
        <time>2013-04-23T07:34:18Z</time>
      </trkpt>
      <trkpt lat="45.44565" lon="6.08557">
        <ele>420.4</ele>
        <time>2013-04-23T07:34:26Z</time>
      </trkpt>
      <trkpt lat="45.44565" lon="6.08555">
        <ele>421</ele>
        <time>2013-04-23T07:34:27Z</time>
      </trkpt>
      <trkpt lat="45.44563" lon="6.08532">
        <ele>421.8</ele>
        <time>2013-04-23T07:34:43Z</time>
      </trkpt>
      <trkpt lat="45.44561" lon="6.08519">
        <ele>422.6</ele>
        <time>2013-04-23T07:34:51Z</time>
      </trkpt>
      <trkpt lat="45.44557" lon="6.08508">
        <ele>423.6</ele>
        <time>2013-04-23T07:34:58Z</time>
      </trkpt>
      <trkpt lat="45.44554" lon="6.08497">
        <ele>423.2</ele>
        <time>2013-04-23T07:35:05Z</time>
      </trkpt>
      <trkpt lat="45.44552" lon="6.08486">
        <ele>424.3</ele>
        <time>2013-04-23T07:35:14Z</time>
      </trkpt>
      <trkpt lat="45.44549" lon="6.08474">
        <ele>425.8</ele>
        <time>2013-04-23T07:35:23Z</time>
      </trkpt>
      <trkpt lat="45.44546" lon="6.08462">
        <ele>425.9</ele>
        <time>2013-04-23T07:35:31Z</time>
      </trkpt>
      <trkpt lat="45.44545" lon="6.0846">
        <ele>425.8</ele>
        <time>2013-04-23T07:35:32Z</time>
      </trkpt>
      <trkpt lat="45.44539" lon="6.0844">
        <ele>427.9</ele>
        <time>2013-04-23T07:35:47Z</time>
      </trkpt>
      <trkpt lat="45.44535" lon="6.0843">
        <ele>429.4</ele>
        <time>2013-04-23T07:35:56Z</time>
      </trkpt>
      <trkpt lat="45.44534" lon="6.08417">
        <ele>431</ele>
        <time>2013-04-23T07:36:07Z</time>
      </trkpt>
      <trkpt lat="45.44531" lon="6.08406">
        <ele>431.1</ele>
        <time>2013-04-23T07:36:15Z</time>
      </trkpt>
      <trkpt lat="45.44531" lon="6.08394">
        <ele>433</ele>
        <time>2013-04-23T07:36:23Z</time>
      </trkpt>
      <trkpt lat="45.44533" lon="6.08382">
        <ele>433.4</ele>
        <time>2013-04-23T07:36:31Z</time>
      </trkpt>
      <trkpt lat="45.44535" lon="6.08371">
        <ele>433.4</ele>
        <time>2013-04-23T07:36:38Z</time>
      </trkpt>
      <trkpt lat="45.44536" lon="6.0837">
        <ele>433.4</ele>
        <time>2013-04-23T07:36:39Z</time>
      </trkpt>
      <trkpt lat="45.4454" lon="6.08349">
        <ele>433.3</ele>
        <time>2013-04-23T07:36:53Z</time>
      </trkpt>
      <trkpt lat="45.4454" lon="6.08338">
        <ele>433.8</ele>
        <time>2013-04-23T07:36:59Z</time>
      </trkpt>
      <trkpt lat="45.44541" lon="6.08326">
        <ele>433.1</ele>
        <time>2013-04-23T07:37:06Z</time>
      </trkpt>
      <trkpt lat="45.4454" lon="6.08313">
        <ele>432.9</ele>
        <time>2013-04-23T07:37:15Z</time>
      </trkpt>
      <trkpt lat="45.44538" lon="6.08302">
        <ele>433.8</ele>
        <time>2013-04-23T07:37:23Z</time>
      </trkpt>
      <trkpt lat="45.44535" lon="6.08291">
        <ele>434.5</ele>
        <time>2013-04-23T07:37:31Z</time>
      </trkpt>
      <trkpt lat="45.44533" lon="6.08279">
        <ele>434.3</ele>
        <time>2013-04-23T07:37:37Z</time>
      </trkpt>
      <trkpt lat="45.44531" lon="6.08268">
        <ele>435</ele>
        <time>2013-04-23T07:37:45Z</time>
      </trkpt>
      <trkpt lat="45.44531" lon="6.08267">
        <ele>435.3</ele>
        <time>2013-04-23T07:37:46Z</time>
      </trkpt>
      <trkpt lat="45.44528" lon="6.08243">
        <ele>436.8</ele>
        <time>2013-04-23T07:38:05Z</time>
      </trkpt>
      <trkpt lat="45.44527" lon="6.08231">
        <ele>437.7</ele>
        <time>2013-04-23T07:38:13Z</time>
      </trkpt>
      <trkpt lat="45.44526" lon="6.08219">
        <ele>438.3</ele>
        <time>2013-04-23T07:38:21Z</time>
      </trkpt>
      <trkpt lat="45.44524" lon="6.08207">
        <ele>439.2</ele>
        <time>2013-04-23T07:38:30Z</time>
      </trkpt>
      <trkpt lat="45.44523" lon="6.08195">
        <ele>441</ele>
        <time>2013-04-23T07:38:38Z</time>
      </trkpt>
      <trkpt lat="45.44521" lon="6.08183">
        <ele>441.4</ele>
        <time>2013-04-23T07:38:46Z</time>
      </trkpt>
      <trkpt lat="45.44522" lon="6.0817">
        <ele>441.8</ele>
        <time>2013-04-23T07:38:54Z</time>
      </trkpt>
      <trkpt lat="45.44521" lon="6.08169">
        <ele>442.1</ele>
        <time>2013-04-23T07:38:55Z</time>
      </trkpt>
      <trkpt lat="45.44519" lon="6.08146">
        <ele>443.6</ele>
        <time>2013-04-23T07:39:09Z</time>
      </trkpt>
      <trkpt lat="45.44518" lon="6.08134">
        <ele>444.7</ele>
        <time>2013-04-23T07:39:16Z</time>
      </trkpt>
      <trkpt lat="45.44521" lon="6.08122">
        <ele>445.7</ele>
        <time>2013-04-23T07:39:25Z</time>
      </trkpt>
      <trkpt lat="45.4452" lon="6.08109">
        <ele>447.4</ele>
        <time>2013-04-23T07:39:36Z</time>
      </trkpt>
      <trkpt lat="45.44523" lon="6.08098">
        <ele>448.3</ele>
        <time>2013-04-23T07:39:45Z</time>
      </trkpt>
      <trkpt lat="45.44523" lon="6.08085">
        <ele>449.5</ele>
        <time>2013-04-23T07:39:53Z</time>
      </trkpt>
      <trkpt lat="45.44523" lon="6.08074">
        <ele>451</ele>
        <time>2013-04-23T07:40:00Z</time>
      </trkpt>
      <trkpt lat="45.44524" lon="6.08072">
        <ele>451.2</ele>
        <time>2013-04-23T07:40:01Z</time>
      </trkpt>
      <trkpt lat="45.44526" lon="6.0805">
        <ele>453.4</ele>
        <time>2013-04-23T07:40:17Z</time>
      </trkpt>
      <trkpt lat="45.44528" lon="6.08038">
        <ele>454.8</ele>
        <time>2013-04-23T07:40:27Z</time>
      </trkpt>
      <trkpt lat="45.44528" lon="6.08026">
        <ele>456.9</ele>
        <time>2013-04-23T07:40:36Z</time>
      </trkpt>
      <trkpt lat="45.44528" lon="6.08015">
        <ele>458.1</ele>
        <time>2013-04-23T07:40:46Z</time>
      </trkpt>
      <trkpt lat="45.44528" lon="6.08003">
        <ele>459.4</ele>
        <time>2013-04-23T07:40:54Z</time>
      </trkpt>
      <trkpt lat="45.44529" lon="6.07992">
        <ele>459.9</ele>
        <time>2013-04-23T07:41:02Z</time>
      </trkpt>
      <trkpt lat="45.44529" lon="6.0799">
        <ele>460.1</ele>
        <time>2013-04-23T07:41:03Z</time>
      </trkpt>
      <trkpt lat="45.44529" lon="6.07968">
        <ele>463.8</ele>
        <time>2013-04-23T07:41:19Z</time>
      </trkpt>
      <trkpt lat="45.44529" lon="6.07956">
        <ele>465.3</ele>
        <time>2013-04-23T07:41:28Z</time>
      </trkpt>
      <trkpt lat="45.44531" lon="6.07944">
        <ele>466.2</ele>
        <time>2013-04-23T07:41:37Z</time>
      </trkpt>
      <trkpt lat="45.44533" lon="6.07933">
        <ele>468</ele>
        <time>2013-04-23T07:41:45Z</time>
      </trkpt>
      <trkpt lat="45.44535" lon="6.07921">
        <ele>468.4</ele>
        <time>2013-04-23T07:41:54Z</time>
      </trkpt>
      <trkpt lat="45.44538" lon="6.0791">
        <ele>469.8</ele>
        <time>2013-04-23T07:42:02Z</time>
      </trkpt>
      <trkpt lat="45.44543" lon="6.079">
        <ele>471.5</ele>
        <time>2013-04-23T07:42:10Z</time>
      </trkpt>
      <trkpt lat="45.44544" lon="6.07899">
        <ele>471.8</ele>
        <time>2013-04-23T07:42:11Z</time>
      </trkpt>
      <trkpt lat="45.44556" lon="6.07882">
        <ele>473.4</ele>
        <time>2013-04-23T07:42:26Z</time>
      </trkpt>
      <trkpt lat="45.44561" lon="6.07873">
        <ele>474.5</ele>
        <time>2013-04-23T07:42:34Z</time>
      </trkpt>
      <trkpt lat="45.44565" lon="6.07862">
        <ele>476.3</ele>
        <time>2013-04-23T07:42:45Z</time>
      </trkpt>
      <trkpt lat="45.44571" lon="6.07852">
        <ele>477.3</ele>
        <time>2013-04-23T07:42:55Z</time>
      </trkpt>
      <trkpt lat="45.44575" lon="6.07841">
        <ele>478.4</ele>
        <time>2013-04-23T07:43:04Z</time>
      </trkpt>
      <trkpt lat="45.44576" lon="6.07829">
        <ele>480.2</ele>
        <time>2013-04-23T07:43:13Z</time>
      </trkpt>
      <trkpt lat="45.44576" lon="6.07827">
        <ele>480.2</ele>
        <time>2013-04-23T07:43:14Z</time>
      </trkpt>
      <trkpt lat="45.44578" lon="6.07805">
        <ele>483.5</ele>
        <time>2013-04-23T07:43:34Z</time>
      </trkpt>
      <trkpt lat="45.44584" lon="6.07796">
        <ele>484.2</ele>
        <time>2013-04-23T07:43:51Z</time>
      </trkpt>
      <trkpt lat="45.44593" lon="6.07797">
        <ele>484.1</ele>
        <time>2013-04-23T07:44:42Z</time>
      </trkpt>
      <trkpt lat="45.44594" lon="6.07797">
        <ele>483.9</ele>
        <time>2013-04-23T07:44:43Z</time>
      </trkpt>
      <trkpt lat="45.44586" lon="6.07789">
        <ele>483</ele>
        <time>2013-04-23T07:46:31Z</time>
      </trkpt>
      <trkpt lat="45.44599" lon="6.07773">
        <ele>486.5</ele>
        <time>2013-04-23T07:47:17Z</time>
      </trkpt>
      <trkpt lat="45.44605" lon="6.07767">
        <ele>487.8</ele>
        <time>2013-04-23T07:47:25Z</time>
      </trkpt>
      <trkpt lat="45.44613" lon="6.07761">
        <ele>488.5</ele>
        <time>2013-04-23T07:47:33Z</time>
      </trkpt>
      <trkpt lat="45.44614" lon="6.0776">
        <ele>488.7</ele>
        <time>2013-04-23T07:47:34Z</time>
      </trkpt>
      <trkpt lat="45.44627" lon="6.07749">
        <ele>490.4</ele>
        <time>2013-04-23T07:47:49Z</time>
      </trkpt>
      <trkpt lat="45.44635" lon="6.07745">
        <ele>491.1</ele>
        <time>2013-04-23T07:47:57Z</time>
      </trkpt>
      <trkpt lat="45.44643" lon="6.07741">
        <ele>492.2</ele>
        <time>2013-04-23T07:48:05Z</time>
      </trkpt>
      <trkpt lat="45.4465" lon="6.07734">
        <ele>493.7</ele>
        <time>2013-04-23T07:48:15Z</time>
      </trkpt>
      <trkpt lat="45.44657" lon="6.07727">
        <ele>494.7</ele>
        <time>2013-04-23T07:48:24Z</time>
      </trkpt>
      <trkpt lat="45.44662" lon="6.07716">
        <ele>496</ele>
        <time>2013-04-23T07:48:32Z</time>
      </trkpt>
      <trkpt lat="45.44666" lon="6.07706">
        <ele>496.3</ele>
        <time>2013-04-23T07:48:39Z</time>
      </trkpt>
      <trkpt lat="45.44667" lon="6.07704">
        <ele>496.4</ele>
        <time>2013-04-23T07:48:40Z</time>
      </trkpt>
      <trkpt lat="45.44675" lon="6.07686">
        <ele>497.3</ele>
        <time>2013-04-23T07:48:53Z</time>
      </trkpt>
      <trkpt lat="45.44679" lon="6.07675">
        <ele>497.3</ele>
        <time>2013-04-23T07:49:00Z</time>
      </trkpt>
      <trkpt lat="45.44682" lon="6.07664">
        <ele>498</ele>
        <time>2013-04-23T07:49:09Z</time>
      </trkpt>
      <trkpt lat="45.44685" lon="6.07654">
        <ele>498</ele>
        <time>2013-04-23T07:49:16Z</time>
      </trkpt>
      <trkpt lat="45.44689" lon="6.07642">
        <ele>498.6</ele>
        <time>2013-04-23T07:49:23Z</time>
      </trkpt>
      <trkpt lat="45.44692" lon="6.07631">
        <ele>498.7</ele>
        <time>2013-04-23T07:49:29Z</time>
      </trkpt>
      <trkpt lat="45.44694" lon="6.0762">
        <ele>499.2</ele>
        <time>2013-04-23T07:49:35Z</time>
      </trkpt>
      <trkpt lat="45.44697" lon="6.07609">
        <ele>499</ele>
        <time>2013-04-23T07:49:42Z</time>
      </trkpt>
      <trkpt lat="45.44697" lon="6.07607">
        <ele>499.3</ele>
        <time>2013-04-23T07:49:43Z</time>
      </trkpt>
      <trkpt lat="45.44704" lon="6.07588">
        <ele>499.2</ele>
        <time>2013-04-23T07:49:56Z</time>
      </trkpt>
      <trkpt lat="45.4471" lon="6.07578">
        <ele>499.2</ele>
        <time>2013-04-23T07:50:04Z</time>
      </trkpt>
      <trkpt lat="45.44715" lon="6.0757">
        <ele>499.8</ele>
        <time>2013-04-23T07:50:10Z</time>
      </trkpt>
      <trkpt lat="45.44721" lon="6.07561">
        <ele>499.9</ele>
        <time>2013-04-23T07:50:16Z</time>
      </trkpt>
      <trkpt lat="45.44727" lon="6.07552">
        <ele>500.5</ele>
        <time>2013-04-23T07:50:22Z</time>
      </trkpt>
      <trkpt lat="45.44734" lon="6.07544">
        <ele>500.6</ele>
        <time>2013-04-23T07:50:28Z</time>
      </trkpt>
      <trkpt lat="45.44739" lon="6.07534">
        <ele>500.3</ele>
        <time>2013-04-23T07:50:35Z</time>
      </trkpt>
      <trkpt lat="45.44745" lon="6.07525">
        <ele>501.2</ele>
        <time>2013-04-23T07:50:42Z</time>
      </trkpt>
      <trkpt lat="45.44752" lon="6.07519">
        <ele>501.7</ele>
        <time>2013-04-23T07:50:48Z</time>
      </trkpt>
      <trkpt lat="45.44753" lon="6.07519">
        <ele>501.8</ele>
        <time>2013-04-23T07:50:49Z</time>
      </trkpt>
      <trkpt lat="45.44765" lon="6.07506">
        <ele>502.7</ele>
        <time>2013-04-23T07:51:00Z</time>
      </trkpt>
      <trkpt lat="45.44771" lon="6.07497">
        <ele>503.7</ele>
        <time>2013-04-23T07:51:07Z</time>
      </trkpt>
      <trkpt lat="45.44778" lon="6.0749">
        <ele>504.6</ele>
        <time>2013-04-23T07:51:14Z</time>
      </trkpt>
      <trkpt lat="45.44785" lon="6.07487">
        <ele>506</ele>
        <time>2013-04-23T07:51:22Z</time>
      </trkpt>
      <trkpt lat="45.44792" lon="6.07479">
        <ele>505.8</ele>
        <time>2013-04-23T07:51:29Z</time>
      </trkpt>
      <trkpt lat="45.44799" lon="6.07471">
        <ele>506.5</ele>
        <time>2013-04-23T07:51:36Z</time>
      </trkpt>
      <trkpt lat="45.44804" lon="6.07462">
        <ele>507.5</ele>
        <time>2013-04-23T07:51:43Z</time>
      </trkpt>
      <trkpt lat="45.44808" lon="6.07452">
        <ele>508.1</ele>
        <time>2013-04-23T07:51:53Z</time>
      </trkpt>
      <trkpt lat="45.44809" lon="6.07451">
        <ele>508.1</ele>
        <time>2013-04-23T07:51:54Z</time>
      </trkpt>
      <trkpt lat="45.44814" lon="6.07432">
        <ele>505.6</ele>
        <time>2013-04-23T07:56:07Z</time>
      </trkpt>
      <trkpt lat="45.44813" lon="6.07432">
        <ele>505.6</ele>
        <time>2013-04-23T07:56:08Z</time>
      </trkpt>
      <trkpt lat="45.44814" lon="6.07419">
        <ele>504.4</ele>
        <time>2013-04-23T07:57:40Z</time>
      </trkpt>
      <trkpt lat="45.44807" lon="6.07398">
        <ele>503.5</ele>
        <time>2013-04-23T07:57:57Z</time>
      </trkpt>
      <trkpt lat="45.44806" lon="6.07388">
        <ele>502.9</ele>
        <time>2013-04-23T07:58:03Z</time>
      </trkpt>
      <trkpt lat="45.44806" lon="6.07376">
        <ele>502</ele>
        <time>2013-04-23T07:58:11Z</time>
      </trkpt>
      <trkpt lat="45.44807" lon="6.07364">
        <ele>500.8</ele>
        <time>2013-04-23T07:58:19Z</time>
      </trkpt>
      <trkpt lat="45.44808" lon="6.07353">
        <ele>499.7</ele>
        <time>2013-04-23T07:58:27Z</time>
      </trkpt>
      <trkpt lat="45.44808" lon="6.07341">
        <ele>498.7</ele>
        <time>2013-04-23T07:58:36Z</time>
      </trkpt>
      <trkpt lat="45.44806" lon="6.0733">
        <ele>498.4</ele>
        <time>2013-04-23T07:58:45Z</time>
      </trkpt>
      <trkpt lat="45.44805" lon="6.07328">
        <ele>498.4</ele>
        <time>2013-04-23T07:58:46Z</time>
      </trkpt>
      <trkpt lat="45.44802" lon="6.07307">
        <ele>496.9</ele>
        <time>2013-04-23T07:58:58Z</time>
      </trkpt>
      <trkpt lat="45.44802" lon="6.07295">
        <ele>496.6</ele>
        <time>2013-04-23T07:59:05Z</time>
      </trkpt>
      <trkpt lat="45.448" lon="6.07285">
        <ele>495.3</ele>
        <time>2013-04-23T07:59:11Z</time>
      </trkpt>
      <trkpt lat="45.44797" lon="6.07274">
        <ele>494.5</ele>
        <time>2013-04-23T07:59:17Z</time>
      </trkpt>
      <trkpt lat="45.44796" lon="6.07262">
        <ele>493.9</ele>
        <time>2013-04-23T07:59:24Z</time>
      </trkpt>
      <trkpt lat="45.44795" lon="6.07251">
        <ele>493.3</ele>
        <time>2013-04-23T07:59:32Z</time>
      </trkpt>
      <trkpt lat="45.44795" lon="6.07239">
        <ele>491.5</ele>
        <time>2013-04-23T07:59:39Z</time>
      </trkpt>
      <trkpt lat="45.44795" lon="6.07227">
        <ele>491.2</ele>
        <time>2013-04-23T07:59:45Z</time>
      </trkpt>
      <trkpt lat="45.44797" lon="6.07216">
        <ele>490.6</ele>
        <time>2013-04-23T07:59:51Z</time>
      </trkpt>
      <trkpt lat="45.44797" lon="6.07214">
        <ele>490.7</ele>
        <time>2013-04-23T07:59:52Z</time>
      </trkpt>
      <trkpt lat="45.44802" lon="6.07194">
        <ele>489.3</ele>
        <time>2013-04-23T08:00:04Z</time>
      </trkpt>
      <trkpt lat="45.44806" lon="6.07184">
        <ele>489.6</ele>
        <time>2013-04-23T08:00:11Z</time>
      </trkpt>
      <trkpt lat="45.44811" lon="6.07173">
        <ele>490.3</ele>
        <time>2013-04-23T08:00:19Z</time>
      </trkpt>
      <trkpt lat="45.44815" lon="6.07163">
        <ele>491.2</ele>
        <time>2013-04-23T08:00:27Z</time>
      </trkpt>
      <trkpt lat="45.44818" lon="6.07153">
        <ele>491.1</ele>
        <time>2013-04-23T08:00:34Z</time>
      </trkpt>
      <trkpt lat="45.44824" lon="6.07144">
        <ele>491.9</ele>
        <time>2013-04-23T08:00:42Z</time>
      </trkpt>
      <trkpt lat="45.44828" lon="6.07135">
        <ele>493.1</ele>
        <time>2013-04-23T08:00:49Z</time>
      </trkpt>
      <trkpt lat="45.44833" lon="6.07127">
        <ele>493.9</ele>
        <time>2013-04-23T08:00:55Z</time>
      </trkpt>
      <trkpt lat="45.44835" lon="6.07126">
        <ele>493.9</ele>
        <time>2013-04-23T08:00:56Z</time>
      </trkpt>
      <trkpt lat="45.44843" lon="6.07108">
        <ele>494.2</ele>
        <time>2013-04-23T08:01:08Z</time>
      </trkpt>
      <trkpt lat="45.44849" lon="6.071">
        <ele>493.6</ele>
        <time>2013-04-23T08:01:16Z</time>
      </trkpt>
      <trkpt lat="45.44856" lon="6.07093">
        <ele>494.3</ele>
        <time>2013-04-23T08:01:24Z</time>
      </trkpt>
      <trkpt lat="45.44863" lon="6.07087">
        <ele>494.6</ele>
        <time>2013-04-23T08:01:31Z</time>
      </trkpt>
      <trkpt lat="45.44866" lon="6.07075">
        <ele>496.3</ele>
        <time>2013-04-23T08:01:38Z</time>
      </trkpt>
      <trkpt lat="45.44869" lon="6.07064">
        <ele>496.7</ele>
        <time>2013-04-23T08:01:44Z</time>
      </trkpt>
      <trkpt lat="45.44874" lon="6.07054">
        <ele>497.6</ele>
        <time>2013-04-23T08:01:51Z</time>
      </trkpt>
      <trkpt lat="45.44878" lon="6.07044">
        <ele>498.1</ele>
        <time>2013-04-23T08:01:58Z</time>
      </trkpt>
      <trkpt lat="45.44878" lon="6.07042">
        <ele>498.3</ele>
        <time>2013-04-23T08:01:59Z</time>
      </trkpt>
      <trkpt lat="45.44892" lon="6.07029">
        <ele>500.8</ele>
        <time>2013-04-23T08:02:13Z</time>
      </trkpt>
      <trkpt lat="45.44897" lon="6.0702">
        <ele>500.6</ele>
        <time>2013-04-23T08:02:21Z</time>
      </trkpt>
      <trkpt lat="45.449" lon="6.07009">
        <ele>501.9</ele>
        <time>2013-04-23T08:02:28Z</time>
      </trkpt>
      <trkpt lat="45.44904" lon="6.06999">
        <ele>502.4</ele>
        <time>2013-04-23T08:02:35Z</time>
      </trkpt>
      <trkpt lat="45.44909" lon="6.06988">
        <ele>503.4</ele>
        <time>2013-04-23T08:02:42Z</time>
      </trkpt>
      <trkpt lat="45.44914" lon="6.06978">
        <ele>504.9</ele>
        <time>2013-04-23T08:02:49Z</time>
      </trkpt>
      <trkpt lat="45.4492" lon="6.06969">
        <ele>504.8</ele>
        <time>2013-04-23T08:02:56Z</time>
      </trkpt>
      <trkpt lat="45.44928" lon="6.06964">
        <ele>505.8</ele>
        <time>2013-04-23T08:03:03Z</time>
      </trkpt>
      <trkpt lat="45.44929" lon="6.06963">
        <ele>506</ele>
        <time>2013-04-23T08:03:04Z</time>
      </trkpt>
      <trkpt lat="45.44943" lon="6.06955">
        <ele>507.4</ele>
        <time>2013-04-23T08:03:20Z</time>
      </trkpt>
      <trkpt lat="45.44951" lon="6.06951">
        <ele>508.7</ele>
        <time>2013-04-23T08:03:29Z</time>
      </trkpt>
      <trkpt lat="45.4496" lon="6.06948">
        <ele>509.2</ele>
        <time>2013-04-23T08:03:39Z</time>
      </trkpt>
      <trkpt lat="45.44967" lon="6.06945">
        <ele>511.2</ele>
        <time>2013-04-23T08:03:49Z</time>
      </trkpt>
      <trkpt lat="45.44976" lon="6.06943">
        <ele>512</ele>
        <time>2013-04-23T08:03:58Z</time>
      </trkpt>
      <trkpt lat="45.44985" lon="6.06941">
        <ele>513.1</ele>
        <time>2013-04-23T08:04:06Z</time>
      </trkpt>
      <trkpt lat="45.44986" lon="6.0694">
        <ele>513.3</ele>
        <time>2013-04-23T08:04:07Z</time>
      </trkpt>
      <trkpt lat="45.45001" lon="6.06936">
        <ele>514.2</ele>
        <time>2013-04-23T08:04:19Z</time>
      </trkpt>
      <trkpt lat="45.45009" lon="6.06933">
        <ele>515</ele>
        <time>2013-04-23T08:04:25Z</time>
      </trkpt>
      <trkpt lat="45.45018" lon="6.06932">
        <ele>516.7</ele>
        <time>2013-04-23T08:04:35Z</time>
      </trkpt>
      <trkpt lat="45.45026" lon="6.06929">
        <ele>517.1</ele>
        <time>2013-04-23T08:04:42Z</time>
      </trkpt>
      <trkpt lat="45.45035" lon="6.06928">
        <ele>517.5</ele>
        <time>2013-04-23T08:04:51Z</time>
      </trkpt>
      <trkpt lat="45.45043" lon="6.06923">
        <ele>518.5</ele>
        <time>2013-04-23T08:04:59Z</time>
      </trkpt>
      <trkpt lat="45.4505" lon="6.06917">
        <ele>519</ele>
        <time>2013-04-23T08:05:07Z</time>
      </trkpt>
      <trkpt lat="45.45056" lon="6.0691">
        <ele>519.7</ele>
        <time>2013-04-23T08:05:16Z</time>
      </trkpt>
      <trkpt lat="45.45058" lon="6.06909">
        <ele>519.6</ele>
        <time>2013-04-23T08:05:17Z</time>
      </trkpt>
      <trkpt lat="45.45072" lon="6.069">
        <ele>522.5</ele>
        <time>2013-04-23T08:05:33Z</time>
      </trkpt>
      <trkpt lat="45.4508" lon="6.06896">
        <ele>522.3</ele>
        <time>2013-04-23T08:05:40Z</time>
      </trkpt>
      <trkpt lat="45.45088" lon="6.06892">
        <ele>523.8</ele>
        <time>2013-04-23T08:05:47Z</time>
      </trkpt>
      <trkpt lat="45.45096" lon="6.06889">
        <ele>524.9</ele>
        <time>2013-04-23T08:05:56Z</time>
      </trkpt>
      <trkpt lat="45.45104" lon="6.06884">
        <ele>525.6</ele>
        <time>2013-04-23T08:06:06Z</time>
      </trkpt>
      <trkpt lat="45.45112" lon="6.0688">
        <ele>526.3</ele>
        <time>2013-04-23T08:06:15Z</time>
      </trkpt>
      <trkpt lat="45.45119" lon="6.06876">
        <ele>527.6</ele>
        <time>2013-04-23T08:06:25Z</time>
      </trkpt>
      <trkpt lat="45.45121" lon="6.06876">
        <ele>527.5</ele>
        <time>2013-04-23T08:06:26Z</time>
      </trkpt>
      <trkpt lat="45.45136" lon="6.06874">
        <ele>529.1</ele>
        <time>2013-04-23T08:06:44Z</time>
      </trkpt>
      <trkpt lat="45.45144" lon="6.06874">
        <ele>529.9</ele>
        <time>2013-04-23T08:06:50Z</time>
      </trkpt>
      <trkpt lat="45.45152" lon="6.06878">
        <ele>531.2</ele>
        <time>2013-04-23T08:06:57Z</time>
      </trkpt>
      <trkpt lat="45.4516" lon="6.06883">
        <ele>531.6</ele>
        <time>2013-04-23T08:07:05Z</time>
      </trkpt>
      <trkpt lat="45.45167" lon="6.06891">
        <ele>532.3</ele>
        <time>2013-04-23T08:07:13Z</time>
      </trkpt>
      <trkpt lat="45.45174" lon="6.06898">
        <ele>533.5</ele>
        <time>2013-04-23T08:07:20Z</time>
      </trkpt>
      <trkpt lat="45.4518" lon="6.06906">
        <ele>534.6</ele>
        <time>2013-04-23T08:07:29Z</time>
      </trkpt>
      <trkpt lat="45.45181" lon="6.06906">
        <ele>534.7</ele>
        <time>2013-04-23T08:07:30Z</time>
      </trkpt>
      <trkpt lat="45.45195" lon="6.06919">
        <ele>535.5</ele>
        <time>2013-04-23T08:07:45Z</time>
      </trkpt>
      <trkpt lat="45.45201" lon="6.06926">
        <ele>536.7</ele>
        <time>2013-04-23T08:07:52Z</time>
      </trkpt>
      <trkpt lat="45.45207" lon="6.06934">
        <ele>537.4</ele>
        <time>2013-04-23T08:08:01Z</time>
      </trkpt>
      <trkpt lat="45.45213" lon="6.06942">
        <ele>537.2</ele>
        <time>2013-04-23T08:08:08Z</time>
      </trkpt>
      <trkpt lat="45.4522" lon="6.06948">
        <ele>539.1</ele>
        <time>2013-04-23T08:08:16Z</time>
      </trkpt>
      <trkpt lat="45.45227" lon="6.06955">
        <ele>539.3</ele>
        <time>2013-04-23T08:08:23Z</time>
      </trkpt>
      <trkpt lat="45.45233" lon="6.06963">
        <ele>539.9</ele>
        <time>2013-04-23T08:08:31Z</time>
      </trkpt>
      <trkpt lat="45.45234" lon="6.06964">
        <ele>540.3</ele>
        <time>2013-04-23T08:08:32Z</time>
      </trkpt>
      <trkpt lat="45.45247" lon="6.06978">
        <ele>541.3</ele>
        <time>2013-04-23T08:08:44Z</time>
      </trkpt>
      <trkpt lat="45.45253" lon="6.06984">
        <ele>542.2</ele>
        <time>2013-04-23T08:08:49Z</time>
      </trkpt>
      <trkpt lat="45.45261" lon="6.0699">
        <ele>542</ele>
        <time>2013-04-23T08:08:55Z</time>
      </trkpt>
      <trkpt lat="45.45267" lon="6.06998">
        <ele>542.6</ele>
        <time>2013-04-23T08:09:02Z</time>
      </trkpt>
      <trkpt lat="45.45274" lon="6.07003">
        <ele>543.1</ele>
        <time>2013-04-23T08:09:08Z</time>
      </trkpt>
      <trkpt lat="45.45282" lon="6.07009">
        <ele>542.8</ele>
        <time>2013-04-23T08:09:14Z</time>
      </trkpt>
      <trkpt lat="45.45289" lon="6.07014">
        <ele>543.2</ele>
        <time>2013-04-23T08:09:21Z</time>
      </trkpt>
      <trkpt lat="45.45295" lon="6.07021">
        <ele>543.5</ele>
        <time>2013-04-23T08:09:26Z</time>
      </trkpt>
      <trkpt lat="45.45302" lon="6.07026">
        <ele>544.5</ele>
        <time>2013-04-23T08:09:32Z</time>
      </trkpt>
      <trkpt lat="45.4531" lon="6.07031">
        <ele>544.8</ele>
        <time>2013-04-23T08:09:39Z</time>
      </trkpt>
      <trkpt lat="45.45311" lon="6.07031">
        <ele>544.9</ele>
        <time>2013-04-23T08:09:40Z</time>
      </trkpt>
      <trkpt lat="45.45326" lon="6.0704">
        <ele>545.8</ele>
        <time>2013-04-23T08:09:54Z</time>
      </trkpt>
      <trkpt lat="45.45332" lon="6.07047">
        <ele>547.3</ele>
        <time>2013-04-23T08:10:01Z</time>
      </trkpt>
      <trkpt lat="45.45339" lon="6.07052">
        <ele>546.9</ele>
        <time>2013-04-23T08:10:08Z</time>
      </trkpt>
      <trkpt lat="45.45347" lon="6.07059">
        <ele>548.5</ele>
        <time>2013-04-23T08:10:15Z</time>
      </trkpt>
      <trkpt lat="45.45353" lon="6.07065">
        <ele>549.1</ele>
        <time>2013-04-23T08:10:22Z</time>
      </trkpt>
      <trkpt lat="45.45361" lon="6.07069">
        <ele>549.3</ele>
        <time>2013-04-23T08:10:29Z</time>
      </trkpt>
      <trkpt lat="45.45367" lon="6.07076">
        <ele>549.9</ele>
        <time>2013-04-23T08:10:37Z</time>
      </trkpt>
      <trkpt lat="45.45375" lon="6.07081">
        <ele>550.6</ele>
        <time>2013-04-23T08:10:44Z</time>
      </trkpt>
      <trkpt lat="45.45376" lon="6.07082">
        <ele>550.8</ele>
        <time>2013-04-23T08:10:45Z</time>
      </trkpt>
      <trkpt lat="45.4539" lon="6.07092">
        <ele>551.6</ele>
        <time>2013-04-23T08:10:59Z</time>
      </trkpt>
      <trkpt lat="45.45398" lon="6.07097">
        <ele>551.8</ele>
        <time>2013-04-23T08:11:06Z</time>
      </trkpt>
      <trkpt lat="45.45406" lon="6.07102">
        <ele>552</ele>
        <time>2013-04-23T08:11:13Z</time>
      </trkpt>
      <trkpt lat="45.45413" lon="6.07108">
        <ele>553.4</ele>
        <time>2013-04-23T08:11:20Z</time>
      </trkpt>
      <trkpt lat="45.4542" lon="6.07113">
        <ele>554.4</ele>
        <time>2013-04-23T08:11:27Z</time>
      </trkpt>
      <trkpt lat="45.45428" lon="6.07119">
        <ele>554.4</ele>
        <time>2013-04-23T08:11:34Z</time>
      </trkpt>
      <trkpt lat="45.45435" lon="6.07125">
        <ele>555.2</ele>
        <time>2013-04-23T08:11:40Z</time>
      </trkpt>
      <trkpt lat="45.45441" lon="6.07132">
        <ele>555.3</ele>
        <time>2013-04-23T08:11:46Z</time>
      </trkpt>
      <trkpt lat="45.45442" lon="6.07132">
        <ele>555.5</ele>
        <time>2013-04-23T08:11:47Z</time>
      </trkpt>
      <trkpt lat="45.45454" lon="6.07144">
        <ele>557.1</ele>
        <time>2013-04-23T08:11:58Z</time>
      </trkpt>
      <trkpt lat="45.45461" lon="6.07152">
        <ele>557.7</ele>
        <time>2013-04-23T08:12:05Z</time>
      </trkpt>
      <trkpt lat="45.45467" lon="6.0716">
        <ele>557.9</ele>
        <time>2013-04-23T08:12:12Z</time>
      </trkpt>
      <trkpt lat="45.45474" lon="6.07167">
        <ele>558.4</ele>
        <time>2013-04-23T08:12:19Z</time>
      </trkpt>
      <trkpt lat="45.45481" lon="6.07174">
        <ele>558.5</ele>
        <time>2013-04-23T08:12:26Z</time>
      </trkpt>
      <trkpt lat="45.45487" lon="6.07183">
        <ele>559.7</ele>
        <time>2013-04-23T08:12:34Z</time>
      </trkpt>
      <trkpt lat="45.45494" lon="6.07191">
        <ele>559.9</ele>
        <time>2013-04-23T08:12:41Z</time>
      </trkpt>
      <trkpt lat="45.45501" lon="6.07198">
        <ele>560.4</ele>
        <time>2013-04-23T08:12:48Z</time>
      </trkpt>
      <trkpt lat="45.45502" lon="6.07199">
        <ele>560.2</ele>
        <time>2013-04-23T08:12:49Z</time>
      </trkpt>
      <trkpt lat="45.45515" lon="6.07212">
        <ele>561.5</ele>
        <time>2013-04-23T08:13:03Z</time>
      </trkpt>
      <trkpt lat="45.4552" lon="6.0722">
        <ele>562</ele>
        <time>2013-04-23T08:13:09Z</time>
      </trkpt>
      <trkpt lat="45.45527" lon="6.07227">
        <ele>561.4</ele>
        <time>2013-04-23T08:13:16Z</time>
      </trkpt>
      <trkpt lat="45.45535" lon="6.07231">
        <ele>562.8</ele>
        <time>2013-04-23T08:13:24Z</time>
      </trkpt>
      <trkpt lat="45.45542" lon="6.07237">
        <ele>563.1</ele>
        <time>2013-04-23T08:13:31Z</time>
      </trkpt>
      <trkpt lat="45.45549" lon="6.07243">
        <ele>562.9</ele>
        <time>2013-04-23T08:13:37Z</time>
      </trkpt>
      <trkpt lat="45.45556" lon="6.0725">
        <ele>562.7</ele>
        <time>2013-04-23T08:13:44Z</time>
      </trkpt>
      <trkpt lat="45.45563" lon="6.07257">
        <ele>563.6</ele>
        <time>2013-04-23T08:13:51Z</time>
      </trkpt>
      <trkpt lat="45.45564" lon="6.07258">
        <ele>563.4</ele>
        <time>2013-04-23T08:13:52Z</time>
      </trkpt>
      <trkpt lat="45.45577" lon="6.07271">
        <ele>563.9</ele>
        <time>2013-04-23T08:14:05Z</time>
      </trkpt>
      <trkpt lat="45.45584" lon="6.07279">
        <ele>564.7</ele>
        <time>2013-04-23T08:14:13Z</time>
      </trkpt>
      <trkpt lat="45.45589" lon="6.07287">
        <ele>564.2</ele>
        <time>2013-04-23T08:14:20Z</time>
      </trkpt>
      <trkpt lat="45.45596" lon="6.07294">
        <ele>564.4</ele>
        <time>2013-04-23T08:14:27Z</time>
      </trkpt>
      <trkpt lat="45.45603" lon="6.07301">
        <ele>565.1</ele>
        <time>2013-04-23T08:14:33Z</time>
      </trkpt>
      <trkpt lat="45.4561" lon="6.07309">
        <ele>564.8</ele>
        <time>2013-04-23T08:14:41Z</time>
      </trkpt>
      <trkpt lat="45.45616" lon="6.07316">
        <ele>565.1</ele>
        <time>2013-04-23T08:14:50Z</time>
      </trkpt>
      <trkpt lat="45.45623" lon="6.07324">
        <ele>565.2</ele>
        <time>2013-04-23T08:14:57Z</time>
      </trkpt>
      <trkpt lat="45.45624" lon="6.07325">
        <ele>565.2</ele>
        <time>2013-04-23T08:14:58Z</time>
      </trkpt>
      <trkpt lat="45.45636" lon="6.0734">
        <ele>565.3</ele>
        <time>2013-04-23T08:15:10Z</time>
      </trkpt>
      <trkpt lat="45.45642" lon="6.07346">
        <ele>566</ele>
        <time>2013-04-23T08:15:16Z</time>
      </trkpt>
      <trkpt lat="45.45648" lon="6.07353">
        <ele>565.8</ele>
        <time>2013-04-23T08:15:22Z</time>
      </trkpt>
      <trkpt lat="45.45655" lon="6.0736">
        <ele>565.9</ele>
        <time>2013-04-23T08:15:29Z</time>
      </trkpt>
      <trkpt lat="45.45661" lon="6.07367">
        <ele>566.1</ele>
        <time>2013-04-23T08:15:35Z</time>
      </trkpt>
      <trkpt lat="45.45668" lon="6.07372">
        <ele>565.8</ele>
        <time>2013-04-23T08:15:41Z</time>
      </trkpt>
      <trkpt lat="45.45676" lon="6.07379">
        <ele>565.9</ele>
        <time>2013-04-23T08:15:48Z</time>
      </trkpt>
      <trkpt lat="45.45682" lon="6.07386">
        <ele>565.9</ele>
        <time>2013-04-23T08:15:55Z</time>
      </trkpt>
      <trkpt lat="45.45689" lon="6.07394">
        <ele>565.7</ele>
        <time>2013-04-23T08:16:02Z</time>
      </trkpt>
      <trkpt lat="45.4569" lon="6.07395">
        <ele>565.8</ele>
        <time>2013-04-23T08:16:03Z</time>
      </trkpt>
      <trkpt lat="45.45703" lon="6.07407">
        <ele>565.7</ele>
        <time>2013-04-23T08:16:18Z</time>
      </trkpt>
      <trkpt lat="45.45708" lon="6.07416">
        <ele>566</ele>
        <time>2013-04-23T08:16:24Z</time>
      </trkpt>
      <trkpt lat="45.45714" lon="6.07425">
        <ele>565.3</ele>
        <time>2013-04-23T08:16:30Z</time>
      </trkpt>
      <trkpt lat="45.4572" lon="6.07433">
        <ele>565.6</ele>
        <time>2013-04-23T08:16:36Z</time>
      </trkpt>
      <trkpt lat="45.45726" lon="6.07441">
        <ele>566</ele>
        <time>2013-04-23T08:16:43Z</time>
      </trkpt>
      <trkpt lat="45.45732" lon="6.0745">
        <ele>566.5</ele>
        <time>2013-04-23T08:16:49Z</time>
      </trkpt>
      <trkpt lat="45.45738" lon="6.07458">
        <ele>566.6</ele>
        <time>2013-04-23T08:16:54Z</time>
      </trkpt>
      <trkpt lat="45.45744" lon="6.07466">
        <ele>566.9</ele>
        <time>2013-04-23T08:16:59Z</time>
      </trkpt>
      <trkpt lat="45.45749" lon="6.07474">
        <ele>567.4</ele>
        <time>2013-04-23T08:17:05Z</time>
      </trkpt>
      <trkpt lat="45.45751" lon="6.07475">
        <ele>567.5</ele>
        <time>2013-04-23T08:17:06Z</time>
      </trkpt>
      <trkpt lat="45.45761" lon="6.07489">
        <ele>567.7</ele>
        <time>2013-04-23T08:17:19Z</time>
      </trkpt>
      <trkpt lat="45.45765" lon="6.075">
        <ele>568.6</ele>
        <time>2013-04-23T08:17:28Z</time>
      </trkpt>
      <trkpt lat="45.45757" lon="6.07507">
        <ele>570.8</ele>
        <time>2013-04-23T08:19:39Z</time>
      </trkpt>
      <trkpt lat="45.45757" lon="6.07507">
        <ele>570.8</ele>
        <time>2013-04-23T08:19:40Z</time>
      </trkpt>
      <trkpt lat="45.45748" lon="6.07527">
        <ele>574</ele>
        <time>2013-04-23T08:20:05Z</time>
      </trkpt>
      <trkpt lat="45.45742" lon="6.07536">
        <ele>575.1</ele>
        <time>2013-04-23T08:20:14Z</time>
      </trkpt>
      <trkpt lat="45.45735" lon="6.07543">
        <ele>576.6</ele>
        <time>2013-04-23T08:20:23Z</time>
      </trkpt>
      <trkpt lat="45.45731" lon="6.07553">
        <ele>578.7</ele>
        <time>2013-04-23T08:20:33Z</time>
      </trkpt>
      <trkpt lat="45.45727" lon="6.07564">
        <ele>579.7</ele>
        <time>2013-04-23T08:20:44Z</time>
      </trkpt>
      <trkpt lat="45.45727" lon="6.07565">
        <ele>579.7</ele>
        <time>2013-04-23T08:20:45Z</time>
      </trkpt>
      <trkpt lat="45.45719" lon="6.07586">
        <ele>582.5</ele>
        <time>2013-04-23T08:21:02Z</time>
      </trkpt>
      <trkpt lat="45.45716" lon="6.07596">
        <ele>583.1</ele>
        <time>2013-04-23T08:21:11Z</time>
      </trkpt>
      <trkpt lat="45.45711" lon="6.07607">
        <ele>585</ele>
        <time>2013-04-23T08:21:21Z</time>
      </trkpt>
      <trkpt lat="45.45707" lon="6.07618">
        <ele>586.3</ele>
        <time>2013-04-23T08:21:31Z</time>
      </trkpt>
      <trkpt lat="45.457" lon="6.07626">
        <ele>587.3</ele>
        <time>2013-04-23T08:21:56Z</time>
      </trkpt>
      <trkpt lat="45.45699" lon="6.07626">
        <ele>587.5</ele>
        <time>2013-04-23T08:21:57Z</time>
      </trkpt>
      <trkpt lat="45.45688" lon="6.07644">
        <ele>590.1</ele>
        <time>2013-04-23T08:22:20Z</time>
      </trkpt>
      <trkpt lat="45.4568" lon="6.07644">
        <ele>592.7</ele>
        <time>2013-04-23T08:22:34Z</time>
      </trkpt>
      <trkpt lat="45.45672" lon="6.07643">
        <ele>595.4</ele>
        <time>2013-04-23T08:22:46Z</time>
      </trkpt>
      <trkpt lat="45.45663" lon="6.0764">
        <ele>597.2</ele>
        <time>2013-04-23T08:22:58Z</time>
      </trkpt>
      <trkpt lat="45.45662" lon="6.0764">
        <ele>597.2</ele>
        <time>2013-04-23T08:22:59Z</time>
      </trkpt>
      <trkpt lat="45.45647" lon="6.07635">
        <ele>600.4</ele>
        <time>2013-04-23T08:23:17Z</time>
      </trkpt>
      <trkpt lat="45.4564" lon="6.07628">
        <ele>600.6</ele>
        <time>2013-04-23T08:23:24Z</time>
      </trkpt>
      <trkpt lat="45.45635" lon="6.07619">
        <ele>601</ele>
        <time>2013-04-23T08:23:31Z</time>
      </trkpt>
      <trkpt lat="45.45626" lon="6.07615">
        <ele>601</ele>
        <time>2013-04-23T08:23:38Z</time>
      </trkpt>
      <trkpt lat="45.45618" lon="6.07612">
        <ele>599.6</ele>
        <time>2013-04-23T08:23:46Z</time>
      </trkpt>
      <trkpt lat="45.45611" lon="6.07608">
        <ele>598.7</ele>
        <time>2013-04-23T08:23:57Z</time>
      </trkpt>
      <trkpt lat="45.45604" lon="6.076">
        <ele>598.6</ele>
        <time>2013-04-23T08:24:09Z</time>
      </trkpt>
      <trkpt lat="45.45603" lon="6.076">
        <ele>598.5</ele>
        <time>2013-04-23T08:24:10Z</time>
      </trkpt>
      <trkpt lat="45.45592" lon="6.07583">
        <ele>598.1</ele>
        <time>2013-04-23T08:24:27Z</time>
      </trkpt>
      <trkpt lat="45.45587" lon="6.07574">
        <ele>598</ele>
        <time>2013-04-23T08:24:35Z</time>
      </trkpt>
      <trkpt lat="45.45581" lon="6.07564">
        <ele>597.4</ele>
        <time>2013-04-23T08:24:46Z</time>
      </trkpt>
      <trkpt lat="45.45576" lon="6.07554">
        <ele>597.1</ele>
        <time>2013-04-23T08:24:56Z</time>
      </trkpt>
      <trkpt lat="45.45571" lon="6.07545">
        <ele>597.5</ele>
        <time>2013-04-23T08:25:04Z</time>
      </trkpt>
      <trkpt lat="45.45566" lon="6.07536">
        <ele>598.2</ele>
        <time>2013-04-23T08:25:12Z</time>
      </trkpt>
      <trkpt lat="45.45565" lon="6.07535">
        <ele>598.3</ele>
        <time>2013-04-23T08:25:13Z</time>
      </trkpt>
      <trkpt lat="45.45554" lon="6.07521">
        <ele>597.5</ele>
        <time>2013-04-23T08:25:24Z</time>
      </trkpt>
      <trkpt lat="45.45546" lon="6.07514">
        <ele>597.2</ele>
        <time>2013-04-23T08:25:32Z</time>
      </trkpt>
      <trkpt lat="45.45539" lon="6.07506">
        <ele>597.2</ele>
        <time>2013-04-23T08:25:40Z</time>
      </trkpt>
      <trkpt lat="45.45531" lon="6.075">
        <ele>597</ele>
        <time>2013-04-23T08:25:50Z</time>
      </trkpt>
      <trkpt lat="45.45524" lon="6.07496">
        <ele>596.5</ele>
        <time>2013-04-23T08:25:57Z</time>
      </trkpt>
      <trkpt lat="45.45517" lon="6.07489">
        <ele>596.2</ele>
        <time>2013-04-23T08:26:04Z</time>
      </trkpt>
      <trkpt lat="45.45509" lon="6.07483">
        <ele>596.8</ele>
        <time>2013-04-23T08:26:12Z</time>
      </trkpt>
      <trkpt lat="45.45501" lon="6.07477">
        <ele>597.2</ele>
        <time>2013-04-23T08:26:20Z</time>
      </trkpt>
      <trkpt lat="45.455" lon="6.07476">
        <ele>597</ele>
        <time>2013-04-23T08:26:21Z</time>
      </trkpt>
      <trkpt lat="45.45489" lon="6.07463">
        <ele>597</ele>
        <time>2013-04-23T08:26:32Z</time>
      </trkpt>
      <trkpt lat="45.45482" lon="6.07457">
        <ele>597.8</ele>
        <time>2013-04-23T08:26:40Z</time>
      </trkpt>
      <trkpt lat="45.45475" lon="6.07449">
        <ele>597.4</ele>
        <time>2013-04-23T08:26:47Z</time>
      </trkpt>
      <trkpt lat="45.45467" lon="6.07442">
        <ele>597.8</ele>
        <time>2013-04-23T08:26:54Z</time>
      </trkpt>
      <trkpt lat="45.4546" lon="6.07438">
        <ele>598.1</ele>
        <time>2013-04-23T08:27:01Z</time>
      </trkpt>
      <trkpt lat="45.45454" lon="6.07431">
        <ele>598.6</ele>
        <time>2013-04-23T08:27:07Z</time>
      </trkpt>
      <trkpt lat="45.45446" lon="6.07425">
        <ele>599.5</ele>
        <time>2013-04-23T08:27:14Z</time>
      </trkpt>
      <trkpt lat="45.45439" lon="6.07419">
        <ele>599.9</ele>
        <time>2013-04-23T08:27:21Z</time>
      </trkpt>
      <trkpt lat="45.45431" lon="6.07413">
        <ele>600.5</ele>
        <time>2013-04-23T08:27:27Z</time>
      </trkpt>
      <trkpt lat="45.4543" lon="6.07413">
        <ele>600.6</ele>
        <time>2013-04-23T08:27:28Z</time>
      </trkpt>
      <trkpt lat="45.45416" lon="6.07406">
        <ele>602.2</ele>
        <time>2013-04-23T08:27:39Z</time>
      </trkpt>
      <trkpt lat="45.45408" lon="6.07401">
        <ele>603.1</ele>
        <time>2013-04-23T08:27:45Z</time>
      </trkpt>
      <trkpt lat="45.454" lon="6.07396">
        <ele>602.4</ele>
        <time>2013-04-23T08:27:53Z</time>
      </trkpt>
      <trkpt lat="45.45393" lon="6.0739">
        <ele>603.2</ele>
        <time>2013-04-23T08:27:59Z</time>
      </trkpt>
      <trkpt lat="45.45385" lon="6.07384">
        <ele>604.7</ele>
        <time>2013-04-23T08:28:07Z</time>
      </trkpt>
      <trkpt lat="45.45378" lon="6.07378">
        <ele>606</ele>
        <time>2013-04-23T08:28:20Z</time>
      </trkpt>
      <trkpt lat="45.45371" lon="6.07372">
        <ele>609.3</ele>
        <time>2013-04-23T08:28:37Z</time>
      </trkpt>
      <trkpt lat="45.4537" lon="6.07371">
        <ele>609.4</ele>
        <time>2013-04-23T08:28:38Z</time>
      </trkpt>
      <trkpt lat="45.45355" lon="6.07362">
        <ele>611.7</ele>
        <time>2013-04-23T08:28:56Z</time>
      </trkpt>
      <trkpt lat="45.45348" lon="6.07359">
        <ele>613.6</ele>
        <time>2013-04-23T08:29:05Z</time>
      </trkpt>
      <trkpt lat="45.4534" lon="6.07355">
        <ele>615.4</ele>
        <time>2013-04-23T08:29:15Z</time>
      </trkpt>
      <trkpt lat="45.45332" lon="6.07351">
        <ele>616.8</ele>
        <time>2013-04-23T08:29:25Z</time>
      </trkpt>
      <trkpt lat="45.45323" lon="6.07348">
        <ele>618.7</ele>
        <time>2013-04-23T08:29:35Z</time>
      </trkpt>
      <trkpt lat="45.45316" lon="6.07342">
        <ele>619.7</ele>
        <time>2013-04-23T08:29:46Z</time>
      </trkpt>
      <trkpt lat="45.45315" lon="6.07341">
        <ele>620</ele>
        <time>2013-04-23T08:29:47Z</time>
      </trkpt>
      <trkpt lat="45.45301" lon="6.0733">
        <ele>622.5</ele>
        <time>2013-04-23T08:30:04Z</time>
      </trkpt>
      <trkpt lat="45.45293" lon="6.07326">
        <ele>622.9</ele>
        <time>2013-04-23T08:30:12Z</time>
      </trkpt>
      <trkpt lat="45.45284" lon="6.07322">
        <ele>623.8</ele>
        <time>2013-04-23T08:30:21Z</time>
      </trkpt>
      <trkpt lat="45.45276" lon="6.07318">
        <ele>626.4</ele>
        <time>2013-04-23T08:30:33Z</time>
      </trkpt>
      <trkpt lat="45.45268" lon="6.07315">
        <ele>627.5</ele>
        <time>2013-04-23T08:30:43Z</time>
      </trkpt>
      <trkpt lat="45.4526" lon="6.07312">
        <ele>628.1</ele>
        <time>2013-04-23T08:30:51Z</time>
      </trkpt>
      <trkpt lat="45.45259" lon="6.07311">
        <ele>628.6</ele>
        <time>2013-04-23T08:30:52Z</time>
      </trkpt>
      <trkpt lat="45.45244" lon="6.07304">
        <ele>630.3</ele>
        <time>2013-04-23T08:31:04Z</time>
      </trkpt>
      <trkpt lat="45.45235" lon="6.07306">
        <ele>633</ele>
        <time>2013-04-23T08:31:13Z</time>
      </trkpt>
      <trkpt lat="45.45238" lon="6.07318">
        <ele>633.8</ele>
        <time>2013-04-23T08:31:26Z</time>
      </trkpt>
      <trkpt lat="45.45244" lon="6.07327">
        <ele>634.6</ele>
        <time>2013-04-23T08:31:35Z</time>
      </trkpt>
      <trkpt lat="45.45248" lon="6.07337">
        <ele>636.9</ele>
        <time>2013-04-23T08:31:44Z</time>
      </trkpt>
      <trkpt lat="45.45253" lon="6.07346">
        <ele>637</ele>
        <time>2013-04-23T08:31:52Z</time>
      </trkpt>
      <trkpt lat="45.45259" lon="6.07356">
        <ele>638.2</ele>
        <time>2013-04-23T08:32:00Z</time>
      </trkpt>
      <trkpt lat="45.45259" lon="6.07357">
        <ele>638.3</ele>
        <time>2013-04-23T08:32:01Z</time>
      </trkpt>
      <trkpt lat="45.45267" lon="6.07377">
        <ele>640.6</ele>
        <time>2013-04-23T08:32:19Z</time>
      </trkpt>
      <trkpt lat="45.45273" lon="6.07386">
        <ele>641.9</ele>
        <time>2013-04-23T08:32:28Z</time>
      </trkpt>
      <trkpt lat="45.4528" lon="6.07394">
        <ele>643.7</ele>
        <time>2013-04-23T08:32:37Z</time>
      </trkpt>
      <trkpt lat="45.45286" lon="6.07403">
        <ele>644.4</ele>
        <time>2013-04-23T08:32:46Z</time>
      </trkpt>
      <trkpt lat="45.45292" lon="6.0741">
        <ele>646.6</ele>
        <time>2013-04-23T08:32:55Z</time>
      </trkpt>
      <trkpt lat="45.45297" lon="6.0742">
        <ele>647.7</ele>
        <time>2013-04-23T08:33:05Z</time>
      </trkpt>
      <trkpt lat="45.45298" lon="6.07421">
        <ele>647.6</ele>
        <time>2013-04-23T08:33:06Z</time>
      </trkpt>
      <trkpt lat="45.45309" lon="6.07437">
        <ele>650.2</ele>
        <time>2013-04-23T08:33:23Z</time>
      </trkpt>
      <trkpt lat="45.45314" lon="6.07447">
        <ele>651.3</ele>
        <time>2013-04-23T08:33:30Z</time>
      </trkpt>
      <trkpt lat="45.45319" lon="6.07456">
        <ele>651.1</ele>
        <time>2013-04-23T08:33:37Z</time>
      </trkpt>
      <trkpt lat="45.45324" lon="6.07466">
        <ele>651.5</ele>
        <time>2013-04-23T08:33:44Z</time>
      </trkpt>
      <trkpt lat="45.4533" lon="6.07475">
        <ele>652.2</ele>
        <time>2013-04-23T08:33:51Z</time>
      </trkpt>
      <trkpt lat="45.45335" lon="6.07484">
        <ele>653.3</ele>
        <time>2013-04-23T08:33:58Z</time>
      </trkpt>
      <trkpt lat="45.4534" lon="6.07494">
        <ele>653.1</ele>
        <time>2013-04-23T08:34:05Z</time>
      </trkpt>
      <trkpt lat="45.45346" lon="6.07504">
        <ele>653.8</ele>
        <time>2013-04-23T08:34:14Z</time>
      </trkpt>
      <trkpt lat="45.45346" lon="6.07504">
        <ele>654</ele>
        <time>2013-04-23T08:34:15Z</time>
      </trkpt>
      <trkpt lat="45.4536" lon="6.07518">
        <ele>655.5</ele>
        <time>2013-04-23T08:34:30Z</time>
      </trkpt>
      <trkpt lat="45.45367" lon="6.07525">
        <ele>656.5</ele>
        <time>2013-04-23T08:34:39Z</time>
      </trkpt>
      <trkpt lat="45.45373" lon="6.07534">
        <ele>657</ele>
        <time>2013-04-23T08:34:49Z</time>
      </trkpt>
      <trkpt lat="45.45378" lon="6.07544">
        <ele>658.5</ele>
        <time>2013-04-23T08:34:58Z</time>
      </trkpt>
      <trkpt lat="45.45382" lon="6.07554">
        <ele>659.8</ele>
        <time>2013-04-23T08:35:06Z</time>
      </trkpt>
      <trkpt lat="45.45384" lon="6.07566">
        <ele>661.2</ele>
        <time>2013-04-23T08:35:19Z</time>
      </trkpt>
      <trkpt lat="45.45383" lon="6.07567">
        <ele>661.2</ele>
        <time>2013-04-23T08:35:20Z</time>
      </trkpt>
      <trkpt lat="45.45376" lon="6.07589">
        <ele>666.1</ele>
        <time>2013-04-23T08:35:45Z</time>
      </trkpt>
      <trkpt lat="45.45375" lon="6.07601">
        <ele>669.2</ele>
        <time>2013-04-23T08:35:59Z</time>
      </trkpt>
      <trkpt lat="45.45379" lon="6.07611">
        <ele>670.5</ele>
        <time>2013-04-23T08:36:09Z</time>
      </trkpt>
      <trkpt lat="45.45383" lon="6.07621">
        <ele>672.6</ele>
        <time>2013-04-23T08:36:18Z</time>
      </trkpt>
      <trkpt lat="45.45389" lon="6.0763">
        <ele>673.7</ele>
        <time>2013-04-23T08:36:28Z</time>
      </trkpt>
      <trkpt lat="45.4539" lon="6.07631">
        <ele>673.9</ele>
        <time>2013-04-23T08:36:29Z</time>
      </trkpt>
      <trkpt lat="45.45402" lon="6.07644">
        <ele>676.4</ele>
        <time>2013-04-23T08:36:47Z</time>
      </trkpt>
      <trkpt lat="45.4541" lon="6.07651">
        <ele>678.1</ele>
        <time>2013-04-23T08:36:57Z</time>
      </trkpt>
      <trkpt lat="45.45417" lon="6.07658">
        <ele>679.3</ele>
        <time>2013-04-23T08:37:07Z</time>
      </trkpt>
      <trkpt lat="45.45424" lon="6.07665">
        <ele>680.8</ele>
        <time>2013-04-23T08:37:17Z</time>
      </trkpt>
      <trkpt lat="45.4543" lon="6.07673">
        <ele>682.5</ele>
        <time>2013-04-23T08:37:26Z</time>
      </trkpt>
      <trkpt lat="45.45436" lon="6.07682">
        <ele>683.9</ele>
        <time>2013-04-23T08:37:35Z</time>
      </trkpt>
      <trkpt lat="45.45436" lon="6.07683">
        <ele>684.1</ele>
        <time>2013-04-23T08:37:36Z</time>
      </trkpt>
      <trkpt lat="45.45447" lon="6.07699">
        <ele>686.6</ele>
        <time>2013-04-23T08:37:55Z</time>
      </trkpt>
      <trkpt lat="45.45452" lon="6.07708">
        <ele>687.2</ele>
        <time>2013-04-23T08:38:03Z</time>
      </trkpt>
      <trkpt lat="45.45458" lon="6.07717">
        <ele>689</ele>
        <time>2013-04-23T08:38:11Z</time>
      </trkpt>
      <trkpt lat="45.45464" lon="6.07727">
        <ele>689.7</ele>
        <time>2013-04-23T08:38:20Z</time>
      </trkpt>
      <trkpt lat="45.45468" lon="6.07737">
        <ele>692</ele>
        <time>2013-04-23T08:38:28Z</time>
      </trkpt>
      <trkpt lat="45.45471" lon="6.07748">
        <ele>693.1</ele>
        <time>2013-04-23T08:38:35Z</time>
      </trkpt>
      <trkpt lat="45.45473" lon="6.0776">
        <ele>693.3</ele>
        <time>2013-04-23T08:38:42Z</time>
      </trkpt>
      <trkpt lat="45.45473" lon="6.07762">
        <ele>693.5</ele>
        <time>2013-04-23T08:38:43Z</time>
      </trkpt>
      <trkpt lat="45.45473" lon="6.07783">
        <ele>694.8</ele>
        <time>2013-04-23T08:38:56Z</time>
      </trkpt>
      <trkpt lat="45.45474" lon="6.07796">
        <ele>696.6</ele>
        <time>2013-04-23T08:39:04Z</time>
      </trkpt>
      <trkpt lat="45.45475" lon="6.07808">
        <ele>697.2</ele>
        <time>2013-04-23T08:39:12Z</time>
      </trkpt>
      <trkpt lat="45.45475" lon="6.0782">
        <ele>698.7</ele>
        <time>2013-04-23T08:39:18Z</time>
      </trkpt>
      <trkpt lat="45.45475" lon="6.07833">
        <ele>699.6</ele>
        <time>2013-04-23T08:39:24Z</time>
      </trkpt>
      <trkpt lat="45.45475" lon="6.07843">
        <ele>699.7</ele>
        <time>2013-04-23T08:39:29Z</time>
      </trkpt>
      <trkpt lat="45.45476" lon="6.07854">
        <ele>700.2</ele>
        <time>2013-04-23T08:39:34Z</time>
      </trkpt>
      <trkpt lat="45.45479" lon="6.07865">
        <ele>700.8</ele>
        <time>2013-04-23T08:39:40Z</time>
      </trkpt>
      <trkpt lat="45.45483" lon="6.07876">
        <ele>701.3</ele>
        <time>2013-04-23T08:39:47Z</time>
      </trkpt>
      <trkpt lat="45.45484" lon="6.07877">
        <ele>701.6</ele>
        <time>2013-04-23T08:39:48Z</time>
      </trkpt>
      <trkpt lat="45.4549" lon="6.07898">
        <ele>702.5</ele>
        <time>2013-04-23T08:40:01Z</time>
      </trkpt>
      <trkpt lat="45.45491" lon="6.07911">
        <ele>703</ele>
        <time>2013-04-23T08:40:08Z</time>
      </trkpt>
      <trkpt lat="45.45493" lon="6.07922">
        <ele>705</ele>
        <time>2013-04-23T08:40:15Z</time>
      </trkpt>
      <trkpt lat="45.45495" lon="6.07933">
        <ele>705.7</ele>
        <time>2013-04-23T08:40:21Z</time>
      </trkpt>
      <trkpt lat="45.45497" lon="6.07945">
        <ele>706.2</ele>
        <time>2013-04-23T08:40:27Z</time>
      </trkpt>
      <trkpt lat="45.45501" lon="6.07955">
        <ele>706</ele>
        <time>2013-04-23T08:40:33Z</time>
      </trkpt>
      <trkpt lat="45.45505" lon="6.07966">
        <ele>706.4</ele>
        <time>2013-04-23T08:40:40Z</time>
      </trkpt>
      <trkpt lat="45.45509" lon="6.07976">
        <ele>707.2</ele>
        <time>2013-04-23T08:40:47Z</time>
      </trkpt>
      <trkpt lat="45.45514" lon="6.07985">
        <ele>707.8</ele>
        <time>2013-04-23T08:40:54Z</time>
      </trkpt>
      <trkpt lat="45.45515" lon="6.07986">
        <ele>707.9</ele>
        <time>2013-04-23T08:40:55Z</time>
      </trkpt>
      <trkpt lat="45.45525" lon="6.08002">
        <ele>711</ele>
        <time>2013-04-23T08:41:10Z</time>
      </trkpt>
      <trkpt lat="45.45529" lon="6.08013">
        <ele>712.5</ele>
        <time>2013-04-23T08:41:18Z</time>
      </trkpt>
      <trkpt lat="45.45535" lon="6.08021">
        <ele>713.8</ele>
        <time>2013-04-23T08:41:26Z</time>
      </trkpt>
      <trkpt lat="45.45543" lon="6.08027">
        <ele>715.1</ele>
        <time>2013-04-23T08:41:50Z</time>
      </trkpt>
      <trkpt lat="45.45546" lon="6.08039">
        <ele>714.4</ele>
        <time>2013-04-23T08:42:03Z</time>
      </trkpt>
      <trkpt lat="45.45546" lon="6.0804">
        <ele>714.3</ele>
        <time>2013-04-23T08:42:04Z</time>
      </trkpt>
      <trkpt lat="45.4555" lon="6.08063">
        <ele>710.7</ele>
        <time>2013-04-23T08:42:33Z</time>
      </trkpt>
      <trkpt lat="45.45547" lon="6.08074">
        <ele>709.9</ele>
        <time>2013-04-23T08:42:46Z</time>
      </trkpt>
      <trkpt lat="45.45539" lon="6.08079">
        <ele>708.3</ele>
        <time>2013-04-23T08:43:24Z</time>
      </trkpt>
      <trkpt lat="45.45538" lon="6.08079">
        <ele>708.2</ele>
        <time>2013-04-23T08:43:25Z</time>
      </trkpt>
      <trkpt lat="45.45538" lon="6.0808">
        <ele>707.9</ele>
        <time>2013-04-23T08:44:23Z</time>
      </trkpt>
      <trkpt lat="45.45544" lon="6.08089">
        <ele>708.2</ele>
        <time>2013-04-23T08:44:31Z</time>
      </trkpt>
      <trkpt lat="45.45545" lon="6.0809">
        <ele>708.4</ele>
        <time>2013-04-23T08:44:32Z</time>
      </trkpt>
      <trkpt lat="45.45559" lon="6.081">
        <ele>709.1</ele>
        <time>2013-04-23T08:44:48Z</time>
      </trkpt>
      <trkpt lat="45.45567" lon="6.08104">
        <ele>711.1</ele>
        <time>2013-04-23T08:44:59Z</time>
      </trkpt>
      <trkpt lat="45.45575" lon="6.0811">
        <ele>713.1</ele>
        <time>2013-04-23T08:45:09Z</time>
      </trkpt>
      <trkpt lat="45.45582" lon="6.08114">
        <ele>712.9</ele>
        <time>2013-04-23T08:45:18Z</time>
      </trkpt>
      <trkpt lat="45.45591" lon="6.08117">
        <ele>714.3</ele>
        <time>2013-04-23T08:45:30Z</time>
      </trkpt>
      <trkpt lat="45.456" lon="6.08118">
        <ele>715.2</ele>
        <time>2013-04-23T08:45:40Z</time>
      </trkpt>
      <trkpt lat="45.456" lon="6.08118">
        <ele>715.3</ele>
        <time>2013-04-23T08:45:41Z</time>
      </trkpt>
      <trkpt lat="45.4561" lon="6.08136">
        <ele>716.9</ele>
        <time>2013-04-23T08:46:04Z</time>
      </trkpt>
      <trkpt lat="45.45615" lon="6.08147">
        <ele>717.1</ele>
        <time>2013-04-23T08:46:15Z</time>
      </trkpt>
      <trkpt lat="45.45618" lon="6.08158">
        <ele>717.5</ele>
        <time>2013-04-23T08:46:25Z</time>
      </trkpt>
      <trkpt lat="45.4562" lon="6.08169">
        <ele>718.1</ele>
        <time>2013-04-23T08:46:49Z</time>
      </trkpt>
      <trkpt lat="45.4562" lon="6.0817">
        <ele>718.5</ele>
        <time>2013-04-23T08:46:50Z</time>
      </trkpt>
      <trkpt lat="45.45623" lon="6.08156">
        <ele>718.3</ele>
        <time>2013-04-23T08:51:08Z</time>
      </trkpt>
      <trkpt lat="45.45619" lon="6.08169">
        <ele>728.2</ele>
        <time>2013-04-23T08:58:19Z</time>
      </trkpt>
      <trkpt lat="45.4562" lon="6.08183">
        <ele>727.2</ele>
        <time>2013-04-23T09:12:46Z</time>
      </trkpt>
      <trkpt lat="45.45625" lon="6.08203">
        <ele>728.6</ele>
        <time>2013-04-23T09:13:01Z</time>
      </trkpt>
      <trkpt lat="45.45627" lon="6.08215">
        <ele>730.2</ele>
        <time>2013-04-23T09:13:16Z</time>
      </trkpt>
      <trkpt lat="45.45629" lon="6.08227">
        <ele>730.8</ele>
        <time>2013-04-23T09:13:28Z</time>
      </trkpt>
      <trkpt lat="45.45632" lon="6.08237">
        <ele>732</ele>
        <time>2013-04-23T09:13:37Z</time>
      </trkpt>
      <trkpt lat="45.45636" lon="6.08248">
        <ele>732.1</ele>
        <time>2013-04-23T09:13:46Z</time>
      </trkpt>
      <trkpt lat="45.45641" lon="6.08259">
        <ele>732.4</ele>
        <time>2013-04-23T09:13:55Z</time>
      </trkpt>
      <trkpt lat="45.45642" lon="6.0826">
        <ele>732.4</ele>
        <time>2013-04-23T09:13:56Z</time>
      </trkpt>
      <trkpt lat="45.4565" lon="6.0828">
        <ele>732.6</ele>
        <time>2013-04-23T09:14:11Z</time>
      </trkpt>
      <trkpt lat="45.45655" lon="6.08289">
        <ele>733.3</ele>
        <time>2013-04-23T09:14:18Z</time>
      </trkpt>
      <trkpt lat="45.45659" lon="6.08299">
        <ele>732.8</ele>
        <time>2013-04-23T09:14:25Z</time>
      </trkpt>
      <trkpt lat="45.45665" lon="6.08307">
        <ele>733.5</ele>
        <time>2013-04-23T09:14:33Z</time>
      </trkpt>
      <trkpt lat="45.4567" lon="6.08317">
        <ele>733.5</ele>
        <time>2013-04-23T09:14:40Z</time>
      </trkpt>
      <trkpt lat="45.45675" lon="6.08327">
        <ele>733.9</ele>
        <time>2013-04-23T09:14:47Z</time>
      </trkpt>
      <trkpt lat="45.45679" lon="6.08337">
        <ele>735</ele>
        <time>2013-04-23T09:14:54Z</time>
      </trkpt>
      <trkpt lat="45.45684" lon="6.08346">
        <ele>734.7</ele>
        <time>2013-04-23T09:15:01Z</time>
      </trkpt>
      <trkpt lat="45.45684" lon="6.08348">
        <ele>734.9</ele>
        <time>2013-04-23T09:15:02Z</time>
      </trkpt>
      <trkpt lat="45.45691" lon="6.08368">
        <ele>736.2</ele>
        <time>2013-04-23T09:15:15Z</time>
      </trkpt>
      <trkpt lat="45.45694" lon="6.0838">
        <ele>736.7</ele>
        <time>2013-04-23T09:15:22Z</time>
      </trkpt>
      <trkpt lat="45.45697" lon="6.08391">
        <ele>737.1</ele>
        <time>2013-04-23T09:15:29Z</time>
      </trkpt>
      <trkpt lat="45.45701" lon="6.08403">
        <ele>738.5</ele>
        <time>2013-04-23T09:15:37Z</time>
      </trkpt>
      <trkpt lat="45.45705" lon="6.08413">
        <ele>739.3</ele>
        <time>2013-04-23T09:15:46Z</time>
      </trkpt>
      <trkpt lat="45.45709" lon="6.08424">
        <ele>739.6</ele>
        <time>2013-04-23T09:15:55Z</time>
      </trkpt>
      <trkpt lat="45.45713" lon="6.08435">
        <ele>740.2</ele>
        <time>2013-04-23T09:16:05Z</time>
      </trkpt>
      <trkpt lat="45.45713" lon="6.08436">
        <ele>740</ele>
        <time>2013-04-23T09:16:06Z</time>
      </trkpt>
      <trkpt lat="45.45718" lon="6.08459">
        <ele>740</ele>
        <time>2013-04-23T09:16:22Z</time>
      </trkpt>
      <trkpt lat="45.4572" lon="6.08471">
        <ele>740.2</ele>
        <time>2013-04-23T09:16:28Z</time>
      </trkpt>
      <trkpt lat="45.45722" lon="6.08481">
        <ele>739.6</ele>
        <time>2013-04-23T09:16:34Z</time>
      </trkpt>
      <trkpt lat="45.45725" lon="6.08493">
        <ele>739.1</ele>
        <time>2013-04-23T09:16:42Z</time>
      </trkpt>
      <trkpt lat="45.45728" lon="6.08505">
        <ele>739.5</ele>
        <time>2013-04-23T09:16:51Z</time>
      </trkpt>
      <trkpt lat="45.45728" lon="6.08517">
        <ele>738.9</ele>
        <time>2013-04-23T09:17:01Z</time>
      </trkpt>
      <trkpt lat="45.45729" lon="6.08529">
        <ele>739.5</ele>
        <time>2013-04-23T09:17:09Z</time>
      </trkpt>
      <trkpt lat="45.4573" lon="6.0853">
        <ele>739.5</ele>
        <time>2013-04-23T09:17:10Z</time>
      </trkpt>
      <trkpt lat="45.45736" lon="6.08551">
        <ele>742.2</ele>
        <time>2013-04-23T09:17:39Z</time>
      </trkpt>
      <trkpt lat="45.4574" lon="6.08562">
        <ele>742.3</ele>
        <time>2013-04-23T09:17:47Z</time>
      </trkpt>
      <trkpt lat="45.45746" lon="6.08572">
        <ele>743.9</ele>
        <time>2013-04-23T09:17:55Z</time>
      </trkpt>
      <trkpt lat="45.45752" lon="6.08581">
        <ele>745.5</ele>
        <time>2013-04-23T09:18:05Z</time>
      </trkpt>
      <trkpt lat="45.45754" lon="6.08593">
        <ele>746.8</ele>
        <time>2013-04-23T09:18:18Z</time>
      </trkpt>
      <trkpt lat="45.45754" lon="6.08594">
        <ele>746.7</ele>
        <time>2013-04-23T09:18:19Z</time>
      </trkpt>
      <trkpt lat="45.45758" lon="6.08616">
        <ele>747.9</ele>
        <time>2013-04-23T09:18:35Z</time>
      </trkpt>
      <trkpt lat="45.45759" lon="6.08627">
        <ele>749</ele>
        <time>2013-04-23T09:18:43Z</time>
      </trkpt>
      <trkpt lat="45.45761" lon="6.08639">
        <ele>749.2</ele>
        <time>2013-04-23T09:18:50Z</time>
      </trkpt>
      <trkpt lat="45.45763" lon="6.0865">
        <ele>749.7</ele>
        <time>2013-04-23T09:18:58Z</time>
      </trkpt>
      <trkpt lat="45.45767" lon="6.08661">
        <ele>749</ele>
        <time>2013-04-23T09:19:09Z</time>
      </trkpt>
      <trkpt lat="45.45773" lon="6.08671">
        <ele>749</ele>
        <time>2013-04-23T09:19:20Z</time>
      </trkpt>
      <trkpt lat="45.45774" lon="6.08672">
        <ele>748.8</ele>
        <time>2013-04-23T09:19:21Z</time>
      </trkpt>
      <trkpt lat="45.45781" lon="6.08693">
        <ele>744.2</ele>
        <time>2013-04-23T09:19:50Z</time>
      </trkpt>
      <trkpt lat="45.45789" lon="6.08691">
        <ele>743.1</ele>
        <time>2013-04-23T09:20:09Z</time>
      </trkpt>
      <trkpt lat="45.45797" lon="6.08695">
        <ele>742.5</ele>
        <time>2013-04-23T09:20:16Z</time>
      </trkpt>
      <trkpt lat="45.45804" lon="6.08699">
        <ele>742.3</ele>
        <time>2013-04-23T09:20:21Z</time>
      </trkpt>
      <trkpt lat="45.45811" lon="6.08706">
        <ele>742.5</ele>
        <time>2013-04-23T09:20:27Z</time>
      </trkpt>
      <trkpt lat="45.45812" lon="6.08707">
        <ele>742.5</ele>
        <time>2013-04-23T09:20:28Z</time>
      </trkpt>
      <trkpt lat="45.45819" lon="6.08727">
        <ele>741.8</ele>
        <time>2013-04-23T09:20:42Z</time>
      </trkpt>
      <trkpt lat="45.45824" lon="6.08737">
        <ele>743</ele>
        <time>2013-04-23T09:20:49Z</time>
      </trkpt>
      <trkpt lat="45.45829" lon="6.08747">
        <ele>742.4</ele>
        <time>2013-04-23T09:20:56Z</time>
      </trkpt>
      <trkpt lat="45.45833" lon="6.08757">
        <ele>743.6</ele>
        <time>2013-04-23T09:21:03Z</time>
      </trkpt>
      <trkpt lat="45.45837" lon="6.08768">
        <ele>743</ele>
        <time>2013-04-23T09:21:11Z</time>
      </trkpt>
      <trkpt lat="45.45843" lon="6.08775">
        <ele>743.5</ele>
        <time>2013-04-23T09:21:18Z</time>
      </trkpt>
      <trkpt lat="45.4585" lon="6.08782">
        <ele>744.1</ele>
        <time>2013-04-23T09:21:25Z</time>
      </trkpt>
      <trkpt lat="45.45857" lon="6.0879">
        <ele>743.2</ele>
        <time>2013-04-23T09:21:32Z</time>
      </trkpt>
      <trkpt lat="45.45858" lon="6.08791">
        <ele>743.5</ele>
        <time>2013-04-23T09:21:33Z</time>
      </trkpt>
      <trkpt lat="45.4587" lon="6.08805">
        <ele>743.6</ele>
        <time>2013-04-23T09:21:45Z</time>
      </trkpt>
      <trkpt lat="45.45877" lon="6.08813">
        <ele>743.9</ele>
        <time>2013-04-23T09:21:53Z</time>
      </trkpt>
      <trkpt lat="45.45883" lon="6.08821">
        <ele>744.9</ele>
        <time>2013-04-23T09:22:02Z</time>
      </trkpt>
      <trkpt lat="45.45891" lon="6.08826">
        <ele>744</ele>
        <time>2013-04-23T09:22:10Z</time>
      </trkpt>
      <trkpt lat="45.45898" lon="6.08832">
        <ele>745.4</ele>
        <time>2013-04-23T09:22:17Z</time>
      </trkpt>
      <trkpt lat="45.45906" lon="6.08838">
        <ele>744.8</ele>
        <time>2013-04-23T09:22:25Z</time>
      </trkpt>
      <trkpt lat="45.45913" lon="6.08844">
        <ele>745.4</ele>
        <time>2013-04-23T09:22:34Z</time>
      </trkpt>
      <trkpt lat="45.45914" lon="6.08845">
        <ele>745.6</ele>
        <time>2013-04-23T09:22:35Z</time>
      </trkpt>
      <trkpt lat="45.45927" lon="6.08857">
        <ele>746</ele>
        <time>2013-04-23T09:22:49Z</time>
      </trkpt>
      <trkpt lat="45.45935" lon="6.08861">
        <ele>746.5</ele>
        <time>2013-04-23T09:22:58Z</time>
      </trkpt>
      <trkpt lat="45.45943" lon="6.08864">
        <ele>746.6</ele>
        <time>2013-04-23T09:23:07Z</time>
      </trkpt>
      <trkpt lat="45.45951" lon="6.08868">
        <ele>745.8</ele>
        <time>2013-04-23T09:23:17Z</time>
      </trkpt>
      <trkpt lat="45.45958" lon="6.08875">
        <ele>745.7</ele>
        <time>2013-04-23T09:23:26Z</time>
      </trkpt>
      <trkpt lat="45.45966" lon="6.0888">
        <ele>745.5</ele>
        <time>2013-04-23T09:23:34Z</time>
      </trkpt>
      <trkpt lat="45.45973" lon="6.08886">
        <ele>745.5</ele>
        <time>2013-04-23T09:23:45Z</time>
      </trkpt>
      <trkpt lat="45.45974" lon="6.08886">
        <ele>745.4</ele>
        <time>2013-04-23T09:23:46Z</time>
      </trkpt>
      <trkpt lat="45.45988" lon="6.08893">
        <ele>744.1</ele>
        <time>2013-04-23T09:24:51Z</time>
      </trkpt>
      <trkpt lat="45.45988" lon="6.08893">
        <ele>744.5</ele>
        <time>2013-04-23T09:24:52Z</time>
      </trkpt>
      <trkpt lat="45.46" lon="6.08908">
        <ele>743.7</ele>
        <time>2013-04-23T09:26:03Z</time>
      </trkpt>
      <trkpt lat="45.46" lon="6.08909">
        <ele>743.7</ele>
        <time>2013-04-23T09:26:04Z</time>
      </trkpt>
      <trkpt lat="45.45999" lon="6.08931">
        <ele>744.1</ele>
        <time>2013-04-23T09:26:19Z</time>
      </trkpt>
      <trkpt lat="45.46" lon="6.08943">
        <ele>745.2</ele>
        <time>2013-04-23T09:26:28Z</time>
      </trkpt>
      <trkpt lat="45.46004" lon="6.08953">
        <ele>746.4</ele>
        <time>2013-04-23T09:26:39Z</time>
      </trkpt>
      <trkpt lat="45.4601" lon="6.0896">
        <ele>746.7</ele>
        <time>2013-04-23T09:26:56Z</time>
      </trkpt>
      <trkpt lat="45.46018" lon="6.08966">
        <ele>747.8</ele>
        <time>2013-04-23T09:27:10Z</time>
      </trkpt>
      <trkpt lat="45.46019" lon="6.08967">
        <ele>748</ele>
        <time>2013-04-23T09:27:11Z</time>
      </trkpt>
      <trkpt lat="45.46029" lon="6.08984">
        <ele>750.1</ele>
        <time>2013-04-23T09:27:47Z</time>
      </trkpt>
      <trkpt lat="45.46031" lon="6.08997">
        <ele>750.8</ele>
        <time>2013-04-23T09:28:03Z</time>
      </trkpt>
      <trkpt lat="45.46036" lon="6.09007">
        <ele>752.7</ele>
        <time>2013-04-23T09:28:14Z</time>
      </trkpt>
      <trkpt lat="45.46037" lon="6.09007">
        <ele>752.7</ele>
        <time>2013-04-23T09:28:15Z</time>
      </trkpt>
      <trkpt lat="45.46048" lon="6.09024">
        <ele>752.8</ele>
        <time>2013-04-23T09:28:33Z</time>
      </trkpt>
      <trkpt lat="45.46054" lon="6.09032">
        <ele>753.3</ele>
        <time>2013-04-23T09:28:42Z</time>
      </trkpt>
      <trkpt lat="45.46059" lon="6.09041">
        <ele>754</ele>
        <time>2013-04-23T09:28:51Z</time>
      </trkpt>
      <trkpt lat="45.46065" lon="6.0905">
        <ele>754.6</ele>
        <time>2013-04-23T09:29:01Z</time>
      </trkpt>
      <trkpt lat="45.46069" lon="6.0906">
        <ele>755</ele>
        <time>2013-04-23T09:29:09Z</time>
      </trkpt>
      <trkpt lat="45.46074" lon="6.09071">
        <ele>756.1</ele>
        <time>2013-04-23T09:29:34Z</time>
      </trkpt>
      <trkpt lat="45.46074" lon="6.09071">
        <ele>756.1</ele>
        <time>2013-04-23T09:29:35Z</time>
      </trkpt>
      <trkpt lat="45.46086" lon="6.09085">
        <ele>756.4</ele>
        <time>2013-04-23T09:29:56Z</time>
      </trkpt>
      <trkpt lat="45.46093" lon="6.09093">
        <ele>756.4</ele>
        <time>2013-04-23T09:30:04Z</time>
      </trkpt>
      <trkpt lat="45.461" lon="6.09101">
        <ele>756.8</ele>
        <time>2013-04-23T09:30:11Z</time>
      </trkpt>
      <trkpt lat="45.46106" lon="6.09109">
        <ele>757.7</ele>
        <time>2013-04-23T09:30:18Z</time>
      </trkpt>
      <trkpt lat="45.46113" lon="6.09116">
        <ele>758.9</ele>
        <time>2013-04-23T09:30:25Z</time>
      </trkpt>
      <trkpt lat="45.4612" lon="6.09124">
        <ele>759.1</ele>
        <time>2013-04-23T09:30:32Z</time>
      </trkpt>
      <trkpt lat="45.46127" lon="6.09131">
        <ele>759.9</ele>
        <time>2013-04-23T09:30:39Z</time>
      </trkpt>
      <trkpt lat="45.46127" lon="6.09132">
        <ele>760.2</ele>
        <time>2013-04-23T09:30:40Z</time>
      </trkpt>
      <trkpt lat="45.4614" lon="6.09144">
        <ele>761.1</ele>
        <time>2013-04-23T09:30:54Z</time>
      </trkpt>
      <trkpt lat="45.46147" lon="6.0915">
        <ele>761.3</ele>
        <time>2013-04-23T09:31:00Z</time>
      </trkpt>
      <trkpt lat="45.46154" lon="6.09158">
        <ele>762.7</ele>
        <time>2013-04-23T09:31:07Z</time>
      </trkpt>
      <trkpt lat="45.4616" lon="6.09167">
        <ele>763.1</ele>
        <time>2013-04-23T09:31:14Z</time>
      </trkpt>
      <trkpt lat="45.46165" lon="6.09177">
        <ele>763.2</ele>
        <time>2013-04-23T09:31:23Z</time>
      </trkpt>
      <trkpt lat="45.46172" lon="6.09185">
        <ele>763.6</ele>
        <time>2013-04-23T09:31:31Z</time>
      </trkpt>
      <trkpt lat="45.46178" lon="6.09193">
        <ele>764.8</ele>
        <time>2013-04-23T09:31:38Z</time>
      </trkpt>
      <trkpt lat="45.46185" lon="6.092">
        <ele>765.3</ele>
        <time>2013-04-23T09:31:46Z</time>
      </trkpt>
      <trkpt lat="45.46186" lon="6.09201">
        <ele>765.4</ele>
        <time>2013-04-23T09:31:47Z</time>
      </trkpt>
      <trkpt lat="45.46196" lon="6.09218">
        <ele>766.8</ele>
        <time>2013-04-23T09:32:23Z</time>
      </trkpt>
      <trkpt lat="45.46202" lon="6.09224">
        <ele>767.9</ele>
        <time>2013-04-23T09:32:32Z</time>
      </trkpt>
      <trkpt lat="45.46209" lon="6.09231">
        <ele>769.4</ele>
        <time>2013-04-23T09:32:41Z</time>
      </trkpt>
      <trkpt lat="45.46215" lon="6.09239">
        <ele>769.1</ele>
        <time>2013-04-23T09:32:49Z</time>
      </trkpt>
      <trkpt lat="45.46216" lon="6.0924">
        <ele>769.5</ele>
        <time>2013-04-23T09:32:50Z</time>
      </trkpt>
      <trkpt lat="45.46229" lon="6.09255">
        <ele>771.9</ele>
        <time>2013-04-23T09:33:07Z</time>
      </trkpt>
      <trkpt lat="45.46234" lon="6.09264">
        <ele>773</ele>
        <time>2013-04-23T09:33:16Z</time>
      </trkpt>
      <trkpt lat="45.4624" lon="6.09273">
        <ele>775.6</ele>
        <time>2013-04-23T09:33:25Z</time>
      </trkpt>
      <trkpt lat="45.46246" lon="6.09282">
        <ele>776.6</ele>
        <time>2013-04-23T09:33:35Z</time>
      </trkpt>
      <trkpt lat="45.46252" lon="6.0929">
        <ele>777.8</ele>
        <time>2013-04-23T09:33:44Z</time>
      </trkpt>
      <trkpt lat="45.46258" lon="6.09299">
        <ele>779.6</ele>
        <time>2013-04-23T09:33:54Z</time>
      </trkpt>
      <trkpt lat="45.46258" lon="6.093">
        <ele>779.8</ele>
        <time>2013-04-23T09:33:55Z</time>
      </trkpt>
      <trkpt lat="45.46268" lon="6.09318">
        <ele>781.9</ele>
        <time>2013-04-23T09:34:13Z</time>
      </trkpt>
      <trkpt lat="45.46273" lon="6.09328">
        <ele>782.5</ele>
        <time>2013-04-23T09:34:22Z</time>
      </trkpt>
      <trkpt lat="45.46278" lon="6.09338">
        <ele>783.8</ele>
        <time>2013-04-23T09:34:32Z</time>
      </trkpt>
      <trkpt lat="45.46284" lon="6.09346">
        <ele>784.8</ele>
        <time>2013-04-23T09:34:42Z</time>
      </trkpt>
      <trkpt lat="45.46289" lon="6.09357">
        <ele>786.7</ele>
        <time>2013-04-23T09:34:53Z</time>
      </trkpt>
      <trkpt lat="45.46294" lon="6.09367">
        <ele>787.6</ele>
        <time>2013-04-23T09:35:03Z</time>
      </trkpt>
      <trkpt lat="45.46294" lon="6.09368">
        <ele>787.9</ele>
        <time>2013-04-23T09:35:04Z</time>
      </trkpt>
      <trkpt lat="45.46304" lon="6.09385">
        <ele>790.5</ele>
        <time>2013-04-23T09:35:22Z</time>
      </trkpt>
      <trkpt lat="45.46311" lon="6.09393">
        <ele>792</ele>
        <time>2013-04-23T09:35:31Z</time>
      </trkpt>
      <trkpt lat="45.46317" lon="6.09401">
        <ele>792.3</ele>
        <time>2013-04-23T09:35:39Z</time>
      </trkpt>
      <trkpt lat="45.46324" lon="6.09408">
        <ele>792.9</ele>
        <time>2013-04-23T09:35:46Z</time>
      </trkpt>
      <trkpt lat="45.4633" lon="6.09414">
        <ele>793.6</ele>
        <time>2013-04-23T09:35:54Z</time>
      </trkpt>
      <trkpt lat="45.46336" lon="6.09424">
        <ele>794.2</ele>
        <time>2013-04-23T09:36:05Z</time>
      </trkpt>
      <trkpt lat="45.46337" lon="6.09425">
        <ele>794.1</ele>
        <time>2013-04-23T09:36:06Z</time>
      </trkpt>
      <trkpt lat="45.46351" lon="6.09432">
        <ele>794.9</ele>
        <time>2013-04-23T09:36:23Z</time>
      </trkpt>
      <trkpt lat="45.46359" lon="6.09437">
        <ele>794.7</ele>
        <time>2013-04-23T09:36:32Z</time>
      </trkpt>
      <trkpt lat="45.46367" lon="6.0944">
        <ele>795.1</ele>
        <time>2013-04-23T09:36:42Z</time>
      </trkpt>
      <trkpt lat="45.46374" lon="6.09447">
        <ele>795.1</ele>
        <time>2013-04-23T09:36:53Z</time>
      </trkpt>
      <trkpt lat="45.46381" lon="6.09452">
        <ele>794.2</ele>
        <time>2013-04-23T09:37:03Z</time>
      </trkpt>
      <trkpt lat="45.46389" lon="6.09456">
        <ele>794.2</ele>
        <time>2013-04-23T09:37:11Z</time>
      </trkpt>
      <trkpt lat="45.4639" lon="6.09457">
        <ele>794</ele>
        <time>2013-04-23T09:37:12Z</time>
      </trkpt>
      <trkpt lat="45.46403" lon="6.09469">
        <ele>795.1</ele>
        <time>2013-04-23T09:37:27Z</time>
      </trkpt>
      <trkpt lat="45.46411" lon="6.09475">
        <ele>794.8</ele>
        <time>2013-04-23T09:37:35Z</time>
      </trkpt>
      <trkpt lat="45.46415" lon="6.09484">
        <ele>795.5</ele>
        <time>2013-04-23T09:37:41Z</time>
      </trkpt>
      <trkpt lat="45.46423" lon="6.09489">
        <ele>795.4</ele>
        <time>2013-04-23T09:37:48Z</time>
      </trkpt>
      <trkpt lat="45.4643" lon="6.09494">
        <ele>796.3</ele>
        <time>2013-04-23T09:37:55Z</time>
      </trkpt>
      <trkpt lat="45.46438" lon="6.09499">
        <ele>796.3</ele>
        <time>2013-04-23T09:38:03Z</time>
      </trkpt>
      <trkpt lat="45.46447" lon="6.09502">
        <ele>796.3</ele>
        <time>2013-04-23T09:38:11Z</time>
      </trkpt>
      <trkpt lat="45.46455" lon="6.09505">
        <ele>796.5</ele>
        <time>2013-04-23T09:38:19Z</time>
      </trkpt>
      <trkpt lat="45.46456" lon="6.09505">
        <ele>796.4</ele>
        <time>2013-04-23T09:38:20Z</time>
      </trkpt>
      <trkpt lat="45.4647" lon="6.09515">
        <ele>797</ele>
        <time>2013-04-23T09:38:39Z</time>
      </trkpt>
      <trkpt lat="45.46477" lon="6.09519">
        <ele>797.3</ele>
        <time>2013-04-23T09:38:46Z</time>
      </trkpt>
      <trkpt lat="45.46485" lon="6.09523">
        <ele>798.1</ele>
        <time>2013-04-23T09:38:54Z</time>
      </trkpt>
      <trkpt lat="45.46494" lon="6.09524">
        <ele>798.4</ele>
        <time>2013-04-23T09:39:01Z</time>
      </trkpt>
      <trkpt lat="45.46502" lon="6.09524">
        <ele>798.3</ele>
        <time>2013-04-23T09:39:10Z</time>
      </trkpt>
      <trkpt lat="45.46511" lon="6.09526">
        <ele>799.3</ele>
        <time>2013-04-23T09:39:42Z</time>
      </trkpt>
      <trkpt lat="45.46512" lon="6.09526">
        <ele>799.3</ele>
        <time>2013-04-23T09:39:43Z</time>
      </trkpt>
      <trkpt lat="45.46527" lon="6.09533">
        <ele>800.9</ele>
        <time>2013-04-23T09:39:59Z</time>
      </trkpt>
      <trkpt lat="45.46535" lon="6.09537">
        <ele>800.6</ele>
        <time>2013-04-23T09:40:07Z</time>
      </trkpt>
      <trkpt lat="45.46543" lon="6.09543">
        <ele>800.7</ele>
        <time>2013-04-23T09:40:15Z</time>
      </trkpt>
      <trkpt lat="45.4655" lon="6.09547">
        <ele>801.2</ele>
        <time>2013-04-23T09:40:21Z</time>
      </trkpt>
      <trkpt lat="45.46559" lon="6.0955">
        <ele>801.2</ele>
        <time>2013-04-23T09:40:30Z</time>
      </trkpt>
      <trkpt lat="45.46567" lon="6.09552">
        <ele>801.8</ele>
        <time>2013-04-23T09:40:39Z</time>
      </trkpt>
      <trkpt lat="45.46574" lon="6.09558">
        <ele>802.3</ele>
        <time>2013-04-23T09:40:47Z</time>
      </trkpt>
      <trkpt lat="45.46575" lon="6.09559">
        <ele>802.4</ele>
        <time>2013-04-23T09:40:48Z</time>
      </trkpt>
      <trkpt lat="45.46588" lon="6.09572">
        <ele>801.7</ele>
        <time>2013-04-23T09:41:03Z</time>
      </trkpt>
      <trkpt lat="45.46594" lon="6.09579">
        <ele>801.5</ele>
        <time>2013-04-23T09:41:10Z</time>
      </trkpt>
      <trkpt lat="45.46601" lon="6.09588">
        <ele>801.1</ele>
        <time>2013-04-23T09:41:18Z</time>
      </trkpt>
      <trkpt lat="45.46607" lon="6.09595">
        <ele>801.8</ele>
        <time>2013-04-23T09:41:24Z</time>
      </trkpt>
      <trkpt lat="45.46612" lon="6.09605">
        <ele>801.7</ele>
        <time>2013-04-23T09:41:31Z</time>
      </trkpt>
      <trkpt lat="45.46617" lon="6.09614">
        <ele>801.9</ele>
        <time>2013-04-23T09:41:38Z</time>
      </trkpt>
      <trkpt lat="45.46623" lon="6.09622">
        <ele>801.7</ele>
        <time>2013-04-23T09:41:46Z</time>
      </trkpt>
      <trkpt lat="45.4663" lon="6.09628">
        <ele>801.6</ele>
        <time>2013-04-23T09:41:54Z</time>
      </trkpt>
      <trkpt lat="45.46631" lon="6.09628">
        <ele>801.9</ele>
        <time>2013-04-23T09:41:55Z</time>
      </trkpt>
      <trkpt lat="45.46646" lon="6.09635">
        <ele>801.9</ele>
        <time>2013-04-23T09:42:10Z</time>
      </trkpt>
      <trkpt lat="45.46654" lon="6.09637">
        <ele>801.8</ele>
        <time>2013-04-23T09:42:17Z</time>
      </trkpt>
      <trkpt lat="45.46661" lon="6.09641">
        <ele>802.1</ele>
        <time>2013-04-23T09:42:24Z</time>
      </trkpt>
      <trkpt lat="45.46669" lon="6.09643">
        <ele>802.5</ele>
        <time>2013-04-23T09:42:31Z</time>
      </trkpt>
      <trkpt lat="45.46678" lon="6.09642">
        <ele>802.1</ele>
        <time>2013-04-23T09:42:39Z</time>
      </trkpt>
      <trkpt lat="45.46686" lon="6.09647">
        <ele>803.1</ele>
        <time>2013-04-23T09:42:47Z</time>
      </trkpt>
      <trkpt lat="45.46693" lon="6.09652">
        <ele>802.5</ele>
        <time>2013-04-23T09:42:55Z</time>
      </trkpt>
      <trkpt lat="45.467" lon="6.09659">
        <ele>803.2</ele>
        <time>2013-04-23T09:43:01Z</time>
      </trkpt>
      <trkpt lat="45.46702" lon="6.0966">
        <ele>803.2</ele>
        <time>2013-04-23T09:43:02Z</time>
      </trkpt>
      <trkpt lat="45.46712" lon="6.09675">
        <ele>801.1</ele>
        <time>2013-04-23T09:43:14Z</time>
      </trkpt>
      <trkpt lat="45.46719" lon="6.09682">
        <ele>800.5</ele>
        <time>2013-04-23T09:43:21Z</time>
      </trkpt>
      <trkpt lat="45.46725" lon="6.09689">
        <ele>799.6</ele>
        <time>2013-04-23T09:43:27Z</time>
      </trkpt>
      <trkpt lat="45.46732" lon="6.09695">
        <ele>799.9</ele>
        <time>2013-04-23T09:43:36Z</time>
      </trkpt>
      <trkpt lat="45.46738" lon="6.09704">
        <ele>799.2</ele>
        <time>2013-04-23T09:43:45Z</time>
      </trkpt>
      <trkpt lat="45.46743" lon="6.09713">
        <ele>797.3</ele>
        <time>2013-04-23T09:43:53Z</time>
      </trkpt>
      <trkpt lat="45.46747" lon="6.09724">
        <ele>797.2</ele>
        <time>2013-04-23T09:44:01Z</time>
      </trkpt>
      <trkpt lat="45.46752" lon="6.09734">
        <ele>795.9</ele>
        <time>2013-04-23T09:44:10Z</time>
      </trkpt>
      <trkpt lat="45.46753" lon="6.09734">
        <ele>795.6</ele>
        <time>2013-04-23T09:44:11Z</time>
      </trkpt>
      <trkpt lat="45.46766" lon="6.09748">
        <ele>793.8</ele>
        <time>2013-04-23T09:44:26Z</time>
      </trkpt>
      <trkpt lat="45.46773" lon="6.09755">
        <ele>793</ele>
        <time>2013-04-23T09:44:35Z</time>
      </trkpt>
      <trkpt lat="45.4678" lon="6.09761">
        <ele>790.9</ele>
        <time>2013-04-23T09:44:44Z</time>
      </trkpt>
      <trkpt lat="45.46787" lon="6.09767">
        <ele>790.2</ele>
        <time>2013-04-23T09:44:53Z</time>
      </trkpt>
      <trkpt lat="45.46795" lon="6.09773">
        <ele>789.6</ele>
        <time>2013-04-23T09:45:00Z</time>
      </trkpt>
      <trkpt lat="45.46802" lon="6.09779">
        <ele>788.8</ele>
        <time>2013-04-23T09:45:07Z</time>
      </trkpt>
      <trkpt lat="45.46809" lon="6.09786">
        <ele>789.1</ele>
        <time>2013-04-23T09:45:15Z</time>
      </trkpt>
      <trkpt lat="45.4681" lon="6.09787">
        <ele>789.4</ele>
        <time>2013-04-23T09:45:16Z</time>
      </trkpt>
      <trkpt lat="45.46825" lon="6.09799">
        <ele>786.6</ele>
        <time>2013-04-23T09:45:34Z</time>
      </trkpt>
      <trkpt lat="45.4683" lon="6.09809">
        <ele>787.4</ele>
        <time>2013-04-23T09:45:43Z</time>
      </trkpt>
      <trkpt lat="45.46836" lon="6.09817">
        <ele>786.2</ele>
        <time>2013-04-23T09:45:53Z</time>
      </trkpt>
      <trkpt lat="45.46843" lon="6.09824">
        <ele>786.8</ele>
        <time>2013-04-23T09:46:04Z</time>
      </trkpt>
      <trkpt lat="45.4685" lon="6.09831">
        <ele>787</ele>
        <time>2013-04-23T09:46:18Z</time>
      </trkpt>
      <trkpt lat="45.4685" lon="6.09832">
        <ele>786.9</ele>
        <time>2013-04-23T09:46:19Z</time>
      </trkpt>
      <trkpt lat="45.46864" lon="6.09845">
        <ele>786.1</ele>
        <time>2013-04-23T09:46:41Z</time>
      </trkpt>
      <trkpt lat="45.46872" lon="6.0985">
        <ele>785.3</ele>
        <time>2013-04-23T09:46:49Z</time>
      </trkpt>
      <trkpt lat="45.46879" lon="6.09855">
        <ele>784.9</ele>
        <time>2013-04-23T09:46:56Z</time>
      </trkpt>
      <trkpt lat="45.46883" lon="6.09865">
        <ele>783.6</ele>
        <time>2013-04-23T09:47:05Z</time>
      </trkpt>
      <trkpt lat="45.46888" lon="6.09875">
        <ele>782.8</ele>
        <time>2013-04-23T09:47:13Z</time>
      </trkpt>
      <trkpt lat="45.46893" lon="6.09885">
        <ele>781.6</ele>
        <time>2013-04-23T09:47:20Z</time>
      </trkpt>
      <trkpt lat="45.46894" lon="6.09886">
        <ele>781.3</ele>
        <time>2013-04-23T09:47:21Z</time>
      </trkpt>
      <trkpt lat="45.46906" lon="6.09902">
        <ele>779.8</ele>
        <time>2013-04-23T09:47:34Z</time>
      </trkpt>
      <trkpt lat="45.46912" lon="6.0991">
        <ele>779.5</ele>
        <time>2013-04-23T09:47:41Z</time>
      </trkpt>
      <trkpt lat="45.46919" lon="6.09919">
        <ele>779</ele>
        <time>2013-04-23T09:47:50Z</time>
      </trkpt>
      <trkpt lat="45.46925" lon="6.09927">
        <ele>778.6</ele>
        <time>2013-04-23T09:47:58Z</time>
      </trkpt>
      <trkpt lat="45.46932" lon="6.09929">
        <ele>778.1</ele>
        <time>2013-04-23T09:48:04Z</time>
      </trkpt>
      <trkpt lat="45.4694" lon="6.0993">
        <ele>777.3</ele>
        <time>2013-04-23T09:48:09Z</time>
      </trkpt>
      <trkpt lat="45.46949" lon="6.09931">
        <ele>776.7</ele>
        <time>2013-04-23T09:48:15Z</time>
      </trkpt>
      <trkpt lat="45.46957" lon="6.09935">
        <ele>776.9</ele>
        <time>2013-04-23T09:48:21Z</time>
      </trkpt>
      <trkpt lat="45.46965" lon="6.09939">
        <ele>776.3</ele>
        <time>2013-04-23T09:48:27Z</time>
      </trkpt>
      <trkpt lat="45.46966" lon="6.0994">
        <ele>776.2</ele>
        <time>2013-04-23T09:48:28Z</time>
      </trkpt>
      <trkpt lat="45.46978" lon="6.09954">
        <ele>777.2</ele>
        <time>2013-04-23T09:48:43Z</time>
      </trkpt>
      <trkpt lat="45.46982" lon="6.09965">
        <ele>777.4</ele>
        <time>2013-04-23T09:48:52Z</time>
      </trkpt>
      <trkpt lat="45.46987" lon="6.09975">
        <ele>777.8</ele>
        <time>2013-04-23T09:49:02Z</time>
      </trkpt>
      <trkpt lat="45.46993" lon="6.09983">
        <ele>777.1</ele>
        <time>2013-04-23T09:49:10Z</time>
      </trkpt>
      <trkpt lat="45.46999" lon="6.09989">
        <ele>776.8</ele>
        <time>2013-04-23T09:49:18Z</time>
      </trkpt>
      <trkpt lat="45.47006" lon="6.09996">
        <ele>776.5</ele>
        <time>2013-04-23T09:49:25Z</time>
      </trkpt>
      <trkpt lat="45.47013" lon="6.10001">
        <ele>776.5</ele>
        <time>2013-04-23T09:49:31Z</time>
      </trkpt>
      <trkpt lat="45.47015" lon="6.10002">
        <ele>776.5</ele>
        <time>2013-04-23T09:49:32Z</time>
      </trkpt>
      <trkpt lat="45.47028" lon="6.10013">
        <ele>776.2</ele>
        <time>2013-04-23T09:49:45Z</time>
      </trkpt>
      <trkpt lat="45.47034" lon="6.10021">
        <ele>775.9</ele>
        <time>2013-04-23T09:49:52Z</time>
      </trkpt>
      <trkpt lat="45.47041" lon="6.10026">
        <ele>775.9</ele>
        <time>2013-04-23T09:50:00Z</time>
      </trkpt>
      <trkpt lat="45.47049" lon="6.10032">
        <ele>776.5</ele>
        <time>2013-04-23T09:50:11Z</time>
      </trkpt>
      <trkpt lat="45.47057" lon="6.10037">
        <ele>776.1</ele>
        <time>2013-04-23T09:50:20Z</time>
      </trkpt>
      <trkpt lat="45.47062" lon="6.10046">
        <ele>775.8</ele>
        <time>2013-04-23T09:50:28Z</time>
      </trkpt>
      <trkpt lat="45.47067" lon="6.10055">
        <ele>776</ele>
        <time>2013-04-23T09:50:36Z</time>
      </trkpt>
      <trkpt lat="45.47068" lon="6.10057">
        <ele>776.1</ele>
        <time>2013-04-23T09:50:37Z</time>
      </trkpt>
      <trkpt lat="45.47079" lon="6.10074">
        <ele>775.8</ele>
        <time>2013-04-23T09:50:54Z</time>
      </trkpt>
      <trkpt lat="45.47086" lon="6.10082">
        <ele>775.5</ele>
        <time>2013-04-23T09:51:02Z</time>
      </trkpt>
      <trkpt lat="45.47092" lon="6.1009">
        <ele>776.2</ele>
        <time>2013-04-23T09:51:09Z</time>
      </trkpt>
      <trkpt lat="45.47098" lon="6.10099">
        <ele>775.9</ele>
        <time>2013-04-23T09:51:17Z</time>
      </trkpt>
      <trkpt lat="45.47103" lon="6.10109">
        <ele>775.4</ele>
        <time>2013-04-23T09:51:46Z</time>
      </trkpt>
      <trkpt lat="45.47104" lon="6.10109">
        <ele>775.6</ele>
        <time>2013-04-23T09:51:47Z</time>
      </trkpt>
      <trkpt lat="45.4712" lon="6.10115">
        <ele>776.7</ele>
        <time>2013-04-23T09:52:27Z</time>
      </trkpt>
      <trkpt lat="45.47127" lon="6.10119">
        <ele>776.1</ele>
        <time>2013-04-23T09:52:34Z</time>
      </trkpt>
      <trkpt lat="45.47134" lon="6.10127">
        <ele>775.9</ele>
        <time>2013-04-23T09:52:41Z</time>
      </trkpt>
      <trkpt lat="45.47141" lon="6.10135">
        <ele>775.3</ele>
        <time>2013-04-23T09:52:48Z</time>
      </trkpt>
      <trkpt lat="45.47142" lon="6.10136">
        <ele>775.5</ele>
        <time>2013-04-23T09:52:49Z</time>
      </trkpt>
      <trkpt lat="45.47153" lon="6.10151">
        <ele>773.7</ele>
        <time>2013-04-23T09:53:02Z</time>
      </trkpt>
      <trkpt lat="45.47161" lon="6.10158">
        <ele>772.7</ele>
        <time>2013-04-23T09:53:15Z</time>
      </trkpt>
      <trkpt lat="45.47168" lon="6.10166">
        <ele>771.5</ele>
        <time>2013-04-23T09:53:32Z</time>
      </trkpt>
      <trkpt lat="45.47173" lon="6.10174">
        <ele>771</ele>
        <time>2013-04-23T09:53:40Z</time>
      </trkpt>
      <trkpt lat="45.47181" lon="6.10178">
        <ele>771.3</ele>
        <time>2013-04-23T09:53:46Z</time>
      </trkpt>
      <trkpt lat="45.47188" lon="6.10185">
        <ele>770.7</ele>
        <time>2013-04-23T09:53:53Z</time>
      </trkpt>
      <trkpt lat="45.47189" lon="6.10186">
        <ele>770.7</ele>
        <time>2013-04-23T09:53:54Z</time>
      </trkpt>
      <trkpt lat="45.47203" lon="6.10198">
        <ele>770.1</ele>
        <time>2013-04-23T09:54:12Z</time>
      </trkpt>
      <trkpt lat="45.4721" lon="6.10204">
        <ele>769.2</ele>
        <time>2013-04-23T09:54:19Z</time>
      </trkpt>
      <trkpt lat="45.47218" lon="6.1021">
        <ele>769.4</ele>
        <time>2013-04-23T09:54:26Z</time>
      </trkpt>
      <trkpt lat="45.47225" lon="6.10215">
        <ele>769</ele>
        <time>2013-04-23T09:54:32Z</time>
      </trkpt>
      <trkpt lat="45.47231" lon="6.10222">
        <ele>768.6</ele>
        <time>2013-04-23T09:54:38Z</time>
      </trkpt>
      <trkpt lat="45.47237" lon="6.1023">
        <ele>768.9</ele>
        <time>2013-04-23T09:54:44Z</time>
      </trkpt>
      <trkpt lat="45.47243" lon="6.10237">
        <ele>768.9</ele>
        <time>2013-04-23T09:54:50Z</time>
      </trkpt>
      <trkpt lat="45.47247" lon="6.10247">
        <ele>767.9</ele>
        <time>2013-04-23T09:54:56Z</time>
      </trkpt>
      <trkpt lat="45.47248" lon="6.10249">
        <ele>767.9</ele>
        <time>2013-04-23T09:54:57Z</time>
      </trkpt>
      <trkpt lat="45.47255" lon="6.10267">
        <ele>768.2</ele>
        <time>2013-04-23T09:55:07Z</time>
      </trkpt>
      <trkpt lat="45.47261" lon="6.10275">
        <ele>767.8</ele>
        <time>2013-04-23T09:55:13Z</time>
      </trkpt>
      <trkpt lat="45.47267" lon="6.10284">
        <ele>767.1</ele>
        <time>2013-04-23T09:55:20Z</time>
      </trkpt>
      <trkpt lat="45.47274" lon="6.10291">
        <ele>767.1</ele>
        <time>2013-04-23T09:55:27Z</time>
      </trkpt>
      <trkpt lat="45.4728" lon="6.10298">
        <ele>766.8</ele>
        <time>2013-04-23T09:55:37Z</time>
      </trkpt>
      <trkpt lat="45.47286" lon="6.10307">
        <ele>766.7</ele>
        <time>2013-04-23T09:55:47Z</time>
      </trkpt>
      <trkpt lat="45.47294" lon="6.10315">
        <ele>766.1</ele>
        <time>2013-04-23T09:55:55Z</time>
      </trkpt>
      <trkpt lat="45.473" lon="6.1032">
        <ele>766.2</ele>
        <time>2013-04-23T09:56:02Z</time>
      </trkpt>
      <trkpt lat="45.47301" lon="6.10322">
        <ele>766</ele>
        <time>2013-04-23T09:56:03Z</time>
      </trkpt>
      <trkpt lat="45.47313" lon="6.10337">
        <ele>767</ele>
        <time>2013-04-23T09:56:18Z</time>
      </trkpt>
      <trkpt lat="45.4732" lon="6.10342">
        <ele>766.7</ele>
        <time>2013-04-23T09:56:25Z</time>
      </trkpt>
      <trkpt lat="45.47327" lon="6.1035">
        <ele>767.5</ele>
        <time>2013-04-23T09:56:33Z</time>
      </trkpt>
      <trkpt lat="45.47334" lon="6.10359">
        <ele>767.3</ele>
        <time>2013-04-23T09:56:40Z</time>
      </trkpt>
      <trkpt lat="45.4734" lon="6.10367">
        <ele>767.5</ele>
        <time>2013-04-23T09:56:48Z</time>
      </trkpt>
      <trkpt lat="45.47346" lon="6.10375">
        <ele>768.7</ele>
        <time>2013-04-23T09:56:56Z</time>
      </trkpt>
      <trkpt lat="45.47351" lon="6.10384">
        <ele>768.9</ele>
        <time>2013-04-23T09:57:07Z</time>
      </trkpt>
      <trkpt lat="45.47352" lon="6.10385">
        <ele>768.9</ele>
        <time>2013-04-23T09:57:08Z</time>
      </trkpt>
      <trkpt lat="45.47364" lon="6.10401">
        <ele>769.4</ele>
        <time>2013-04-23T09:57:25Z</time>
      </trkpt>
      <trkpt lat="45.47369" lon="6.10409">
        <ele>769.7</ele>
        <time>2013-04-23T09:57:32Z</time>
      </trkpt>
      <trkpt lat="45.47376" lon="6.10416">
        <ele>769.9</ele>
        <time>2013-04-23T09:57:38Z</time>
      </trkpt>
      <trkpt lat="45.47381" lon="6.10427">
        <ele>770.2</ele>
        <time>2013-04-23T09:57:45Z</time>
      </trkpt>
      <trkpt lat="45.47386" lon="6.10436">
        <ele>770.7</ele>
        <time>2013-04-23T09:57:51Z</time>
      </trkpt>
      <trkpt lat="45.4739" lon="6.10446">
        <ele>771.7</ele>
        <time>2013-04-23T09:57:58Z</time>
      </trkpt>
      <trkpt lat="45.47395" lon="6.10455">
        <ele>772.1</ele>
        <time>2013-04-23T09:58:05Z</time>
      </trkpt>
      <trkpt lat="45.47402" lon="6.10461">
        <ele>773.2</ele>
        <time>2013-04-23T09:58:12Z</time>
      </trkpt>
      <trkpt lat="45.47404" lon="6.10462">
        <ele>773</ele>
        <time>2013-04-23T09:58:13Z</time>
      </trkpt>
      <trkpt lat="45.47417" lon="6.10468">
        <ele>773.1</ele>
        <time>2013-04-23T09:58:22Z</time>
      </trkpt>
      <trkpt lat="45.47425" lon="6.10474">
        <ele>773.1</ele>
        <time>2013-04-23T09:58:29Z</time>
      </trkpt>
      <trkpt lat="45.47431" lon="6.10483">
        <ele>772.9</ele>
        <time>2013-04-23T09:58:37Z</time>
      </trkpt>
      <trkpt lat="45.47437" lon="6.10491">
        <ele>772.1</ele>
        <time>2013-04-23T09:58:44Z</time>
      </trkpt>
      <trkpt lat="45.47444" lon="6.10496">
        <ele>772.5</ele>
        <time>2013-04-23T09:58:51Z</time>
      </trkpt>
      <trkpt lat="45.47453" lon="6.105">
        <ele>772</ele>
        <time>2013-04-23T09:59:15Z</time>
      </trkpt>
      <trkpt lat="45.47453" lon="6.105">
        <ele>771.9</ele>
        <time>2013-04-23T09:59:16Z</time>
      </trkpt>
      <trkpt lat="45.47466" lon="6.10514">
        <ele>772.7</ele>
        <time>2013-04-23T10:00:14Z</time>
      </trkpt>
      <trkpt lat="45.47474" lon="6.10519">
        <ele>772.7</ele>
        <time>2013-04-23T10:00:20Z</time>
      </trkpt>
      <trkpt lat="45.47475" lon="6.1052">
        <ele>772.8</ele>
        <time>2013-04-23T10:00:21Z</time>
      </trkpt>
      <trkpt lat="45.47488" lon="6.10532">
        <ele>774.1</ele>
        <time>2013-04-23T10:00:34Z</time>
      </trkpt>
      <trkpt lat="45.47496" lon="6.10536">
        <ele>773.4</ele>
        <time>2013-04-23T10:00:41Z</time>
      </trkpt>
      <trkpt lat="45.47504" lon="6.10542">
        <ele>773.9</ele>
        <time>2013-04-23T10:00:48Z</time>
      </trkpt>
      <trkpt lat="45.4751" lon="6.10549">
        <ele>773.4</ele>
        <time>2013-04-23T10:00:54Z</time>
      </trkpt>
      <trkpt lat="45.47515" lon="6.1056">
        <ele>773.6</ele>
        <time>2013-04-23T10:01:01Z</time>
      </trkpt>
      <trkpt lat="45.4752" lon="6.10568">
        <ele>773.6</ele>
        <time>2013-04-23T10:01:07Z</time>
      </trkpt>
      <trkpt lat="45.47525" lon="6.10578">
        <ele>773.4</ele>
        <time>2013-04-23T10:01:14Z</time>
      </trkpt>
      <trkpt lat="45.47531" lon="6.10585">
        <ele>772.6</ele>
        <time>2013-04-23T10:01:21Z</time>
      </trkpt>
      <trkpt lat="45.47532" lon="6.10586">
        <ele>772.6</ele>
        <time>2013-04-23T10:01:22Z</time>
      </trkpt>
      <trkpt lat="45.47544" lon="6.106">
        <ele>773.2</ele>
        <time>2013-04-23T10:01:37Z</time>
      </trkpt>
      <trkpt lat="45.47552" lon="6.10602">
        <ele>773.9</ele>
        <time>2013-04-23T10:01:47Z</time>
      </trkpt>
      <trkpt lat="45.47559" lon="6.10611">
        <ele>773.9</ele>
        <time>2013-04-23T10:01:53Z</time>
      </trkpt>
      <trkpt lat="45.47565" lon="6.10618">
        <ele>773.5</ele>
        <time>2013-04-23T10:01:59Z</time>
      </trkpt>
      <trkpt lat="45.47571" lon="6.10628">
        <ele>773.9</ele>
        <time>2013-04-23T10:02:07Z</time>
      </trkpt>
      <trkpt lat="45.47578" lon="6.10634">
        <ele>774.3</ele>
        <time>2013-04-23T10:02:13Z</time>
      </trkpt>
      <trkpt lat="45.47585" lon="6.10638">
        <ele>774.2</ele>
        <time>2013-04-23T10:02:18Z</time>
      </trkpt>
      <trkpt lat="45.47592" lon="6.10642">
        <ele>773.6</ele>
        <time>2013-04-23T10:02:23Z</time>
      </trkpt>
      <trkpt lat="45.47594" lon="6.10643">
        <ele>773.6</ele>
        <time>2013-04-23T10:02:24Z</time>
      </trkpt>
      <trkpt lat="45.47607" lon="6.1065">
        <ele>772.6</ele>
        <time>2013-04-23T10:02:34Z</time>
      </trkpt>
      <trkpt lat="45.47616" lon="6.10652">
        <ele>772.9</ele>
        <time>2013-04-23T10:02:39Z</time>
      </trkpt>
      <trkpt lat="45.47624" lon="6.10656">
        <ele>774.4</ele>
        <time>2013-04-23T10:02:46Z</time>
      </trkpt>
      <trkpt lat="45.47632" lon="6.10661">
        <ele>775.9</ele>
        <time>2013-04-23T10:02:54Z</time>
      </trkpt>
      <trkpt lat="45.47641" lon="6.10664">
        <ele>778.5</ele>
        <time>2013-04-23T10:03:04Z</time>
      </trkpt>
      <trkpt lat="45.47649" lon="6.10667">
        <ele>779.9</ele>
        <time>2013-04-23T10:03:15Z</time>
      </trkpt>
      <trkpt lat="45.47655" lon="6.10675">
        <ele>780.7</ele>
        <time>2013-04-23T10:03:24Z</time>
      </trkpt>
      <trkpt lat="45.47656" lon="6.10676">
        <ele>780.9</ele>
        <time>2013-04-23T10:03:25Z</time>
      </trkpt>
      <trkpt lat="45.47667" lon="6.10692">
        <ele>781.8</ele>
        <time>2013-04-23T10:03:39Z</time>
      </trkpt>
      <trkpt lat="45.47673" lon="6.107">
        <ele>781.8</ele>
        <time>2013-04-23T10:03:46Z</time>
      </trkpt>
      <trkpt lat="45.4768" lon="6.10708">
        <ele>781.1</ele>
        <time>2013-04-23T10:03:53Z</time>
      </trkpt>
      <trkpt lat="45.47686" lon="6.10716">
        <ele>780.7</ele>
        <time>2013-04-23T10:03:59Z</time>
      </trkpt>
      <trkpt lat="45.47693" lon="6.10724">
        <ele>780</ele>
        <time>2013-04-23T10:04:07Z</time>
      </trkpt>
      <trkpt lat="45.47699" lon="6.1073">
        <ele>779.7</ele>
        <time>2013-04-23T10:04:15Z</time>
      </trkpt>
      <trkpt lat="45.47707" lon="6.10737">
        <ele>778.7</ele>
        <time>2013-04-23T10:04:23Z</time>
      </trkpt>
      <trkpt lat="45.47713" lon="6.10746">
        <ele>776.6</ele>
        <time>2013-04-23T10:04:36Z</time>
      </trkpt>
      <trkpt lat="45.47713" lon="6.10747">
        <ele>776.8</ele>
        <time>2013-04-23T10:04:37Z</time>
      </trkpt>
      <trkpt lat="45.47728" lon="6.10757">
        <ele>776.3</ele>
        <time>2013-04-23T10:04:51Z</time>
      </trkpt>
      <trkpt lat="45.47735" lon="6.10763">
        <ele>777</ele>
        <time>2013-04-23T10:05:00Z</time>
      </trkpt>
      <trkpt lat="45.47744" lon="6.10765">
        <ele>776.9</ele>
        <time>2013-04-23T10:05:06Z</time>
      </trkpt>
      <trkpt lat="45.47752" lon="6.10767">
        <ele>778.7</ele>
        <time>2013-04-23T10:05:20Z</time>
      </trkpt>
      <trkpt lat="45.47761" lon="6.10764">
        <ele>779.5</ele>
        <time>2013-04-23T10:05:28Z</time>
      </trkpt>
      <trkpt lat="45.4777" lon="6.10763">
        <ele>780.2</ele>
        <time>2013-04-23T10:05:36Z</time>
      </trkpt>
      <trkpt lat="45.47777" lon="6.10767">
        <ele>781.7</ele>
        <time>2013-04-23T10:05:50Z</time>
      </trkpt>
      <trkpt lat="45.47778" lon="6.10768">
        <ele>781.7</ele>
        <time>2013-04-23T10:05:51Z</time>
      </trkpt>
      <trkpt lat="45.47788" lon="6.10785">
        <ele>784</ele>
        <time>2013-04-23T10:06:14Z</time>
      </trkpt>
      <trkpt lat="45.47795" lon="6.10793">
        <ele>784.7</ele>
        <time>2013-04-23T10:06:23Z</time>
      </trkpt>
      <trkpt lat="45.47802" lon="6.10801">
        <ele>786.2</ele>
        <time>2013-04-23T10:06:33Z</time>
      </trkpt>
      <trkpt lat="45.47808" lon="6.1081">
        <ele>787</ele>
        <time>2013-04-23T10:06:42Z</time>
      </trkpt>
      <trkpt lat="45.47812" lon="6.1082">
        <ele>789.8</ele>
        <time>2013-04-23T10:06:51Z</time>
      </trkpt>
      <trkpt lat="45.47818" lon="6.1083">
        <ele>790.4</ele>
        <time>2013-04-23T10:07:01Z</time>
      </trkpt>
      <trkpt lat="45.47818" lon="6.10831">
        <ele>790.8</ele>
        <time>2013-04-23T10:07:02Z</time>
      </trkpt>
      <trkpt lat="45.47833" lon="6.10839">
        <ele>794.5</ele>
        <time>2013-04-23T10:07:26Z</time>
      </trkpt>
      <trkpt lat="45.47842" lon="6.1084">
        <ele>797.1</ele>
        <time>2013-04-23T10:07:39Z</time>
      </trkpt>
      <trkpt lat="45.4785" lon="6.10843">
        <ele>798.1</ele>
        <time>2013-04-23T10:07:51Z</time>
      </trkpt>
      <trkpt lat="45.47857" lon="6.1085">
        <ele>800.6</ele>
        <time>2013-04-23T10:08:06Z</time>
      </trkpt>
      <trkpt lat="45.47858" lon="6.1085">
        <ele>800.8</ele>
        <time>2013-04-23T10:08:07Z</time>
      </trkpt>
      <trkpt lat="45.4787" lon="6.10867">
        <ele>805.1</ele>
        <time>2013-04-23T10:08:31Z</time>
      </trkpt>
      <trkpt lat="45.47874" lon="6.10877">
        <ele>807.2</ele>
        <time>2013-04-23T10:08:41Z</time>
      </trkpt>
      <trkpt lat="45.47879" lon="6.10886">
        <ele>808.2</ele>
        <time>2013-04-23T10:08:49Z</time>
      </trkpt>
      <trkpt lat="45.47883" lon="6.10896">
        <ele>809.2</ele>
        <time>2013-04-23T10:08:57Z</time>
      </trkpt>
      <trkpt lat="45.47888" lon="6.10905">
        <ele>809.6</ele>
        <time>2013-04-23T10:09:03Z</time>
      </trkpt>
      <trkpt lat="45.47894" lon="6.10912">
        <ele>810.5</ele>
        <time>2013-04-23T10:09:10Z</time>
      </trkpt>
      <trkpt lat="45.47895" lon="6.10913">
        <ele>810.8</ele>
        <time>2013-04-23T10:09:11Z</time>
      </trkpt>
      <trkpt lat="45.47904" lon="6.10933">
        <ele>812.7</ele>
        <time>2013-04-23T10:09:26Z</time>
      </trkpt>
      <trkpt lat="45.47908" lon="6.10942">
        <ele>814</ele>
        <time>2013-04-23T10:09:34Z</time>
      </trkpt>
      <trkpt lat="45.47915" lon="6.10948">
        <ele>814.4</ele>
        <time>2013-04-23T10:09:39Z</time>
      </trkpt>
      <trkpt lat="45.47922" lon="6.10953">
        <ele>815.1</ele>
        <time>2013-04-23T10:09:44Z</time>
      </trkpt>
      <trkpt lat="45.47929" lon="6.10959">
        <ele>816.9</ele>
        <time>2013-04-23T10:09:51Z</time>
      </trkpt>
      <trkpt lat="45.47936" lon="6.10965">
        <ele>817.9</ele>
        <time>2013-04-23T10:09:58Z</time>
      </trkpt>
      <trkpt lat="45.47943" lon="6.10973">
        <ele>818.7</ele>
        <time>2013-04-23T10:10:04Z</time>
      </trkpt>
      <trkpt lat="45.47947" lon="6.10982">
        <ele>819.5</ele>
        <time>2013-04-23T10:10:12Z</time>
      </trkpt>
      <trkpt lat="45.47948" lon="6.10983">
        <ele>819.4</ele>
        <time>2013-04-23T10:10:13Z</time>
      </trkpt>
      <trkpt lat="45.47959" lon="6.10999">
        <ele>820.3</ele>
        <time>2013-04-23T10:10:26Z</time>
      </trkpt>
      <trkpt lat="45.47964" lon="6.11009">
        <ele>821</ele>
        <time>2013-04-23T10:10:33Z</time>
      </trkpt>
      <trkpt lat="45.47969" lon="6.11017">
        <ele>821.1</ele>
        <time>2013-04-23T10:10:39Z</time>
      </trkpt>
      <trkpt lat="45.47975" lon="6.11024">
        <ele>821.5</ele>
        <time>2013-04-23T10:10:44Z</time>
      </trkpt>
      <trkpt lat="45.47982" lon="6.11031">
        <ele>821</ele>
        <time>2013-04-23T10:10:51Z</time>
      </trkpt>
      <trkpt lat="45.47988" lon="6.1104">
        <ele>821.8</ele>
        <time>2013-04-23T10:10:57Z</time>
      </trkpt>
      <trkpt lat="45.47993" lon="6.11049">
        <ele>822.1</ele>
        <time>2013-04-23T10:11:03Z</time>
      </trkpt>
      <trkpt lat="45.47998" lon="6.11058">
        <ele>822</ele>
        <time>2013-04-23T10:11:10Z</time>
      </trkpt>
      <trkpt lat="45.48004" lon="6.11067">
        <ele>822.9</ele>
        <time>2013-04-23T10:11:18Z</time>
      </trkpt>
      <trkpt lat="45.48004" lon="6.11069">
        <ele>822.9</ele>
        <time>2013-04-23T10:11:19Z</time>
      </trkpt>
      <trkpt lat="45.48013" lon="6.11089">
        <ele>824.5</ele>
        <time>2013-04-23T10:11:37Z</time>
      </trkpt>
      <trkpt lat="45.48021" lon="6.11093">
        <ele>825.6</ele>
        <time>2013-04-23T10:11:49Z</time>
      </trkpt>
      <trkpt lat="45.48028" lon="6.11102">
        <ele>824.7</ele>
        <time>2013-04-23T10:12:01Z</time>
      </trkpt>
      <trkpt lat="45.48034" lon="6.1111">
        <ele>825.5</ele>
        <time>2013-04-23T10:12:10Z</time>
      </trkpt>
      <trkpt lat="45.48039" lon="6.1112">
        <ele>824.9</ele>
        <time>2013-04-23T10:12:19Z</time>
      </trkpt>
      <trkpt lat="45.48044" lon="6.1113">
        <ele>823.7</ele>
        <time>2013-04-23T10:12:29Z</time>
      </trkpt>
      <trkpt lat="45.48044" lon="6.11131">
        <ele>823.6</ele>
        <time>2013-04-23T10:12:30Z</time>
      </trkpt>
      <trkpt lat="45.48056" lon="6.11143">
        <ele>822.9</ele>
        <time>2013-04-23T10:13:05Z</time>
      </trkpt>
      <trkpt lat="45.48065" lon="6.11145">
        <ele>822.9</ele>
        <time>2013-04-23T10:13:43Z</time>
      </trkpt>
      <trkpt lat="45.48065" lon="6.11146">
        <ele>823.1</ele>
        <time>2013-04-23T10:13:44Z</time>
      </trkpt>
      <trkpt lat="45.48072" lon="6.11166">
        <ele>822.6</ele>
        <time>2013-04-23T10:14:04Z</time>
      </trkpt>
      <trkpt lat="45.48079" lon="6.11174">
        <ele>822.5</ele>
        <time>2013-04-23T10:14:14Z</time>
      </trkpt>
      <trkpt lat="45.48086" lon="6.11181">
        <ele>822</ele>
        <time>2013-04-23T10:14:21Z</time>
      </trkpt>
      <trkpt lat="45.48092" lon="6.11189">
        <ele>821.3</ele>
        <time>2013-04-23T10:14:31Z</time>
      </trkpt>
      <trkpt lat="45.48097" lon="6.112">
        <ele>821.8</ele>
        <time>2013-04-23T10:14:40Z</time>
      </trkpt>
      <trkpt lat="45.48103" lon="6.11209">
        <ele>821.8</ele>
        <time>2013-04-23T10:14:47Z</time>
      </trkpt>
      <trkpt lat="45.48104" lon="6.1121">
        <ele>822</ele>
        <time>2013-04-23T10:14:48Z</time>
      </trkpt>
      <trkpt lat="45.48114" lon="6.11227">
        <ele>821</ele>
        <time>2013-04-23T10:15:01Z</time>
      </trkpt>
      <trkpt lat="45.48117" lon="6.11238">
        <ele>820.2</ele>
        <time>2013-04-23T10:15:11Z</time>
      </trkpt>
      <trkpt lat="45.48124" lon="6.11245">
        <ele>820.5</ele>
        <time>2013-04-23T10:15:47Z</time>
      </trkpt>
      <trkpt lat="45.4813" lon="6.11252">
        <ele>820.5</ele>
        <time>2013-04-23T10:15:54Z</time>
      </trkpt>
      <trkpt lat="45.48131" lon="6.11253">
        <ele>820.6</ele>
        <time>2013-04-23T10:15:55Z</time>
      </trkpt>
      <trkpt lat="45.48142" lon="6.11268">
        <ele>819.5</ele>
        <time>2013-04-23T10:16:08Z</time>
      </trkpt>
      <trkpt lat="45.48149" lon="6.11274">
        <ele>819.7</ele>
        <time>2013-04-23T10:16:17Z</time>
      </trkpt>
      <trkpt lat="45.48156" lon="6.11281">
        <ele>819.9</ele>
        <time>2013-04-23T10:16:27Z</time>
      </trkpt>
      <trkpt lat="45.48161" lon="6.11292">
        <ele>820.2</ele>
        <time>2013-04-23T10:16:40Z</time>
      </trkpt>
      <trkpt lat="45.48168" lon="6.11297">
        <ele>820.8</ele>
        <time>2013-04-23T10:16:47Z</time>
      </trkpt>
      <trkpt lat="45.48176" lon="6.11302">
        <ele>821.2</ele>
        <time>2013-04-23T10:16:56Z</time>
      </trkpt>
      <trkpt lat="45.48177" lon="6.11303">
        <ele>821.4</ele>
        <time>2013-04-23T10:16:57Z</time>
      </trkpt>
      <trkpt lat="45.4819" lon="6.11314">
        <ele>823</ele>
        <time>2013-04-23T10:17:12Z</time>
      </trkpt>
      <trkpt lat="45.48197" lon="6.11321">
        <ele>823.3</ele>
        <time>2013-04-23T10:17:22Z</time>
      </trkpt>
      <trkpt lat="45.48205" lon="6.11326">
        <ele>822.9</ele>
        <time>2013-04-23T10:17:30Z</time>
      </trkpt>
      <trkpt lat="45.48212" lon="6.11334">
        <ele>821.4</ele>
        <time>2013-04-23T10:17:40Z</time>
      </trkpt>
      <trkpt lat="45.4822" lon="6.11337">
        <ele>821.2</ele>
        <time>2013-04-23T10:17:45Z</time>
      </trkpt>
      <trkpt lat="45.48226" lon="6.11344">
        <ele>821.1</ele>
        <time>2013-04-23T10:17:51Z</time>
      </trkpt>
      <trkpt lat="45.48234" lon="6.11349">
        <ele>821.5</ele>
        <time>2013-04-23T10:17:57Z</time>
      </trkpt>
      <trkpt lat="45.48241" lon="6.11354">
        <ele>820.8</ele>
        <time>2013-04-23T10:18:04Z</time>
      </trkpt>
      <trkpt lat="45.48243" lon="6.11355">
        <ele>820.7</ele>
        <time>2013-04-23T10:18:05Z</time>
      </trkpt>
      <trkpt lat="45.48255" lon="6.11365">
        <ele>820.9</ele>
        <time>2013-04-23T10:18:17Z</time>
      </trkpt>
      <trkpt lat="45.48263" lon="6.1137">
        <ele>820.6</ele>
        <time>2013-04-23T10:18:25Z</time>
      </trkpt>
      <trkpt lat="45.4827" lon="6.11374">
        <ele>820.7</ele>
        <time>2013-04-23T10:18:31Z</time>
      </trkpt>
      <trkpt lat="45.48278" lon="6.11378">
        <ele>821</ele>
        <time>2013-04-23T10:18:37Z</time>
      </trkpt>
      <trkpt lat="45.48285" lon="6.11383">
        <ele>821.1</ele>
        <time>2013-04-23T10:18:45Z</time>
      </trkpt>
      <trkpt lat="45.48293" lon="6.11389">
        <ele>821.5</ele>
        <time>2013-04-23T10:18:53Z</time>
      </trkpt>
      <trkpt lat="45.48301" lon="6.11395">
        <ele>821.7</ele>
        <time>2013-04-23T10:19:00Z</time>
      </trkpt>
      <trkpt lat="45.48309" lon="6.11401">
        <ele>821.7</ele>
        <time>2013-04-23T10:19:07Z</time>
      </trkpt>
      <trkpt lat="45.4831" lon="6.11402">
        <ele>822.1</ele>
        <time>2013-04-23T10:19:08Z</time>
      </trkpt>
      <trkpt lat="45.48321" lon="6.11418">
        <ele>822.2</ele>
        <time>2013-04-23T10:19:19Z</time>
      </trkpt>
      <trkpt lat="45.48327" lon="6.11426">
        <ele>822.3</ele>
        <time>2013-04-23T10:19:26Z</time>
      </trkpt>
      <trkpt lat="45.48335" lon="6.11433">
        <ele>823</ele>
        <time>2013-04-23T10:19:33Z</time>
      </trkpt>
      <trkpt lat="45.48341" lon="6.11441">
        <ele>822.1</ele>
        <time>2013-04-23T10:19:41Z</time>
      </trkpt>
      <trkpt lat="45.48348" lon="6.11447">
        <ele>820.8</ele>
        <time>2013-04-23T10:19:47Z</time>
      </trkpt>
      <trkpt lat="45.48355" lon="6.11454">
        <ele>818.8</ele>
        <time>2013-04-23T10:19:55Z</time>
      </trkpt>
      <trkpt lat="45.48362" lon="6.1146">
        <ele>818.5</ele>
        <time>2013-04-23T10:20:01Z</time>
      </trkpt>
      <trkpt lat="45.48369" lon="6.11466">
        <ele>818.4</ele>
        <time>2013-04-23T10:20:07Z</time>
      </trkpt>
      <trkpt lat="45.48376" lon="6.11471">
        <ele>817.5</ele>
        <time>2013-04-23T10:20:13Z</time>
      </trkpt>
      <trkpt lat="45.48377" lon="6.11472">
        <ele>817.6</ele>
        <time>2013-04-23T10:20:14Z</time>
      </trkpt>
      <trkpt lat="45.48392" lon="6.1148">
        <ele>817.1</ele>
        <time>2013-04-23T10:20:25Z</time>
      </trkpt>
      <trkpt lat="45.48399" lon="6.11485">
        <ele>817.1</ele>
        <time>2013-04-23T10:20:30Z</time>
      </trkpt>
      <trkpt lat="45.48407" lon="6.1149">
        <ele>816.7</ele>
        <time>2013-04-23T10:20:36Z</time>
      </trkpt>
      <trkpt lat="45.48414" lon="6.11495">
        <ele>818.5</ele>
        <time>2013-04-23T10:20:44Z</time>
      </trkpt>
      <trkpt lat="45.48421" lon="6.11502">
        <ele>818.3</ele>
        <time>2013-04-23T10:20:51Z</time>
      </trkpt>
      <trkpt lat="45.48428" lon="6.11509">
        <ele>819.5</ele>
        <time>2013-04-23T10:21:00Z</time>
      </trkpt>
      <trkpt lat="45.48435" lon="6.11516">
        <ele>820</ele>
        <time>2013-04-23T10:21:08Z</time>
      </trkpt>
      <trkpt lat="45.48442" lon="6.11524">
        <ele>819.5</ele>
        <time>2013-04-23T10:21:17Z</time>
      </trkpt>
      <trkpt lat="45.48442" lon="6.11525">
        <ele>819.4</ele>
        <time>2013-04-23T10:21:18Z</time>
      </trkpt>
      <trkpt lat="45.48455" lon="6.11539">
        <ele>820</ele>
        <time>2013-04-23T10:21:34Z</time>
      </trkpt>
      <trkpt lat="45.48462" lon="6.11546">
        <ele>819.2</ele>
        <time>2013-04-23T10:21:41Z</time>
      </trkpt>
      <trkpt lat="45.48469" lon="6.11551">
        <ele>819</ele>
        <time>2013-04-23T10:21:47Z</time>
      </trkpt>
      <trkpt lat="45.48477" lon="6.11558">
        <ele>817.4</ele>
        <time>2013-04-23T10:21:54Z</time>
      </trkpt>
      <trkpt lat="45.4848" lon="6.1157">
        <ele>817.8</ele>
        <time>2013-04-23T10:22:05Z</time>
      </trkpt>
      <trkpt lat="45.48489" lon="6.11571">
        <ele>817.4</ele>
        <time>2013-04-23T10:22:27Z</time>
      </trkpt>
      <trkpt lat="45.48489" lon="6.1157">
        <ele>817.2</ele>
        <time>2013-04-23T10:22:28Z</time>
      </trkpt>
      <trkpt lat="45.48491" lon="6.11566">
        <ele>818.8</ele>
        <time>2013-04-23T10:24:37Z</time>
      </trkpt>
      <trkpt lat="45.4849" lon="6.11565">
        <ele>818.7</ele>
        <time>2013-04-23T10:24:38Z</time>
      </trkpt>
      <trkpt lat="45.48492" lon="6.11582">
        <ele>817.5</ele>
        <time>2013-04-23T10:31:06Z</time>
      </trkpt>
      <trkpt lat="45.48492" lon="6.11583">
        <ele>817.2</ele>
        <time>2013-04-23T10:31:07Z</time>
      </trkpt>
      <trkpt lat="45.48482" lon="6.116">
        <ele>814.5</ele>
        <time>2013-04-23T10:31:46Z</time>
      </trkpt>
      <trkpt lat="45.48482" lon="6.11612">
        <ele>813.5</ele>
        <time>2013-04-23T10:31:55Z</time>
      </trkpt>
      <trkpt lat="45.48482" lon="6.11624">
        <ele>812.7</ele>
        <time>2013-04-23T10:32:02Z</time>
      </trkpt>
      <trkpt lat="45.48485" lon="6.11635">
        <ele>812.2</ele>
        <time>2013-04-23T10:32:11Z</time>
      </trkpt>
      <trkpt lat="45.48485" lon="6.11636">
        <ele>812.1</ele>
        <time>2013-04-23T10:32:12Z</time>
      </trkpt>
      <trkpt lat="45.48488" lon="6.11659">
        <ele>810.7</ele>
        <time>2013-04-23T10:32:29Z</time>
      </trkpt>
      <trkpt lat="45.4849" lon="6.11671">
        <ele>808</ele>
        <time>2013-04-23T10:32:38Z</time>
      </trkpt>
      <trkpt lat="45.4849" lon="6.11682">
        <ele>806.6</ele>
        <time>2013-04-23T10:32:46Z</time>
      </trkpt>
      <trkpt lat="45.48494" lon="6.11692">
        <ele>806.1</ele>
        <time>2013-04-23T10:32:54Z</time>
      </trkpt>
      <trkpt lat="45.48497" lon="6.11704">
        <ele>805</ele>
        <time>2013-04-23T10:33:02Z</time>
      </trkpt>
      <trkpt lat="45.48502" lon="6.11714">
        <ele>803.8</ele>
        <time>2013-04-23T10:33:09Z</time>
      </trkpt>
      <trkpt lat="45.48509" lon="6.11722">
        <ele>802.6</ele>
        <time>2013-04-23T10:33:16Z</time>
      </trkpt>
      <trkpt lat="45.48509" lon="6.11723">
        <ele>802.4</ele>
        <time>2013-04-23T10:33:17Z</time>
      </trkpt>
      <trkpt lat="45.48518" lon="6.11742">
        <ele>801.2</ele>
        <time>2013-04-23T10:33:32Z</time>
      </trkpt>
      <trkpt lat="45.48516" lon="6.11755">
        <ele>799.1</ele>
        <time>2013-04-23T10:33:42Z</time>
      </trkpt>
      <trkpt lat="45.48512" lon="6.11766">
        <ele>798</ele>
        <time>2013-04-23T10:34:05Z</time>
      </trkpt>
      <trkpt lat="45.48512" lon="6.11778">
        <ele>796.5</ele>
        <time>2013-04-23T10:34:19Z</time>
      </trkpt>
      <trkpt lat="45.48512" lon="6.11779">
        <ele>796.7</ele>
        <time>2013-04-23T10:34:20Z</time>
      </trkpt>
      <trkpt lat="45.48519" lon="6.118">
        <ele>795.1</ele>
        <time>2013-04-23T10:34:38Z</time>
      </trkpt>
      <trkpt lat="45.48524" lon="6.1181">
        <ele>793.9</ele>
        <time>2013-04-23T10:34:48Z</time>
      </trkpt>
      <trkpt lat="45.48527" lon="6.11821">
        <ele>794.1</ele>
        <time>2013-04-23T10:34:59Z</time>
      </trkpt>
      <trkpt lat="45.48532" lon="6.1183">
        <ele>793</ele>
        <time>2013-04-23T10:35:08Z</time>
      </trkpt>
      <trkpt lat="45.48537" lon="6.11841">
        <ele>792.6</ele>
        <time>2013-04-23T10:35:16Z</time>
      </trkpt>
      <trkpt lat="45.4854" lon="6.11851">
        <ele>794.2</ele>
        <time>2013-04-23T10:35:26Z</time>
      </trkpt>
      <trkpt lat="45.48541" lon="6.11852">
        <ele>794.3</ele>
        <time>2013-04-23T10:35:27Z</time>
      </trkpt>
      <trkpt lat="45.48552" lon="6.11869">
        <ele>795.3</ele>
        <time>2013-04-23T10:35:45Z</time>
      </trkpt>
      <trkpt lat="45.48559" lon="6.11876">
        <ele>795.1</ele>
        <time>2013-04-23T10:35:56Z</time>
      </trkpt>
      <trkpt lat="45.48566" lon="6.11883">
        <ele>795.7</ele>
        <time>2013-04-23T10:36:17Z</time>
      </trkpt>
      <trkpt lat="45.48575" lon="6.11886">
        <ele>800</ele>
        <time>2013-04-23T10:36:39Z</time>
      </trkpt>
      <trkpt lat="45.48575" lon="6.11887">
        <ele>800.4</ele>
        <time>2013-04-23T10:36:40Z</time>
      </trkpt>
      <trkpt lat="45.48591" lon="6.11895">
        <ele>800.2</ele>
        <time>2013-04-23T10:37:03Z</time>
      </trkpt>
      <trkpt lat="45.48596" lon="6.11903">
        <ele>802</ele>
        <time>2013-04-23T10:37:12Z</time>
      </trkpt>
      <trkpt lat="45.48604" lon="6.1191">
        <ele>802.1</ele>
        <time>2013-04-23T10:37:19Z</time>
      </trkpt>
      <trkpt lat="45.4861" lon="6.11918">
        <ele>803.2</ele>
        <time>2013-04-23T10:37:27Z</time>
      </trkpt>
      <trkpt lat="45.48616" lon="6.11926">
        <ele>804.5</ele>
        <time>2013-04-23T10:37:36Z</time>
      </trkpt>
      <trkpt lat="45.48622" lon="6.11934">
        <ele>805.3</ele>
        <time>2013-04-23T10:37:45Z</time>
      </trkpt>
      <trkpt lat="45.48623" lon="6.11935">
        <ele>805.6</ele>
        <time>2013-04-23T10:37:46Z</time>
      </trkpt>
      <trkpt lat="45.48634" lon="6.11951">
        <ele>808.3</ele>
        <time>2013-04-23T10:38:10Z</time>
      </trkpt>
      <trkpt lat="45.48641" lon="6.11959">
        <ele>808</ele>
        <time>2013-04-23T10:38:21Z</time>
      </trkpt>
      <trkpt lat="45.4865" lon="6.11961">
        <ele>808.6</ele>
        <time>2013-04-23T10:38:35Z</time>
      </trkpt>
      <trkpt lat="45.48658" lon="6.11965">
        <ele>807.9</ele>
        <time>2013-04-23T10:38:42Z</time>
      </trkpt>
      <trkpt lat="45.48665" lon="6.1197">
        <ele>808.2</ele>
        <time>2013-04-23T10:38:50Z</time>
      </trkpt>
      <trkpt lat="45.48666" lon="6.11971">
        <ele>808.2</ele>
        <time>2013-04-23T10:38:51Z</time>
      </trkpt>
      <trkpt lat="45.48677" lon="6.11986">
        <ele>806.8</ele>
        <time>2013-04-23T10:39:06Z</time>
      </trkpt>
      <trkpt lat="45.48684" lon="6.11993">
        <ele>806.3</ele>
        <time>2013-04-23T10:39:13Z</time>
      </trkpt>
      <trkpt lat="45.48691" lon="6.11999">
        <ele>805.6</ele>
        <time>2013-04-23T10:39:20Z</time>
      </trkpt>
      <trkpt lat="45.48699" lon="6.12005">
        <ele>804.6</ele>
        <time>2013-04-23T10:39:27Z</time>
      </trkpt>
      <trkpt lat="45.48706" lon="6.1201">
        <ele>803.3</ele>
        <time>2013-04-23T10:39:35Z</time>
      </trkpt>
      <trkpt lat="45.48714" lon="6.12014">
        <ele>803</ele>
        <time>2013-04-23T10:39:43Z</time>
      </trkpt>
      <trkpt lat="45.48722" lon="6.12019">
        <ele>802.4</ele>
        <time>2013-04-23T10:39:50Z</time>
      </trkpt>
      <trkpt lat="45.4873" lon="6.12022">
        <ele>801.3</ele>
        <time>2013-04-23T10:39:57Z</time>
      </trkpt>
      <trkpt lat="45.48732" lon="6.12023">
        <ele>800.9</ele>
        <time>2013-04-23T10:39:58Z</time>
      </trkpt>
      <trkpt lat="45.48745" lon="6.12032">
        <ele>799.1</ele>
        <time>2013-04-23T10:40:12Z</time>
      </trkpt>
      <trkpt lat="45.48754" lon="6.12036">
        <ele>797.7</ele>
        <time>2013-04-23T10:40:19Z</time>
      </trkpt>
      <trkpt lat="45.48762" lon="6.1204">
        <ele>796.1</ele>
        <time>2013-04-23T10:40:26Z</time>
      </trkpt>
      <trkpt lat="45.4877" lon="6.12045">
        <ele>795.4</ele>
        <time>2013-04-23T10:40:34Z</time>
      </trkpt>
      <trkpt lat="45.48778" lon="6.12051">
        <ele>794</ele>
        <time>2013-04-23T10:40:41Z</time>
      </trkpt>
      <trkpt lat="45.48785" lon="6.12056">
        <ele>792.3</ele>
        <time>2013-04-23T10:40:49Z</time>
      </trkpt>
      <trkpt lat="45.48792" lon="6.12063">
        <ele>790</ele>
        <time>2013-04-23T10:40:57Z</time>
      </trkpt>
      <trkpt lat="45.48799" lon="6.12071">
        <ele>788.9</ele>
        <time>2013-04-23T10:41:04Z</time>
      </trkpt>
      <trkpt lat="45.488" lon="6.12072">
        <ele>788.6</ele>
        <time>2013-04-23T10:41:05Z</time>
      </trkpt>
      <trkpt lat="45.4881" lon="6.1209">
        <ele>787.6</ele>
        <time>2013-04-23T10:41:18Z</time>
      </trkpt>
      <trkpt lat="45.48815" lon="6.12099">
        <ele>786.4</ele>
        <time>2013-04-23T10:41:25Z</time>
      </trkpt>
      <trkpt lat="45.4882" lon="6.12108">
        <ele>785</ele>
        <time>2013-04-23T10:41:33Z</time>
      </trkpt>
      <trkpt lat="45.48824" lon="6.12119">
        <ele>783.5</ele>
        <time>2013-04-23T10:41:46Z</time>
      </trkpt>
      <trkpt lat="45.48822" lon="6.12131">
        <ele>781.6</ele>
        <time>2013-04-23T10:41:57Z</time>
      </trkpt>
      <trkpt lat="45.48818" lon="6.12142">
        <ele>781.2</ele>
        <time>2013-04-23T10:42:06Z</time>
      </trkpt>
      <trkpt lat="45.48818" lon="6.12143">
        <ele>781</ele>
        <time>2013-04-23T10:42:07Z</time>
      </trkpt>
      <trkpt lat="45.48832" lon="6.12155">
        <ele>784.1</ele>
        <time>2013-04-23T10:42:40Z</time>
      </trkpt>
      <trkpt lat="45.48839" lon="6.12159">
        <ele>784.5</ele>
        <time>2013-04-23T10:42:46Z</time>
      </trkpt>
      <trkpt lat="45.48846" lon="6.12164">
        <ele>784.9</ele>
        <time>2013-04-23T10:42:52Z</time>
      </trkpt>
      <trkpt lat="45.48853" lon="6.12171">
        <ele>785.3</ele>
        <time>2013-04-23T10:43:00Z</time>
      </trkpt>
      <trkpt lat="45.48859" lon="6.12179">
        <ele>786.4</ele>
        <time>2013-04-23T10:43:08Z</time>
      </trkpt>
      <trkpt lat="45.4886" lon="6.1218">
        <ele>786.4</ele>
        <time>2013-04-23T10:43:09Z</time>
      </trkpt>
      <trkpt lat="45.48872" lon="6.12195">
        <ele>788.8</ele>
        <time>2013-04-23T10:43:28Z</time>
      </trkpt>
      <trkpt lat="45.48877" lon="6.12205">
        <ele>790.4</ele>
        <time>2013-04-23T10:43:40Z</time>
      </trkpt>
      <trkpt lat="45.48882" lon="6.12214">
        <ele>791.8</ele>
        <time>2013-04-23T10:43:52Z</time>
      </trkpt>
      <trkpt lat="45.48886" lon="6.12225">
        <ele>794.5</ele>
        <time>2013-04-23T10:44:07Z</time>
      </trkpt>
      <trkpt lat="45.4889" lon="6.12236">
        <ele>797.8</ele>
        <time>2013-04-23T10:44:25Z</time>
      </trkpt>
      <trkpt lat="45.4889" lon="6.12236">
        <ele>798.3</ele>
        <time>2013-04-23T10:44:26Z</time>
      </trkpt>
      <trkpt lat="45.48902" lon="6.12253">
        <ele>802.6</ele>
        <time>2013-04-23T10:44:49Z</time>
      </trkpt>
      <trkpt lat="45.48906" lon="6.12264">
        <ele>803.4</ele>
        <time>2013-04-23T10:45:02Z</time>
      </trkpt>
      <trkpt lat="45.48911" lon="6.12275">
        <ele>805.7</ele>
        <time>2013-04-23T10:45:12Z</time>
      </trkpt>
      <trkpt lat="45.48916" lon="6.12284">
        <ele>806.1</ele>
        <time>2013-04-23T10:45:21Z</time>
      </trkpt>
      <trkpt lat="45.48922" lon="6.12292">
        <ele>807.8</ele>
        <time>2013-04-23T10:45:32Z</time>
      </trkpt>
      <trkpt lat="45.48923" lon="6.12293">
        <ele>807.8</ele>
        <time>2013-04-23T10:45:33Z</time>
      </trkpt>
      <trkpt lat="45.48934" lon="6.12308">
        <ele>808.3</ele>
        <time>2013-04-23T10:45:47Z</time>
      </trkpt>
      <trkpt lat="45.48938" lon="6.12318">
        <ele>808.1</ele>
        <time>2013-04-23T10:45:58Z</time>
      </trkpt>
      <trkpt lat="45.4894" lon="6.1233">
        <ele>808.4</ele>
        <time>2013-04-23T10:46:07Z</time>
      </trkpt>
      <trkpt lat="45.48944" lon="6.12341">
        <ele>807.6</ele>
        <time>2013-04-23T10:46:16Z</time>
      </trkpt>
      <trkpt lat="45.4895" lon="6.1235">
        <ele>807.2</ele>
        <time>2013-04-23T10:46:27Z</time>
      </trkpt>
      <trkpt lat="45.48957" lon="6.12355">
        <ele>806.8</ele>
        <time>2013-04-23T10:46:36Z</time>
      </trkpt>
      <trkpt lat="45.48958" lon="6.12355">
        <ele>806.7</ele>
        <time>2013-04-23T10:46:37Z</time>
      </trkpt>
      <trkpt lat="45.48971" lon="6.12368">
        <ele>806.2</ele>
        <time>2013-04-23T10:46:50Z</time>
      </trkpt>
      <trkpt lat="45.48978" lon="6.12376">
        <ele>806.7</ele>
        <time>2013-04-23T10:47:00Z</time>
      </trkpt>
      <trkpt lat="45.48974" lon="6.12387">
        <ele>809.8</ele>
        <time>2013-04-23T10:47:16Z</time>
      </trkpt>
      <trkpt lat="45.48974" lon="6.124">
        <ele>809.6</ele>
        <time>2013-04-23T10:47:33Z</time>
      </trkpt>
      <trkpt lat="45.48982" lon="6.12406">
        <ele>809.4</ele>
        <time>2013-04-23T10:47:44Z</time>
      </trkpt>
      <trkpt lat="45.48982" lon="6.12407">
        <ele>809.5</ele>
        <time>2013-04-23T10:47:45Z</time>
      </trkpt>
      <trkpt lat="45.48997" lon="6.12415">
        <ele>808.1</ele>
        <time>2013-04-23T10:48:53Z</time>
      </trkpt>
      <trkpt lat="45.48998" lon="6.12415">
        <ele>807.9</ele>
        <time>2013-04-23T10:48:54Z</time>
      </trkpt>
      <trkpt lat="45.49006" lon="6.12414">
        <ele>808.4</ele>
        <time>2013-04-23T10:54:47Z</time>
      </trkpt>
      <trkpt lat="45.49014" lon="6.1242">
        <ele>808.3</ele>
        <time>2013-04-23T11:03:03Z</time>
      </trkpt>
      <trkpt lat="45.49005" lon="6.12421">
        <ele>808.7</ele>
        <time>2013-04-23T11:04:30Z</time>
      </trkpt>
      <trkpt lat="45.48998" lon="6.12414">
        <ele>808.5</ele>
        <time>2013-04-23T11:06:32Z</time>
      </trkpt>
      <trkpt lat="45.49007" lon="6.12414">
        <ele>808.9</ele>
        <time>2013-04-23T11:09:15Z</time>
      </trkpt>
      <trkpt lat="45.48998" lon="6.12417">
        <ele>809.6</ele>
        <time>2013-04-23T11:13:42Z</time>
      </trkpt>
      <trkpt lat="45.48983" lon="6.12407">
        <ele>808.7</ele>
        <time>2013-04-23T11:15:12Z</time>
      </trkpt>
      <trkpt lat="45.48982" lon="6.12406">
        <ele>809.1</ele>
        <time>2013-04-23T11:15:13Z</time>
      </trkpt>
      <trkpt lat="45.4899" lon="6.12414">
        <ele>808.9</ele>
        <time>2013-04-23T11:23:19Z</time>
      </trkpt>
      <trkpt lat="45.48999" lon="6.12416">
        <ele>808.3</ele>
        <time>2013-04-23T11:25:07Z</time>
      </trkpt>
      <trkpt lat="45.48996" lon="6.12403">
        <ele>806.9</ele>
        <time>2013-04-23T11:54:56Z</time>
      </trkpt>
      <trkpt lat="45.49002" lon="6.12413">
        <ele>805.2</ele>
        <time>2013-04-23T11:58:20Z</time>
      </trkpt>
      <trkpt lat="45.48992" lon="6.12415">
        <ele>804.6</ele>
        <time>2013-04-23T12:00:26Z</time>
      </trkpt>
      <trkpt lat="45.48991" lon="6.12406">
        <ele>803</ele>
        <time>2013-04-23T12:01:27Z</time>
      </trkpt>
      <trkpt lat="45.48987" lon="6.12409">
        <ele>804.2</ele>
        <time>2013-04-23T12:01:31Z</time>
      </trkpt>
      <trkpt lat="45.48974" lon="6.12424">
        <ele>803</ele>
        <time>2013-04-23T12:01:58Z</time>
      </trkpt>
      <trkpt lat="45.48983" lon="6.12421">
        <ele>803</ele>
        <time>2013-04-23T12:02:22Z</time>
      </trkpt>
      <trkpt lat="45.48996" lon="6.1241">
        <ele>803</ele>
        <time>2013-04-23T12:02:30Z</time>
      </trkpt>
      <trkpt lat="45.49004" lon="6.12404">
        <ele>804.1</ele>
        <time>2013-04-23T12:02:34Z</time>
      </trkpt>
      <trkpt lat="45.48998" lon="6.124">
        <ele>803.4</ele>
        <time>2013-04-23T12:02:53Z</time>
      </trkpt>
      <trkpt lat="45.48992" lon="6.12408">
        <ele>803.5</ele>
        <time>2013-04-23T12:03:12Z</time>
      </trkpt>
      <trkpt lat="45.48985" lon="6.12415">
        <ele>803.1</ele>
        <time>2013-04-23T12:03:18Z</time>
      </trkpt>
      <trkpt lat="45.48979" lon="6.12426">
        <ele>802</ele>
        <time>2013-04-23T12:03:32Z</time>
      </trkpt>
      <trkpt lat="45.48987" lon="6.12425">
        <ele>802.6</ele>
        <time>2013-04-23T12:03:45Z</time>
      </trkpt>
      <trkpt lat="45.48988" lon="6.12425">
        <ele>802.7</ele>
        <time>2013-04-23T12:03:46Z</time>
      </trkpt>
      <trkpt lat="45.48972" lon="6.12437">
        <ele>802</ele>
        <time>2013-04-23T12:03:58Z</time>
      </trkpt>
      <trkpt lat="45.4898" lon="6.12429">
        <ele>802</ele>
        <time>2013-04-23T12:04:15Z</time>
      </trkpt>
      <trkpt lat="45.48989" lon="6.12421">
        <ele>802</ele>
        <time>2013-04-23T12:04:23Z</time>
      </trkpt>
      <trkpt lat="45.48979" lon="6.12421">
        <ele>801</ele>
        <time>2013-04-23T12:04:40Z</time>
      </trkpt>
      <trkpt lat="45.48965" lon="6.12429">
        <ele>802</ele>
        <time>2013-04-23T12:04:46Z</time>
      </trkpt>
      <trkpt lat="45.48963" lon="6.12434">
        <ele>803.4</ele>
        <time>2013-04-23T12:04:50Z</time>
      </trkpt>
      <trkpt lat="45.48952" lon="6.12419">
        <ele>802</ele>
        <time>2013-04-23T12:05:28Z</time>
      </trkpt>
      <trkpt lat="45.49021" lon="6.12404">
        <ele>802</ele>
        <time>2013-04-23T12:05:40Z</time>
      </trkpt>
      <trkpt lat="45.49002" lon="6.12416">
        <ele>802</ele>
        <time>2013-04-23T12:05:58Z</time>
      </trkpt>
      <trkpt lat="45.49002" lon="6.12415">
        <ele>802.4</ele>
        <time>2013-04-23T12:05:59Z</time>
      </trkpt>
      <trkpt lat="45.48989" lon="6.12373">
        <ele>801.9</ele>
        <time>2013-04-23T12:06:30Z</time>
      </trkpt>
      <trkpt lat="45.48997" lon="6.12372">
        <ele>801.8</ele>
        <time>2013-04-23T12:06:36Z</time>
      </trkpt>
      <trkpt lat="45.49003" lon="6.12365">
        <ele>801.3</ele>
        <time>2013-04-23T12:06:40Z</time>
      </trkpt>
      <trkpt lat="45.49007" lon="6.12355">
        <ele>800.7</ele>
        <time>2013-04-23T12:06:42Z</time>
      </trkpt>
      <trkpt lat="45.49018" lon="6.12345">
        <ele>801</ele>
        <time>2013-04-23T12:06:45Z</time>
      </trkpt>
      <trkpt lat="45.49012" lon="6.12363">
        <ele>801</ele>
        <time>2013-04-23T12:06:57Z</time>
      </trkpt>
      <trkpt lat="45.49011" lon="6.12375">
        <ele>801.8</ele>
        <time>2013-04-23T12:07:20Z</time>
      </trkpt>
      <trkpt lat="45.4901" lon="6.12376">
        <ele>801.9</ele>
        <time>2013-04-23T12:07:21Z</time>
      </trkpt>
      <trkpt lat="45.48994" lon="6.12395">
        <ele>800</ele>
        <time>2013-04-23T12:07:34Z</time>
      </trkpt>
      <trkpt lat="45.48982" lon="6.12404">
        <ele>800</ele>
        <time>2013-04-23T12:07:40Z</time>
      </trkpt>
      <trkpt lat="45.4897" lon="6.12412">
        <ele>801</ele>
        <time>2013-04-23T12:07:46Z</time>
      </trkpt>
      <trkpt lat="45.4896" lon="6.12408">
        <ele>800</ele>
        <time>2013-04-23T12:07:58Z</time>
      </trkpt>
      <trkpt lat="45.48971" lon="6.124">
        <ele>800</ele>
        <time>2013-04-23T12:08:06Z</time>
      </trkpt>
      <trkpt lat="45.48983" lon="6.12393">
        <ele>800</ele>
        <time>2013-04-23T12:08:14Z</time>
      </trkpt>
      <trkpt lat="45.48993" lon="6.12388">
        <ele>801</ele>
        <time>2013-04-23T12:08:22Z</time>
      </trkpt>
      <trkpt lat="45.48994" lon="6.12386">
        <ele>801.4</ele>
        <time>2013-04-23T12:08:24Z</time>
      </trkpt>
      <trkpt lat="45.49018" lon="6.12373">
        <ele>801</ele>
        <time>2013-04-23T12:08:38Z</time>
      </trkpt>
      <trkpt lat="45.49014" lon="6.12377">
        <ele>801.2</ele>
        <time>2013-04-23T12:08:46Z</time>
      </trkpt>
      <trkpt lat="45.4901" lon="6.12379">
        <ele>801.2</ele>
        <time>2013-04-23T12:08:47Z</time>
      </trkpt>
      <trkpt lat="45.49005" lon="6.12383">
        <ele>801.1</ele>
        <time>2013-04-23T12:08:48Z</time>
      </trkpt>
      <trkpt lat="45.49" lon="6.12387">
        <ele>801</ele>
        <time>2013-04-23T12:08:49Z</time>
      </trkpt>
      <trkpt lat="45.4899" lon="6.12393">
        <ele>801</ele>
        <time>2013-04-23T12:08:52Z</time>
      </trkpt>
      <trkpt lat="45.48982" lon="6.12399">
        <ele>801</ele>
        <time>2013-04-23T12:09:00Z</time>
      </trkpt>
      <trkpt lat="45.48979" lon="6.12413">
        <ele>800</ele>
        <time>2013-04-23T12:09:20Z</time>
      </trkpt>
      <trkpt lat="45.48972" lon="6.12414">
        <ele>800.9</ele>
        <time>2013-04-23T12:09:53Z</time>
      </trkpt>
      <trkpt lat="45.48969" lon="6.12415">
        <ele>800.8</ele>
        <time>2013-04-23T12:09:54Z</time>
      </trkpt>
      <trkpt lat="45.48958" lon="6.12423">
        <ele>800.6</ele>
        <time>2013-04-23T12:10:00Z</time>
      </trkpt>
      <trkpt lat="45.48951" lon="6.12431">
        <ele>800.6</ele>
        <time>2013-04-23T12:10:04Z</time>
      </trkpt>
      <trkpt lat="45.48954" lon="6.12425">
        <ele>800.7</ele>
        <time>2013-04-23T12:10:11Z</time>
      </trkpt>
      <trkpt lat="45.48961" lon="6.12419">
        <ele>800.4</ele>
        <time>2013-04-23T12:10:13Z</time>
      </trkpt>
      <trkpt lat="45.48968" lon="6.12413">
        <ele>800.5</ele>
        <time>2013-04-23T12:10:15Z</time>
      </trkpt>
      <trkpt lat="45.48977" lon="6.12409">
        <ele>800.2</ele>
        <time>2013-04-23T12:10:20Z</time>
      </trkpt>
      <trkpt lat="45.48986" lon="6.12409">
        <ele>800.4</ele>
        <time>2013-04-23T12:10:32Z</time>
      </trkpt>
      <trkpt lat="45.48993" lon="6.12415">
        <ele>800.3</ele>
        <time>2013-04-23T12:11:00Z</time>
      </trkpt>
      <trkpt lat="45.48995" lon="6.12412">
        <ele>800.4</ele>
        <time>2013-04-23T12:11:01Z</time>
      </trkpt>
      <trkpt lat="45.49" lon="6.12424">
        <ele>797.8</ele>
        <time>2013-04-23T12:15:55Z</time>
      </trkpt>
      <trkpt lat="45.49013" lon="6.12437">
        <ele>793.6</ele>
        <time>2013-04-23T12:16:21Z</time>
      </trkpt>
      <trkpt lat="45.49022" lon="6.12437">
        <ele>790.8</ele>
        <time>2013-04-23T12:16:38Z</time>
      </trkpt>
      <trkpt lat="45.4903" lon="6.12439">
        <ele>786.5</ele>
        <time>2013-04-23T12:16:57Z</time>
      </trkpt>
      <trkpt lat="45.49031" lon="6.1244">
        <ele>786.5</ele>
        <time>2013-04-23T12:16:58Z</time>
      </trkpt>
      <trkpt lat="45.49045" lon="6.1245">
        <ele>782</ele>
        <time>2013-04-23T12:17:35Z</time>
      </trkpt>
      <trkpt lat="45.49051" lon="6.12459">
        <ele>780.4</ele>
        <time>2013-04-23T12:17:45Z</time>
      </trkpt>
      <trkpt lat="45.49058" lon="6.12467">
        <ele>778.5</ele>
        <time>2013-04-23T12:17:56Z</time>
      </trkpt>
      <trkpt lat="45.49064" lon="6.12474">
        <ele>776.6</ele>
        <time>2013-04-23T12:18:06Z</time>
      </trkpt>
      <trkpt lat="45.49065" lon="6.12475">
        <ele>776.4</ele>
        <time>2013-04-23T12:18:07Z</time>
      </trkpt>
      <trkpt lat="45.49076" lon="6.12492">
        <ele>771.5</ele>
        <time>2013-04-23T12:18:32Z</time>
      </trkpt>
      <trkpt lat="45.49084" lon="6.12499">
        <ele>769.6</ele>
        <time>2013-04-23T12:18:45Z</time>
      </trkpt>
      <trkpt lat="45.49092" lon="6.12501">
        <ele>767.4</ele>
        <time>2013-04-23T12:18:58Z</time>
      </trkpt>
      <trkpt lat="45.49101" lon="6.12503">
        <ele>766.2</ele>
        <time>2013-04-23T12:19:09Z</time>
      </trkpt>
      <trkpt lat="45.49102" lon="6.12503">
        <ele>766</ele>
        <time>2013-04-23T12:19:10Z</time>
      </trkpt>
      <trkpt lat="45.491" lon="6.12514">
        <ele>761</ele>
        <time>2013-04-23T12:19:56Z</time>
      </trkpt>
      <trkpt lat="45.49092" lon="6.12518">
        <ele>759.6</ele>
        <time>2013-04-23T12:20:09Z</time>
      </trkpt>
      <trkpt lat="45.49084" lon="6.12523">
        <ele>757.2</ele>
        <time>2013-04-23T12:20:23Z</time>
      </trkpt>
      <trkpt lat="45.49084" lon="6.12524">
        <ele>756.7</ele>
        <time>2013-04-23T12:20:24Z</time>
      </trkpt>
      <trkpt lat="45.49087" lon="6.12544">
        <ele>755</ele>
        <time>2013-04-23T12:20:53Z</time>
      </trkpt>
      <trkpt lat="45.49095" lon="6.1254">
        <ele>755.4</ele>
        <time>2013-04-23T12:21:08Z</time>
      </trkpt>
      <trkpt lat="45.49104" lon="6.12541">
        <ele>754.3</ele>
        <time>2013-04-23T12:21:31Z</time>
      </trkpt>
      <trkpt lat="45.49104" lon="6.12542">
        <ele>754.2</ele>
        <time>2013-04-23T12:21:32Z</time>
      </trkpt>
      <trkpt lat="45.49089" lon="6.1254">
        <ele>753.9</ele>
        <time>2013-04-23T12:22:40Z</time>
      </trkpt>
      <trkpt lat="45.49089" lon="6.12539">
        <ele>754</ele>
        <time>2013-04-23T12:22:41Z</time>
      </trkpt>
      <trkpt lat="45.49074" lon="6.1253">
        <ele>753.7</ele>
        <time>2013-04-23T12:23:13Z</time>
      </trkpt>
      <trkpt lat="45.49065" lon="6.12527">
        <ele>753.1</ele>
        <time>2013-04-23T12:23:25Z</time>
      </trkpt>
      <trkpt lat="45.49056" lon="6.12526">
        <ele>752.4</ele>
        <time>2013-04-23T12:23:37Z</time>
      </trkpt>
      <trkpt lat="45.49048" lon="6.12527">
        <ele>752</ele>
        <time>2013-04-23T12:23:46Z</time>
      </trkpt>
      <trkpt lat="45.49046" lon="6.12528">
        <ele>752</ele>
        <time>2013-04-23T12:23:47Z</time>
      </trkpt>
      <trkpt lat="45.49031" lon="6.12528">
        <ele>751.4</ele>
        <time>2013-04-23T12:24:03Z</time>
      </trkpt>
      <trkpt lat="45.49023" lon="6.12527">
        <ele>751.1</ele>
        <time>2013-04-23T12:24:11Z</time>
      </trkpt>
      <trkpt lat="45.49014" lon="6.12528">
        <ele>751.7</ele>
        <time>2013-04-23T12:24:18Z</time>
      </trkpt>
      <trkpt lat="45.49005" lon="6.12528">
        <ele>752.6</ele>
        <time>2013-04-23T12:24:27Z</time>
      </trkpt>
      <trkpt lat="45.48997" lon="6.12526">
        <ele>751.5</ele>
        <time>2013-04-23T12:24:36Z</time>
      </trkpt>
      <trkpt lat="45.48989" lon="6.12522">
        <ele>751.7</ele>
        <time>2013-04-23T12:24:46Z</time>
      </trkpt>
      <trkpt lat="45.48981" lon="6.12518">
        <ele>751.4</ele>
        <time>2013-04-23T12:24:56Z</time>
      </trkpt>
      <trkpt lat="45.4898" lon="6.12517">
        <ele>751.2</ele>
        <time>2013-04-23T12:24:57Z</time>
      </trkpt>
      <trkpt lat="45.48966" lon="6.12506">
        <ele>752.8</ele>
        <time>2013-04-23T12:25:15Z</time>
      </trkpt>
      <trkpt lat="45.48959" lon="6.125">
        <ele>752.4</ele>
        <time>2013-04-23T12:25:23Z</time>
      </trkpt>
      <trkpt lat="45.48952" lon="6.12494">
        <ele>752.4</ele>
        <time>2013-04-23T12:25:30Z</time>
      </trkpt>
      <trkpt lat="45.48944" lon="6.12488">
        <ele>752.8</ele>
        <time>2013-04-23T12:25:38Z</time>
      </trkpt>
      <trkpt lat="45.48937" lon="6.12481">
        <ele>753.4</ele>
        <time>2013-04-23T12:25:46Z</time>
      </trkpt>
      <trkpt lat="45.48929" lon="6.12475">
        <ele>754.4</ele>
        <time>2013-04-23T12:25:53Z</time>
      </trkpt>
      <trkpt lat="45.48922" lon="6.12469">
        <ele>753.6</ele>
        <time>2013-04-23T12:26:01Z</time>
      </trkpt>
      <trkpt lat="45.48921" lon="6.12468">
        <ele>753.7</ele>
        <time>2013-04-23T12:26:02Z</time>
      </trkpt>
      <trkpt lat="45.48908" lon="6.12455">
        <ele>755.2</ele>
        <time>2013-04-23T12:26:20Z</time>
      </trkpt>
      <trkpt lat="45.48903" lon="6.12447">
        <ele>756</ele>
        <time>2013-04-23T12:26:29Z</time>
      </trkpt>
      <trkpt lat="45.48897" lon="6.12439">
        <ele>755.9</ele>
        <time>2013-04-23T12:26:36Z</time>
      </trkpt>
      <trkpt lat="45.48891" lon="6.1243">
        <ele>755.6</ele>
        <time>2013-04-23T12:26:44Z</time>
      </trkpt>
      <trkpt lat="45.48885" lon="6.12422">
        <ele>756.7</ele>
        <time>2013-04-23T12:26:52Z</time>
      </trkpt>
      <trkpt lat="45.48877" lon="6.12418">
        <ele>756.9</ele>
        <time>2013-04-23T12:26:59Z</time>
      </trkpt>
      <trkpt lat="45.48869" lon="6.12413">
        <ele>756.9</ele>
        <time>2013-04-23T12:27:09Z</time>
      </trkpt>
      <trkpt lat="45.48869" lon="6.12412">
        <ele>756.7</ele>
        <time>2013-04-23T12:27:10Z</time>
      </trkpt>
      <trkpt lat="45.48858" lon="6.12395">
        <ele>757.1</ele>
        <time>2013-04-23T12:27:31Z</time>
      </trkpt>
      <trkpt lat="45.48852" lon="6.12387">
        <ele>757.1</ele>
        <time>2013-04-23T12:27:42Z</time>
      </trkpt>
      <trkpt lat="45.48845" lon="6.12379">
        <ele>757</ele>
        <time>2013-04-23T12:27:50Z</time>
      </trkpt>
      <trkpt lat="45.4884" lon="6.1237">
        <ele>757.4</ele>
        <time>2013-04-23T12:27:58Z</time>
      </trkpt>
      <trkpt lat="45.48836" lon="6.12358">
        <ele>756.6</ele>
        <time>2013-04-23T12:28:06Z</time>
      </trkpt>
      <trkpt lat="45.4883" lon="6.12349">
        <ele>757.8</ele>
        <time>2013-04-23T12:28:14Z</time>
      </trkpt>
      <trkpt lat="45.48829" lon="6.12348">
        <ele>757.9</ele>
        <time>2013-04-23T12:28:15Z</time>
      </trkpt>
      <trkpt lat="45.48819" lon="6.1233">
        <ele>758.7</ele>
        <time>2013-04-23T12:28:29Z</time>
      </trkpt>
      <trkpt lat="45.48815" lon="6.12319">
        <ele>759.4</ele>
        <time>2013-04-23T12:28:38Z</time>
      </trkpt>
      <trkpt lat="45.48817" lon="6.12307">
        <ele>760.8</ele>
        <time>2013-04-23T12:28:48Z</time>
      </trkpt>
      <trkpt lat="45.48819" lon="6.12296">
        <ele>761.1</ele>
        <time>2013-04-23T12:28:59Z</time>
      </trkpt>
      <trkpt lat="45.48822" lon="6.12284">
        <ele>761.8</ele>
        <time>2013-04-23T12:29:12Z</time>
      </trkpt>
      <trkpt lat="45.48825" lon="6.12273">
        <ele>762.1</ele>
        <time>2013-04-23T12:29:21Z</time>
      </trkpt>
      <trkpt lat="45.48825" lon="6.12272">
        <ele>762.6</ele>
        <time>2013-04-23T12:29:22Z</time>
      </trkpt>
      <trkpt lat="45.48828" lon="6.1225">
        <ele>764.2</ele>
        <time>2013-04-23T12:29:38Z</time>
      </trkpt>
      <trkpt lat="45.48832" lon="6.12238">
        <ele>765.7</ele>
        <time>2013-04-23T12:29:47Z</time>
      </trkpt>
      <trkpt lat="45.48833" lon="6.12226">
        <ele>766.2</ele>
        <time>2013-04-23T12:29:55Z</time>
      </trkpt>
      <trkpt lat="45.48835" lon="6.12214">
        <ele>766</ele>
        <time>2013-04-23T12:30:03Z</time>
      </trkpt>
      <trkpt lat="45.48832" lon="6.12203">
        <ele>766.5</ele>
        <time>2013-04-23T12:30:12Z</time>
      </trkpt>
      <trkpt lat="45.48829" lon="6.12192">
        <ele>766.7</ele>
        <time>2013-04-23T12:30:20Z</time>
      </trkpt>
      <trkpt lat="45.48826" lon="6.1218">
        <ele>766.2</ele>
        <time>2013-04-23T12:30:28Z</time>
      </trkpt>
      <trkpt lat="45.48826" lon="6.12178">
        <ele>766.6</ele>
        <time>2013-04-23T12:30:29Z</time>
      </trkpt>
      <trkpt lat="45.48821" lon="6.12158">
        <ele>767.1</ele>
        <time>2013-04-23T12:31:03Z</time>
      </trkpt>
      <trkpt lat="45.48817" lon="6.12147">
        <ele>768</ele>
        <time>2013-04-23T12:32:22Z</time>
      </trkpt>
      <trkpt lat="45.48817" lon="6.12146">
        <ele>768.4</ele>
        <time>2013-04-23T12:32:23Z</time>
      </trkpt>
      <trkpt lat="45.48805" lon="6.1213">
        <ele>771.2</ele>
        <time>2013-04-23T12:32:48Z</time>
      </trkpt>
      <trkpt lat="45.48798" lon="6.12125">
        <ele>771.4</ele>
        <time>2013-04-23T12:32:56Z</time>
      </trkpt>
      <trkpt lat="45.4879" lon="6.1212">
        <ele>772.7</ele>
        <time>2013-04-23T12:33:05Z</time>
      </trkpt>
      <trkpt lat="45.48783" lon="6.12113">
        <ele>773.7</ele>
        <time>2013-04-23T12:33:18Z</time>
      </trkpt>
      <trkpt lat="45.48776" lon="6.12106">
        <ele>775.1</ele>
        <time>2013-04-23T12:33:30Z</time>
      </trkpt>
      <trkpt lat="45.48775" lon="6.12105">
        <ele>775.3</ele>
        <time>2013-04-23T12:33:31Z</time>
      </trkpt>
      <trkpt lat="45.48761" lon="6.12092">
        <ele>778.3</ele>
        <time>2013-04-23T12:33:50Z</time>
      </trkpt>
      <trkpt lat="45.48755" lon="6.12084">
        <ele>779.4</ele>
        <time>2013-04-23T12:34:01Z</time>
      </trkpt>
      <trkpt lat="45.48748" lon="6.12078">
        <ele>781.4</ele>
        <time>2013-04-23T12:34:15Z</time>
      </trkpt>
      <trkpt lat="45.4874" lon="6.12073">
        <ele>783.1</ele>
        <time>2013-04-23T12:34:26Z</time>
      </trkpt>
      <trkpt lat="45.48732" lon="6.12066">
        <ele>783.7</ele>
        <time>2013-04-23T12:34:38Z</time>
      </trkpt>
      <trkpt lat="45.48732" lon="6.12066">
        <ele>784</ele>
        <time>2013-04-23T12:34:39Z</time>
      </trkpt>
      <trkpt lat="45.48716" lon="6.12059">
        <ele>786.2</ele>
        <time>2013-04-23T12:34:57Z</time>
      </trkpt>
      <trkpt lat="45.48708" lon="6.12055">
        <ele>786.1</ele>
        <time>2013-04-23T12:35:05Z</time>
      </trkpt>
      <trkpt lat="45.487" lon="6.12051">
        <ele>786</ele>
        <time>2013-04-23T12:35:14Z</time>
      </trkpt>
      <trkpt lat="45.48693" lon="6.12046">
        <ele>785.7</ele>
        <time>2013-04-23T12:35:22Z</time>
      </trkpt>
      <trkpt lat="45.48685" lon="6.1204">
        <ele>786.8</ele>
        <time>2013-04-23T12:35:32Z</time>
      </trkpt>
      <trkpt lat="45.48678" lon="6.12034">
        <ele>787.6</ele>
        <time>2013-04-23T12:35:45Z</time>
      </trkpt>
      <trkpt lat="45.48677" lon="6.12034">
        <ele>787.7</ele>
        <time>2013-04-23T12:35:46Z</time>
      </trkpt>
      <trkpt lat="45.48662" lon="6.12027">
        <ele>788.6</ele>
        <time>2013-04-23T12:36:03Z</time>
      </trkpt>
      <trkpt lat="45.48653" lon="6.12023">
        <ele>788.8</ele>
        <time>2013-04-23T12:36:17Z</time>
      </trkpt>
      <trkpt lat="45.48645" lon="6.12017">
        <ele>790.7</ele>
        <time>2013-04-23T12:36:31Z</time>
      </trkpt>
      <trkpt lat="45.48638" lon="6.12011">
        <ele>791</ele>
        <time>2013-04-23T12:36:41Z</time>
      </trkpt>
      <trkpt lat="45.4863" lon="6.12005">
        <ele>791.4</ele>
        <time>2013-04-23T12:36:49Z</time>
      </trkpt>
      <trkpt lat="45.48629" lon="6.12004">
        <ele>791.3</ele>
        <time>2013-04-23T12:36:50Z</time>
      </trkpt>
      <trkpt lat="45.48614" lon="6.11996">
        <ele>792.2</ele>
        <time>2013-04-23T12:37:08Z</time>
      </trkpt>
      <trkpt lat="45.48606" lon="6.11992">
        <ele>791</ele>
        <time>2013-04-23T12:37:16Z</time>
      </trkpt>
      <trkpt lat="45.48598" lon="6.11986">
        <ele>791.1</ele>
        <time>2013-04-23T12:37:26Z</time>
      </trkpt>
      <trkpt lat="45.4859" lon="6.11981">
        <ele>790</ele>
        <time>2013-04-23T12:37:35Z</time>
      </trkpt>
      <trkpt lat="45.48582" lon="6.11978">
        <ele>790.3</ele>
        <time>2013-04-23T12:37:43Z</time>
      </trkpt>
      <trkpt lat="45.48574" lon="6.11976">
        <ele>790.4</ele>
        <time>2013-04-23T12:37:50Z</time>
      </trkpt>
      <trkpt lat="45.48565" lon="6.11972">
        <ele>790.8</ele>
        <time>2013-04-23T12:37:59Z</time>
      </trkpt>
      <trkpt lat="45.48564" lon="6.11971">
        <ele>790.5</ele>
        <time>2013-04-23T12:38:00Z</time>
      </trkpt>
      <trkpt lat="45.48549" lon="6.11966">
        <ele>790.1</ele>
        <time>2013-04-23T12:38:15Z</time>
      </trkpt>
      <trkpt lat="45.48541" lon="6.11963">
        <ele>788.7</ele>
        <time>2013-04-23T12:38:28Z</time>
      </trkpt>
      <trkpt lat="45.48537" lon="6.11952">
        <ele>788.6</ele>
        <time>2013-04-23T12:38:40Z</time>
      </trkpt>
      <trkpt lat="45.48535" lon="6.1194">
        <ele>789.4</ele>
        <time>2013-04-23T12:38:50Z</time>
      </trkpt>
      <trkpt lat="45.48534" lon="6.11928">
        <ele>791.2</ele>
        <time>2013-04-23T12:39:06Z</time>
      </trkpt>
      <trkpt lat="45.48534" lon="6.11927">
        <ele>791.7</ele>
        <time>2013-04-23T12:39:07Z</time>
      </trkpt>
      <trkpt lat="45.48544" lon="6.11911">
        <ele>797.7</ele>
        <time>2013-04-23T12:39:42Z</time>
      </trkpt>
      <trkpt lat="45.48553" lon="6.1191">
        <ele>798.1</ele>
        <time>2013-04-23T12:40:05Z</time>
      </trkpt>
      <trkpt lat="45.48556" lon="6.11898">
        <ele>791.3</ele>
        <time>2013-04-23T12:40:37Z</time>
      </trkpt>
      <trkpt lat="45.48555" lon="6.11897">
        <ele>791.2</ele>
        <time>2013-04-23T12:40:38Z</time>
      </trkpt>
      <trkpt lat="45.48552" lon="6.11877">
        <ele>783.8</ele>
        <time>2013-04-23T12:41:09Z</time>
      </trkpt>
      <trkpt lat="45.48545" lon="6.11871">
        <ele>782.5</ele>
        <time>2013-04-23T12:41:23Z</time>
      </trkpt>
      <trkpt lat="45.4854" lon="6.11862">
        <ele>782.6</ele>
        <time>2013-04-23T12:41:30Z</time>
      </trkpt>
      <trkpt lat="45.48533" lon="6.11853">
        <ele>783.3</ele>
        <time>2013-04-23T12:41:36Z</time>
      </trkpt>
      <trkpt lat="45.4853" lon="6.11841">
        <ele>782.3</ele>
        <time>2013-04-23T12:42:04Z</time>
      </trkpt>
      <trkpt lat="45.48531" lon="6.1184">
        <ele>782.2</ele>
        <time>2013-04-23T12:42:05Z</time>
      </trkpt>
      <trkpt lat="45.48527" lon="6.11818">
        <ele>781.7</ele>
        <time>2013-04-23T12:42:27Z</time>
      </trkpt>
      <trkpt lat="45.48524" lon="6.11806">
        <ele>782.7</ele>
        <time>2013-04-23T12:42:37Z</time>
      </trkpt>
      <trkpt lat="45.48522" lon="6.11794">
        <ele>783.3</ele>
        <time>2013-04-23T12:42:45Z</time>
      </trkpt>
      <trkpt lat="45.48519" lon="6.11783">
        <ele>784.4</ele>
        <time>2013-04-23T12:42:54Z</time>
      </trkpt>
      <trkpt lat="45.48513" lon="6.11775">
        <ele>784.8</ele>
        <time>2013-04-23T12:43:10Z</time>
      </trkpt>
      <trkpt lat="45.48512" lon="6.11775">
        <ele>784.3</ele>
        <time>2013-04-23T12:43:11Z</time>
      </trkpt>
      <trkpt lat="45.48497" lon="6.11766">
        <ele>779</ele>
        <time>2013-04-23T12:43:26Z</time>
      </trkpt>
      <trkpt lat="45.48489" lon="6.11761">
        <ele>775.1</ele>
        <time>2013-04-23T12:43:35Z</time>
      </trkpt>
      <trkpt lat="45.48481" lon="6.11761">
        <ele>772.2</ele>
        <time>2013-04-23T12:43:42Z</time>
      </trkpt>
      <trkpt lat="45.48473" lon="6.11761">
        <ele>769.9</ele>
        <time>2013-04-23T12:43:50Z</time>
      </trkpt>
      <trkpt lat="45.48465" lon="6.11761">
        <ele>767.7</ele>
        <time>2013-04-23T12:43:57Z</time>
      </trkpt>
      <trkpt lat="45.48457" lon="6.11757">
        <ele>766.1</ele>
        <time>2013-04-23T12:44:04Z</time>
      </trkpt>
      <trkpt lat="45.48448" lon="6.11756">
        <ele>763</ele>
        <time>2013-04-23T12:44:12Z</time>
      </trkpt>
      <trkpt lat="45.48447" lon="6.11756">
        <ele>762.6</ele>
        <time>2013-04-23T12:44:13Z</time>
      </trkpt>
      <trkpt lat="45.48432" lon="6.11764">
        <ele>756.3</ele>
        <time>2013-04-23T12:44:31Z</time>
      </trkpt>
      <trkpt lat="45.4843" lon="6.11774">
        <ele>755.5</ele>
        <time>2013-04-23T12:44:42Z</time>
      </trkpt>
      <trkpt lat="45.48432" lon="6.11786">
        <ele>755</ele>
        <time>2013-04-23T12:45:26Z</time>
      </trkpt>
      <trkpt lat="45.48433" lon="6.11786">
        <ele>754.8</ele>
        <time>2013-04-23T12:45:27Z</time>
      </trkpt>
      <trkpt lat="45.48442" lon="6.11804">
        <ele>753.2</ele>
        <time>2013-04-23T12:45:47Z</time>
      </trkpt>
      <trkpt lat="45.48448" lon="6.11814">
        <ele>752.2</ele>
        <time>2013-04-23T12:45:57Z</time>
      </trkpt>
      <trkpt lat="45.48454" lon="6.11822">
        <ele>750.8</ele>
        <time>2013-04-23T12:46:07Z</time>
      </trkpt>
      <trkpt lat="45.4846" lon="6.1183">
        <ele>750.7</ele>
        <time>2013-04-23T12:46:15Z</time>
      </trkpt>
      <trkpt lat="45.48466" lon="6.11838">
        <ele>748.8</ele>
        <time>2013-04-23T12:46:22Z</time>
      </trkpt>
      <trkpt lat="45.4847" lon="6.11849">
        <ele>747.7</ele>
        <time>2013-04-23T12:46:32Z</time>
      </trkpt>
      <trkpt lat="45.4847" lon="6.1185">
        <ele>747.7</ele>
        <time>2013-04-23T12:46:33Z</time>
      </trkpt>
      <trkpt lat="45.48467" lon="6.11874">
        <ele>742.8</ele>
        <time>2013-04-23T12:46:54Z</time>
      </trkpt>
      <trkpt lat="45.48466" lon="6.11886">
        <ele>740.7</ele>
        <time>2013-04-23T12:47:07Z</time>
      </trkpt>
      <trkpt lat="45.4846" lon="6.11896">
        <ele>739</ele>
        <time>2013-04-23T12:47:18Z</time>
      </trkpt>
      <trkpt lat="45.48455" lon="6.11904">
        <ele>737.5</ele>
        <time>2013-04-23T12:47:32Z</time>
      </trkpt>
      <trkpt lat="45.48449" lon="6.11913">
        <ele>736</ele>
        <time>2013-04-23T12:47:41Z</time>
      </trkpt>
      <trkpt lat="45.48448" lon="6.11914">
        <ele>735.7</ele>
        <time>2013-04-23T12:47:42Z</time>
      </trkpt>
      <trkpt lat="45.48433" lon="6.11922">
        <ele>733.9</ele>
        <time>2013-04-23T12:48:05Z</time>
      </trkpt>
      <trkpt lat="45.48424" lon="6.1192">
        <ele>733.6</ele>
        <time>2013-04-23T12:48:15Z</time>
      </trkpt>
      <trkpt lat="45.48415" lon="6.1192">
        <ele>732.1</ele>
        <time>2013-04-23T12:48:29Z</time>
      </trkpt>
      <trkpt lat="45.48407" lon="6.11917">
        <ele>730.9</ele>
        <time>2013-04-23T12:48:56Z</time>
      </trkpt>
      <trkpt lat="45.48407" lon="6.11918">
        <ele>730.8</ele>
        <time>2013-04-23T12:48:57Z</time>
      </trkpt>
      <trkpt lat="45.48414" lon="6.11937">
        <ele>730.7</ele>
        <time>2013-04-23T12:49:25Z</time>
      </trkpt>
      <trkpt lat="45.4842" lon="6.11945">
        <ele>729</ele>
        <time>2013-04-23T12:49:34Z</time>
      </trkpt>
      <trkpt lat="45.48425" lon="6.11955">
        <ele>727.3</ele>
        <time>2013-04-23T12:49:44Z</time>
      </trkpt>
      <trkpt lat="45.48432" lon="6.1196">
        <ele>727.7</ele>
        <time>2013-04-23T12:49:53Z</time>
      </trkpt>
      <trkpt lat="45.4844" lon="6.11967">
        <ele>727.3</ele>
        <time>2013-04-23T12:50:01Z</time>
      </trkpt>
      <trkpt lat="45.4844" lon="6.11968">
        <ele>727.3</ele>
        <time>2013-04-23T12:50:02Z</time>
      </trkpt>
      <trkpt lat="45.48448" lon="6.11987">
        <ele>726.8</ele>
        <time>2013-04-23T12:50:17Z</time>
      </trkpt>
      <trkpt lat="45.48446" lon="6.11999">
        <ele>723.2</ele>
        <time>2013-04-23T12:50:33Z</time>
      </trkpt>
      <trkpt lat="45.48442" lon="6.1201">
        <ele>720</ele>
        <time>2013-04-23T12:50:44Z</time>
      </trkpt>
      <trkpt lat="45.48439" lon="6.12021">
        <ele>716</ele>
        <time>2013-04-23T12:50:57Z</time>
      </trkpt>
      <trkpt lat="45.48436" lon="6.12033">
        <ele>713.7</ele>
        <time>2013-04-23T12:51:08Z</time>
      </trkpt>
      <trkpt lat="45.48436" lon="6.12034">
        <ele>713.3</ele>
        <time>2013-04-23T12:51:09Z</time>
      </trkpt>
      <trkpt lat="45.48437" lon="6.12055">
        <ele>709.7</ele>
        <time>2013-04-23T12:51:23Z</time>
      </trkpt>
      <trkpt lat="45.48439" lon="6.12066">
        <ele>708.2</ele>
        <time>2013-04-23T12:51:30Z</time>
      </trkpt>
      <trkpt lat="45.4844" lon="6.12077">
        <ele>706.3</ele>
        <time>2013-04-23T12:51:37Z</time>
      </trkpt>
      <trkpt lat="45.48443" lon="6.12088">
        <ele>705.7</ele>
        <time>2013-04-23T12:51:45Z</time>
      </trkpt>
      <trkpt lat="45.48444" lon="6.121">
        <ele>704.8</ele>
        <time>2013-04-23T12:51:51Z</time>
      </trkpt>
      <trkpt lat="45.48447" lon="6.12111">
        <ele>703.7</ele>
        <time>2013-04-23T12:51:57Z</time>
      </trkpt>
      <trkpt lat="45.48448" lon="6.12122">
        <ele>702.8</ele>
        <time>2013-04-23T12:52:03Z</time>
      </trkpt>
      <trkpt lat="45.48452" lon="6.12133">
        <ele>702</ele>
        <time>2013-04-23T12:52:11Z</time>
      </trkpt>
      <trkpt lat="45.48453" lon="6.12134">
        <ele>701.5</ele>
        <time>2013-04-23T12:52:12Z</time>
      </trkpt>
      <trkpt lat="45.48452" lon="6.12155">
        <ele>696.2</ele>
        <time>2013-04-23T12:52:33Z</time>
      </trkpt>
      <trkpt lat="45.48444" lon="6.1216">
        <ele>692.4</ele>
        <time>2013-04-23T12:52:49Z</time>
      </trkpt>
      <trkpt lat="45.48436" lon="6.12157">
        <ele>689.4</ele>
        <time>2013-04-23T12:53:00Z</time>
      </trkpt>
      <trkpt lat="45.48428" lon="6.12152">
        <ele>686.2</ele>
        <time>2013-04-23T12:53:10Z</time>
      </trkpt>
      <trkpt lat="45.48423" lon="6.12142">
        <ele>683.1</ele>
        <time>2013-04-23T12:53:20Z</time>
      </trkpt>
      <trkpt lat="45.48422" lon="6.12141">
        <ele>682.6</ele>
        <time>2013-04-23T12:53:21Z</time>
      </trkpt>
      <trkpt lat="45.48407" lon="6.12132">
        <ele>677.1</ele>
        <time>2013-04-23T12:53:39Z</time>
      </trkpt>
      <trkpt lat="45.484" lon="6.12126">
        <ele>675.4</ele>
        <time>2013-04-23T12:53:46Z</time>
      </trkpt>
      <trkpt lat="45.48394" lon="6.12119">
        <ele>672.8</ele>
        <time>2013-04-23T12:53:53Z</time>
      </trkpt>
      <trkpt lat="45.48386" lon="6.12113">
        <ele>670.8</ele>
        <time>2013-04-23T12:54:00Z</time>
      </trkpt>
      <trkpt lat="45.48378" lon="6.1211">
        <ele>670</ele>
        <time>2013-04-23T12:54:07Z</time>
      </trkpt>
      <trkpt lat="45.4837" lon="6.12105">
        <ele>668.4</ele>
        <time>2013-04-23T12:54:14Z</time>
      </trkpt>
      <trkpt lat="45.48362" lon="6.12101">
        <ele>667.3</ele>
        <time>2013-04-23T12:54:21Z</time>
      </trkpt>
      <trkpt lat="45.48354" lon="6.12097">
        <ele>665.9</ele>
        <time>2013-04-23T12:54:30Z</time>
      </trkpt>
      <trkpt lat="45.48353" lon="6.12097">
        <ele>665.7</ele>
        <time>2013-04-23T12:54:31Z</time>
      </trkpt>
      <trkpt lat="45.48338" lon="6.12088">
        <ele>662.6</ele>
        <time>2013-04-23T12:54:43Z</time>
      </trkpt>
      <trkpt lat="45.4833" lon="6.12083">
        <ele>661.2</ele>
        <time>2013-04-23T12:54:49Z</time>
      </trkpt>
      <trkpt lat="45.48323" lon="6.12078">
        <ele>659.8</ele>
        <time>2013-04-23T12:54:55Z</time>
      </trkpt>
      <trkpt lat="45.48315" lon="6.12073">
        <ele>658.3</ele>
        <time>2013-04-23T12:55:01Z</time>
      </trkpt>
      <trkpt lat="45.48307" lon="6.12068">
        <ele>656.2</ele>
        <time>2013-04-23T12:55:11Z</time>
      </trkpt>
      <trkpt lat="45.48299" lon="6.12065">
        <ele>652.5</ele>
        <time>2013-04-23T12:55:23Z</time>
      </trkpt>
      <trkpt lat="45.4829" lon="6.12065">
        <ele>647.9</ele>
        <time>2013-04-23T12:55:34Z</time>
      </trkpt>
      <trkpt lat="45.48289" lon="6.12065">
        <ele>647.4</ele>
        <time>2013-04-23T12:55:35Z</time>
      </trkpt>
      <trkpt lat="45.48274" lon="6.12064">
        <ele>643.9</ele>
        <time>2013-04-23T12:55:48Z</time>
      </trkpt>
      <trkpt lat="45.48265" lon="6.12063">
        <ele>641.7</ele>
        <time>2013-04-23T12:55:57Z</time>
      </trkpt>
      <trkpt lat="45.48257" lon="6.12062">
        <ele>639.9</ele>
        <time>2013-04-23T12:56:06Z</time>
      </trkpt>
      <trkpt lat="45.48248" lon="6.12059">
        <ele>637.5</ele>
        <time>2013-04-23T12:56:14Z</time>
      </trkpt>
      <trkpt lat="45.48241" lon="6.12052">
        <ele>634.2</ele>
        <time>2013-04-23T12:56:23Z</time>
      </trkpt>
      <trkpt lat="45.48233" lon="6.12049">
        <ele>633</ele>
        <time>2013-04-23T12:56:31Z</time>
      </trkpt>
      <trkpt lat="45.48225" lon="6.12044">
        <ele>631.2</ele>
        <time>2013-04-23T12:56:40Z</time>
      </trkpt>
      <trkpt lat="45.48224" lon="6.12044">
        <ele>631</ele>
        <time>2013-04-23T12:56:41Z</time>
      </trkpt>
      <trkpt lat="45.48209" lon="6.12042">
        <ele>629</ele>
        <time>2013-04-23T12:56:52Z</time>
      </trkpt>
      <trkpt lat="45.48201" lon="6.12037">
        <ele>626.8</ele>
        <time>2013-04-23T12:56:59Z</time>
      </trkpt>
      <trkpt lat="45.48194" lon="6.1203">
        <ele>625.4</ele>
        <time>2013-04-23T12:57:07Z</time>
      </trkpt>
      <trkpt lat="45.48187" lon="6.12024">
        <ele>621.6</ele>
        <time>2013-04-23T12:57:21Z</time>
      </trkpt>
      <trkpt lat="45.4818" lon="6.12017">
        <ele>620.8</ele>
        <time>2013-04-23T12:57:29Z</time>
      </trkpt>
      <trkpt lat="45.48173" lon="6.12009">
        <ele>619.4</ele>
        <time>2013-04-23T12:57:37Z</time>
      </trkpt>
      <trkpt lat="45.48166" lon="6.12004">
        <ele>617.7</ele>
        <time>2013-04-23T12:57:45Z</time>
      </trkpt>
      <trkpt lat="45.48165" lon="6.12003">
        <ele>617.2</ele>
        <time>2013-04-23T12:57:46Z</time>
      </trkpt>
      <trkpt lat="45.48149" lon="6.11997">
        <ele>613.9</ele>
        <time>2013-04-23T12:58:10Z</time>
      </trkpt>
      <trkpt lat="45.48141" lon="6.11998">
        <ele>612.5</ele>
        <time>2013-04-23T12:58:20Z</time>
      </trkpt>
      <trkpt lat="45.48133" lon="6.11998">
        <ele>612.4</ele>
        <time>2013-04-23T12:58:33Z</time>
      </trkpt>
      <trkpt lat="45.48129" lon="6.11986">
        <ele>610</ele>
        <time>2013-04-23T12:58:55Z</time>
      </trkpt>
      <trkpt lat="45.48129" lon="6.11985">
        <ele>609.9</ele>
        <time>2013-04-23T12:58:56Z</time>
      </trkpt>
      <trkpt lat="45.4812" lon="6.11991">
        <ele>609.9</ele>
        <time>2013-04-23T13:00:48Z</time>
      </trkpt>
      <trkpt lat="45.48127" lon="6.11999">
        <ele>609.4</ele>
        <time>2013-04-23T13:01:54Z</time>
      </trkpt>
      <trkpt lat="45.48138" lon="6.11995">
        <ele>609.8</ele>
        <time>2013-04-23T13:03:33Z</time>
      </trkpt>
      <trkpt lat="45.48138" lon="6.11994">
        <ele>610.1</ele>
        <time>2013-04-23T13:03:34Z</time>
      </trkpt>
      <trkpt lat="45.48125" lon="6.12008">
        <ele>609.8</ele>
        <time>2013-04-23T13:04:35Z</time>
      </trkpt>
      <trkpt lat="45.48121" lon="6.12008">
        <ele>609.8</ele>
        <time>2013-04-23T13:04:36Z</time>
      </trkpt>
      <trkpt lat="45.48127" lon="6.11985">
        <ele>610</ele>
        <time>2013-04-23T13:05:43Z</time>
      </trkpt>
      <trkpt lat="45.48127" lon="6.11985">
        <ele>610</ele>
        <time>2013-04-23T13:05:44Z</time>
      </trkpt>
      <trkpt lat="45.48125" lon="6.12009">
        <ele>609.2</ele>
        <time>2013-04-23T13:06:07Z</time>
      </trkpt>
      <trkpt lat="45.48124" lon="6.11996">
        <ele>609</ele>
        <time>2013-04-23T13:06:32Z</time>
      </trkpt>
      <trkpt lat="45.48125" lon="6.11983">
        <ele>608.9</ele>
        <time>2013-04-23T13:07:24Z</time>
      </trkpt>
      <trkpt lat="45.48126" lon="6.11983">
        <ele>608.9</ele>
        <time>2013-04-23T13:07:25Z</time>
      </trkpt>
      <trkpt lat="45.48128" lon="6.11984">
        <ele>610</ele>
        <time>2013-04-23T13:08:56Z</time>
      </trkpt>
      <trkpt lat="45.48127" lon="6.11983">
        <ele>610</ele>
        <time>2013-04-23T13:08:57Z</time>
      </trkpt>
      <trkpt lat="45.48117" lon="6.11964">
        <ele>608</ele>
        <time>2013-04-23T13:09:17Z</time>
      </trkpt>
      <trkpt lat="45.48113" lon="6.11953">
        <ele>607.4</ele>
        <time>2013-04-23T13:09:27Z</time>
      </trkpt>
      <trkpt lat="45.48108" lon="6.11944">
        <ele>606.3</ele>
        <time>2013-04-23T13:09:36Z</time>
      </trkpt>
      <trkpt lat="45.48103" lon="6.11934">
        <ele>605.4</ele>
        <time>2013-04-23T13:09:43Z</time>
      </trkpt>
      <trkpt lat="45.48099" lon="6.11924">
        <ele>605.3</ele>
        <time>2013-04-23T13:09:50Z</time>
      </trkpt>
      <trkpt lat="45.48095" lon="6.11913">
        <ele>604.2</ele>
        <time>2013-04-23T13:09:56Z</time>
      </trkpt>
      <trkpt lat="45.48091" lon="6.11904">
        <ele>603.7</ele>
        <time>2013-04-23T13:10:01Z</time>
      </trkpt>
      <trkpt lat="45.4809" lon="6.11902">
        <ele>603.6</ele>
        <time>2013-04-23T13:10:02Z</time>
      </trkpt>
      <trkpt lat="45.48079" lon="6.11888">
        <ele>602.4</ele>
        <time>2013-04-23T13:10:11Z</time>
      </trkpt>
      <trkpt lat="45.48073" lon="6.11881">
        <ele>602.3</ele>
        <time>2013-04-23T13:10:16Z</time>
      </trkpt>
      <trkpt lat="45.48066" lon="6.11875">
        <ele>601.4</ele>
        <time>2013-04-23T13:10:21Z</time>
      </trkpt>
      <trkpt lat="45.48059" lon="6.11868">
        <ele>600.9</ele>
        <time>2013-04-23T13:10:27Z</time>
      </trkpt>
      <trkpt lat="45.48053" lon="6.11859">
        <ele>599.6</ele>
        <time>2013-04-23T13:10:37Z</time>
      </trkpt>
      <trkpt lat="45.48047" lon="6.11851">
        <ele>598.1</ele>
        <time>2013-04-23T13:10:50Z</time>
      </trkpt>
      <trkpt lat="45.4804" lon="6.11842">
        <ele>596.7</ele>
        <time>2013-04-23T13:10:59Z</time>
      </trkpt>
      <trkpt lat="45.48034" lon="6.11836">
        <ele>596.3</ele>
        <time>2013-04-23T13:11:06Z</time>
      </trkpt>
      <trkpt lat="45.48033" lon="6.11835">
        <ele>596.3</ele>
        <time>2013-04-23T13:11:07Z</time>
      </trkpt>
      <trkpt lat="45.48019" lon="6.11827">
        <ele>594.2</ele>
        <time>2013-04-23T13:11:20Z</time>
      </trkpt>
      <trkpt lat="45.48011" lon="6.11826">
        <ele>593.2</ele>
        <time>2013-04-23T13:11:27Z</time>
      </trkpt>
      <trkpt lat="45.48002" lon="6.11822">
        <ele>592.7</ele>
        <time>2013-04-23T13:11:35Z</time>
      </trkpt>
      <trkpt lat="45.47994" lon="6.11821">
        <ele>591.9</ele>
        <time>2013-04-23T13:11:53Z</time>
      </trkpt>
      <trkpt lat="45.47985" lon="6.11822">
        <ele>588.7</ele>
        <time>2013-04-23T13:12:06Z</time>
      </trkpt>
      <trkpt lat="45.47977" lon="6.11819">
        <ele>586.7</ele>
        <time>2013-04-23T13:12:18Z</time>
      </trkpt>
      <trkpt lat="45.47976" lon="6.11819">
        <ele>586.6</ele>
        <time>2013-04-23T13:12:19Z</time>
      </trkpt>
      <trkpt lat="45.47962" lon="6.11805">
        <ele>582.4</ele>
        <time>2013-04-23T13:12:41Z</time>
      </trkpt>
      <trkpt lat="45.47954" lon="6.11801">
        <ele>580.8</ele>
        <time>2013-04-23T13:12:51Z</time>
      </trkpt>
      <trkpt lat="45.47945" lon="6.11798">
        <ele>578.9</ele>
        <time>2013-04-23T13:12:59Z</time>
      </trkpt>
      <trkpt lat="45.47938" lon="6.11797">
        <ele>577.3</ele>
        <time>2013-04-23T13:13:06Z</time>
      </trkpt>
      <trkpt lat="45.4793" lon="6.11793">
        <ele>574.3</ele>
        <time>2013-04-23T13:13:15Z</time>
      </trkpt>
      <trkpt lat="45.47921" lon="6.1179">
        <ele>571.5</ele>
        <time>2013-04-23T13:13:24Z</time>
      </trkpt>
      <trkpt lat="45.4792" lon="6.1179">
        <ele>571.6</ele>
        <time>2013-04-23T13:13:25Z</time>
      </trkpt>
      <trkpt lat="45.47904" lon="6.11786">
        <ele>570.1</ele>
        <time>2013-04-23T13:13:41Z</time>
      </trkpt>
      <trkpt lat="45.47896" lon="6.11782">
        <ele>567.9</ele>
        <time>2013-04-23T13:13:50Z</time>
      </trkpt>
      <trkpt lat="45.4789" lon="6.11775">
        <ele>565.9</ele>
        <time>2013-04-23T13:13:59Z</time>
      </trkpt>
      <trkpt lat="45.47882" lon="6.11774">
        <ele>563.9</ele>
        <time>2013-04-23T13:14:07Z</time>
      </trkpt>
      <trkpt lat="45.47874" lon="6.1177">
        <ele>562.5</ele>
        <time>2013-04-23T13:14:14Z</time>
      </trkpt>
      <trkpt lat="45.47865" lon="6.11768">
        <ele>561.2</ele>
        <time>2013-04-23T13:14:22Z</time>
      </trkpt>
      <trkpt lat="45.47858" lon="6.11764">
        <ele>559.7</ele>
        <time>2013-04-23T13:14:29Z</time>
      </trkpt>
      <trkpt lat="45.47857" lon="6.11763">
        <ele>559.7</ele>
        <time>2013-04-23T13:14:30Z</time>
      </trkpt>
      <trkpt lat="45.47841" lon="6.11756">
        <ele>557.3</ele>
        <time>2013-04-23T13:14:50Z</time>
      </trkpt>
      <trkpt lat="45.47833" lon="6.11753">
        <ele>555.5</ele>
        <time>2013-04-23T13:15:00Z</time>
      </trkpt>
      <trkpt lat="45.47824" lon="6.11752">
        <ele>553.9</ele>
        <time>2013-04-23T13:15:10Z</time>
      </trkpt>
      <trkpt lat="45.47816" lon="6.11755">
        <ele>551.8</ele>
        <time>2013-04-23T13:15:18Z</time>
      </trkpt>
      <trkpt lat="45.47808" lon="6.11754">
        <ele>551.3</ele>
        <time>2013-04-23T13:15:26Z</time>
      </trkpt>
      <trkpt lat="45.478" lon="6.11751">
        <ele>550</ele>
        <time>2013-04-23T13:15:34Z</time>
      </trkpt>
      <trkpt lat="45.47799" lon="6.11751">
        <ele>550</ele>
        <time>2013-04-23T13:15:35Z</time>
      </trkpt>
      <trkpt lat="45.47783" lon="6.11749">
        <ele>549</ele>
        <time>2013-04-23T13:15:52Z</time>
      </trkpt>
      <trkpt lat="45.47775" lon="6.11744">
        <ele>548.2</ele>
        <time>2013-04-23T13:15:59Z</time>
      </trkpt>
      <trkpt lat="45.47768" lon="6.11739">
        <ele>547.5</ele>
        <time>2013-04-23T13:16:06Z</time>
      </trkpt>
      <trkpt lat="45.47761" lon="6.11734">
        <ele>547.4</ele>
        <time>2013-04-23T13:16:13Z</time>
      </trkpt>
      <trkpt lat="45.47753" lon="6.11729">
        <ele>546.4</ele>
        <time>2013-04-23T13:16:20Z</time>
      </trkpt>
      <trkpt lat="45.47745" lon="6.11724">
        <ele>546.9</ele>
        <time>2013-04-23T13:16:29Z</time>
      </trkpt>
      <trkpt lat="45.47737" lon="6.11719">
        <ele>546.4</ele>
        <time>2013-04-23T13:16:41Z</time>
      </trkpt>
      <trkpt lat="45.47736" lon="6.11719">
        <ele>546.4</ele>
        <time>2013-04-23T13:16:42Z</time>
      </trkpt>
      <trkpt lat="45.47722" lon="6.11711">
        <ele>546.3</ele>
        <time>2013-04-23T13:16:56Z</time>
      </trkpt>
      <trkpt lat="45.47715" lon="6.11707">
        <ele>545.3</ele>
        <time>2013-04-23T13:17:02Z</time>
      </trkpt>
      <trkpt lat="45.47707" lon="6.11704">
        <ele>545.2</ele>
        <time>2013-04-23T13:17:08Z</time>
      </trkpt>
      <trkpt lat="45.477" lon="6.117">
        <ele>544.6</ele>
        <time>2013-04-23T13:17:14Z</time>
      </trkpt>
      <trkpt lat="45.47692" lon="6.11696">
        <ele>544</ele>
        <time>2013-04-23T13:17:21Z</time>
      </trkpt>
      <trkpt lat="45.47684" lon="6.11693">
        <ele>544.5</ele>
        <time>2013-04-23T13:17:28Z</time>
      </trkpt>
      <trkpt lat="45.47676" lon="6.11689">
        <ele>544.7</ele>
        <time>2013-04-23T13:17:35Z</time>
      </trkpt>
      <trkpt lat="45.47668" lon="6.11685">
        <ele>544.8</ele>
        <time>2013-04-23T13:17:41Z</time>
      </trkpt>
      <trkpt lat="45.47661" lon="6.11681">
        <ele>545.3</ele>
        <time>2013-04-23T13:17:49Z</time>
      </trkpt>
      <trkpt lat="45.47659" lon="6.1168">
        <ele>545.4</ele>
        <time>2013-04-23T13:17:50Z</time>
      </trkpt>
      <trkpt lat="45.47645" lon="6.11674">
        <ele>545</ele>
        <time>2013-04-23T13:18:02Z</time>
      </trkpt>
      <trkpt lat="45.47636" lon="6.11672">
        <ele>545.5</ele>
        <time>2013-04-23T13:18:09Z</time>
      </trkpt>
      <trkpt lat="45.47628" lon="6.1167">
        <ele>544.8</ele>
        <time>2013-04-23T13:18:16Z</time>
      </trkpt>
      <trkpt lat="45.47621" lon="6.11666">
        <ele>544.7</ele>
        <time>2013-04-23T13:18:22Z</time>
      </trkpt>
      <trkpt lat="45.47613" lon="6.11662">
        <ele>544.4</ele>
        <time>2013-04-23T13:18:28Z</time>
      </trkpt>
      <trkpt lat="45.47606" lon="6.11656">
        <ele>544.7</ele>
        <time>2013-04-23T13:18:34Z</time>
      </trkpt>
      <trkpt lat="45.47598" lon="6.11652">
        <ele>544.2</ele>
        <time>2013-04-23T13:18:40Z</time>
      </trkpt>
      <trkpt lat="45.47591" lon="6.11647">
        <ele>543.9</ele>
        <time>2013-04-23T13:18:46Z</time>
      </trkpt>
      <trkpt lat="45.47583" lon="6.11644">
        <ele>543.2</ele>
        <time>2013-04-23T13:18:51Z</time>
      </trkpt>
      <trkpt lat="45.47582" lon="6.11643">
        <ele>543.2</ele>
        <time>2013-04-23T13:18:52Z</time>
      </trkpt>
      <trkpt lat="45.47567" lon="6.11638">
        <ele>541.7</ele>
        <time>2013-04-23T13:19:08Z</time>
      </trkpt>
      <trkpt lat="45.4756" lon="6.11633">
        <ele>540</ele>
        <time>2013-04-23T13:19:16Z</time>
      </trkpt>
      <trkpt lat="45.47553" lon="6.11628">
        <ele>539.2</ele>
        <time>2013-04-23T13:19:24Z</time>
      </trkpt>
      <trkpt lat="45.47547" lon="6.11619">
        <ele>539.2</ele>
        <time>2013-04-23T13:19:34Z</time>
      </trkpt>
      <trkpt lat="45.4754" lon="6.11611">
        <ele>538.9</ele>
        <time>2013-04-23T13:20:04Z</time>
      </trkpt>
      <trkpt lat="45.4754" lon="6.11611">
        <ele>538.9</ele>
        <time>2013-04-23T13:20:05Z</time>
      </trkpt>
    </trkseg>
  </trk>
</gpx>